[[{"header":{"parameterUnit":"m.s-1","parameterCategory":1,"la1":31.0,"la2":29.5877,"lo1":-88.7671,"lo2":-86.6584,"dx":0.0162,"dy":0.0185,"nx":115,"ny":88,"refTime":"2022-11-13T06:00:00:Z","depth":0,"parameterNumber":2,"parameterNumberName":"U-component_of_WINDS"},"data":[0.0,0.0,0.0,0.0,0.0,0.0,0.0,0.0,0.0,0.0,0.0,0.0,0.0,0.0,0.0,0.0,0.0,0.0,0.0,0.0,0.0,0.0,0.0,0.0,0.0,0.0,0.0,0.0,0.0,0.0,0.0,0.0,0.0,0.0,0.0,0.0,0.0,0.0,0.0,0.0,0.0,0.0,0.0,0.0,0.0,0.0,0.0,0.0,0.0,0.0,0.0,0.0,0.0,0.0,0.0,0.0,0.0,0.0,0.0,0.0,0.0,0.0,0.0,0.0,0.0,0.0,0.0,0.0,0.0,0.0,0.0,0.0,0.0,0.0,0.0,0.0,0.0,0.0,0.0,0.0,0.0,0.0,0.0,0.0,0.0,0.0,0.0,0.0,0.0,0.0,0.0,0.0,0.0,0.0,0.0,0.0,0.0,0.0,0.0,0.0,0.0,0.0,0.0,0.0,0.0,0.0,0.0,0.0,0.0,0.0,0.0,0.0,0.0,0.0,0.0,0.0,0.0,0.0,0.0,0.0,0.0,0.0,0.0,0.0,0.0,0.0,0.0,0.0,0.0,0.0,0.0,0.0,0.0,0.0,0.0,0.0,0.0,0.0,0.0,0.0,0.0,0.0,0.0,0.0,0.0,0.0,0.0,0.0,0.0,0.0,0.0,0.0,0.0,0.0,0.0,0.0,0.0,0.0,0.0,0.0,0.0,0.0,0.0,0.0,0.0,0.0,0.0,0.0,0.0,0.0,0.0,0.0,0.0,0.0,0.0,0.0,0.0,0.0,0.0,0.0,0.0,0.0,0.0,0.0,0.0,0.0,0.0,0.0,0.0,0.0,0.0,0.0,0.0,0.0,0.0,0.0,0.0,0.0,0.0,0.0,0.0,0.0,0.0,0.0,0.0,0.0,0.0,0.0,0.0,0.0,0.0,0.0,0.0,0.0,0.0,0.0,0.0,0.0,0.0,0.0,0.0,0.0,0.0,0.0,0.0,0.0,0.0,0.0,0.0,0.0,0.0,0.0,0.0,0.0,0.0,0.0,0.0,0.0,0.0,0.0,0.0,0.0,0.0,0.0,0.0,0.0,0.0,0.0,0.0,0.0,0.0,0.0,0.0,0.0,0.0,0.0,0.0,0.0,0.0,0.0,0.0,0.0,0.0,0.0,0.0,0.0,0.0,0.0,0.0,0.0,0.0,0.0,0.0,0.0,0.0,0.0,0.0,0.0,0.0,0.0,0.0,0.0,0.0,0.0,0.0,0.0,0.0,0.0,0.0,0.0,0.0,0.0,0.0,0.0,0.0,0.0,0.0,0.0,0.0,0.0,0.0,0.0,0.0,0.0,0.0,0.0,0.0,0.0,0.0,0.0,0.0,0.0,0.0,0.0,0.0,0.0,0.0,0.0,0.0,0.0,0.0,0.0,0.0,0.0,0.0,0.0,0.0,0.0,0.0,0.0,0.0,0.0,0.0,0.0,0.0,0.0,0.0,0.0,0.0,0.0,0.0,0.0,0.0,0.0,0.0,0.0,0.0,0.0,0.0,0.0,0.0,0.0,0.0,0.0,0.0,0.0,0.0,0.0,0.0,0.0,0.0,0.0,0.0,0.0,0.0,0.0,0.0,0.0,0.0,0.0,0.0,0.0,0.0,0.0,0.0,0.0,0.0,0.0,0.0,0.0,0.0,0.0,0.0,0.0,0.0,0.0,0.0,0.0,0.0,0.0,0.0,0.0,0.0,0.0,0.0,0.0,0.0,0.0,0.0,0.0,0.0,0.0,0.0,0.0,0.0,0.0,0.0,0.0,0.0,0.0,0.0,0.0,0.0,0.0,0.0,0.0,0.0,0.0,0.0,0.0,0.0,0.0,0.0,0.0,0.0,0.0,0.0,0.0,0.0,0.0,0.0,0.0,0.0,0.0,0.0,0.0,0.0,0.0,0.0,0.0,0.0,0.0,0.0,0.0,0.0,0.0,0.0,0.0,0.0,0.0,0.0,0.0,0.0,0.0,0.0,0.0,0.0,0.0,0.0,0.0,0.0,0.0,0.0,0.0,0.0,0.0,0.0,0.0,0.0,0.0,0.0,0.0,0.0,0.0,0.0,0.0,0.0,0.0,0.0,0.0,0.0,0.0,0.0,0.0,0.0,0.0,0.0,0.0,0.0,0.0,0.0,0.0,0.0,0.0,0.0,0.0,0.0,0.0,0.0,0.0,0.0,0.0,0.0,0.0,0.0,0.0,0.0,0.0,0.0,0.0,0.0,0.0,0.0,0.0,0.0,0.0,0.0,0.0,0.0,0.0,0.0,0.0,0.0,0.0,0.0,0.0,0.0,0.0,0.0,0.0,0.0,0.0,0.0,0.0,0.0,0.0,0.0,0.0,0.0,0.0,0.0,0.0,0.0,0.0,0.0,0.0,0.0,0.0,0.0,0.0,0.0,0.0,0.0,0.0,0.0,0.0,0.0,0.0,0.0,0.0,0.0,0.0,0.0,0.0,0.0,0.0,0.0,0.0,0.0,0.0,0.0,0.0,0.0,0.0,0.0,0.0,0.0,0.0,0.0,0.0,0.0,0.0,0.0,0.0,0.0,0.0,0.0,0.0,0.0,0.0,0.0,0.0,0.0,0.0,0.0,0.0,0.0,0.0,0.0,0.0,0.0,0.0,0.0,0.0,0.0,0.0,0.0,0.0,0.0,0.0,0.0,0.0,0.0,0.0,0.0,0.0,0.0,0.0,0.0,0.0,0.0,0.0,0.0,0.0,0.0,0.0,0.0,0.0,0.0,0.0,0.0,0.0,0.0,0.0,0.0,0.0,0.0,0.0,0.0,0.0,0.0,0.0,0.0,0.0,0.0,0.0,0.0,0.0,0.0,0.0,0.0,0.0,0.0,0.0,0.0,0.0,0.0,0.0,0.0,0.0,0.0,0.0,0.0,0.0,0.0,0.0,0.0,0.0,0.0,0.0,0.0,0.0,0.0,0.0,0.0,0.0,0.0,0.0,0.0,0.0,0.0,0.0,0.0,0.0,0.0,0.0,0.0,0.0,0.0,0.0,0.0,0.0,0.0,0.0,0.0,0.0,0.0,0.0,0.0,0.0,0.0,0.0,0.0,0.0,0.0,0.0,0.0,0.0,0.0,0.0,0.0,0.0,0.0,0.0,0.0,0.0,0.0,0.0,0.0,0.0,0.0,0.0,0.0,0.0,0.0,0.0,0.0,0.0,0.0,0.0,0.0,0.0,0.0,0.0,0.0,0.0,0.0,0.0,0.0,0.0,0.0,0.0,0.0,0.0,0.0,0.0,0.0,0.0,0.0,0.0,0.0,0.0,0.0,0.0,0.0,0.0,0.0,0.0,0.0,0.0,0.0,0.0,0.0,0.0,0.0,0.0,0.0,0.0,0.0,0.0,0.0,0.0,0.0,0.0,0.0,0.0,0.0,0.0,0.0,0.0,0.0,0.0,0.0,0.0,0.0,0.0,0.0,0.0,0.0,0.0,0.0,0.0,0.0,0.0,0.0,0.0,0.0,0.0,0.0,0.0,0.0,0.0,0.0,0.0,0.0,0.0,0.0,0.0,0.0,0.0,0.0,0.0,0.0,0.0,0.0,0.0,0.0,0.0,0.0,0.0,0.0,0.0,0.0,0.0,0.0,0.0,0.0,0.0,0.0,0.0,0.0,0.0,0.0,0.0,0.0,0.0,0.0,0.0,0.0,0.0,0.0,0.0,0.0,0.0,0.0,0.0,0.0,0.0,0.0,0.0,0.0,0.0,0.0,0.0,0.0,0.0,0.0,0.0,0.0,0.0,0.0,0.0,0.0,0.0,0.0,0.0,0.0,0.0,0.0,0.0,0.0,0.0,0.0,0.0,0.0,0.0,0.0,0.0,0.0,0.0,0.0,0.0,0.0,0.0,0.0,0.0,0.0,0.0,0.0,0.0,0.0,0.0,0.0,0.0,0.0,0.0,0.0,0.0,0.0,0.0,0.0,0.0,0.0,0.0,0.0,0.0,0.0,0.0,0.0,0.0,0.0,0.0,0.0,0.0,0.0,0.0,0.0,0.0,0.0,0.0,0.0,0.0,0.0,0.0,0.0,0.0,0.0,0.0,0.0,0.0,0.0,0.0,0.0,0.0,0.0,0.0,0.0,0.0,0.0,0.0,0.0,0.0,0.0,0.0,0.0,0.0,0.0,0.0,0.0,0.0,0.0,0.0,0.0,0.0,0.0,0.0,0.0,0.0,0.0,0.0,0.0,0.0,1.8102,0.0,0.0,0.0,1.7624,0.0,0.0,0.0,0.0,0.0,0.0,0.0,0.0,0.0,0.0,0.0,0.0,0.0,0.0,0.0,0.0,0.0,0.0,0.0,0.0,0.0,0.0,0.0,0.0,0.0,0.0,0.0,0.0,0.0,0.0,0.0,0.0,0.0,0.0,0.0,0.0,0.0,0.0,0.0,0.0,0.0,0.0,0.0,0.0,0.0,0.0,0.0,0.0,0.0,0.0,0.0,0.0,0.0,0.0,0.0,0.0,0.0,0.0,0.0,0.0,0.0,0.0,0.0,0.0,0.0,0.0,0.0,0.0,0.0,0.0,0.0,0.0,0.0,0.0,0.0,0.0,0.0,0.0,0.0,0.0,0.0,0.0,0.0,0.0,0.0,0.0,0.0,0.0,0.0,0.0,0.0,0.0,0.0,0.0,0.0,0.0,0.0,0.0,0.0,0.0,0.0,0.0,0.0,0.0,0.0,0.0,0.0,0.0,0.0,0.0,1.8113,1.8054,1.7983,1.7816,1.7532,0.0,0.0,0.0,0.0,0.0,0.0,0.0,0.0,0.0,0.0,0.0,0.0,0.0,0.0,0.0,0.0,0.0,0.0,0.0,0.0,0.0,0.0,0.0,0.0,0.0,0.0,0.0,0.0,0.0,0.0,0.0,0.0,0.0,0.0,0.0,0.0,0.0,0.0,0.0,0.0,0.0,0.0,0.0,0.0,0.0,0.0,0.0,0.0,0.0,0.0,0.0,0.0,0.0,0.0,0.0,0.0,0.0,0.0,0.0,0.0,0.0,0.0,0.0,0.0,0.0,0.0,0.0,0.0,0.0,0.0,0.0,0.0,0.0,0.0,0.0,0.0,0.0,0.0,0.0,0.0,0.0,0.0,0.0,0.0,0.0,0.0,0.0,0.0,0.0,0.0,0.0,0.0,0.0,0.0,0.0,0.0,0.0,0.0,0.0,0.0,0.0,0.0,0.0,0.0,0.0,0.0,0.0,0.0,0.0,0.0,0.0,0.0,1.7927,1.7743,1.7368,0.0,0.0,0.0,0.0,0.0,0.0,0.0,0.0,0.0,0.0,0.0,0.0,0.0,0.0,0.0,0.0,0.0,0.0,0.0,0.0,0.0,0.0,0.0,0.0,0.0,0.0,0.0,0.0,0.0,0.0,0.0,0.0,0.0,0.0,0.0,0.0,0.0,0.0,0.0,0.0,0.0,0.0,0.0,0.0,0.0,0.0,0.0,0.0,0.0,0.0,0.0,0.0,0.0,0.0,0.0,0.0,0.0,0.0,0.0,0.0,0.0,0.0,0.0,0.0,0.0,0.0,0.0,0.0,0.0,0.0,0.0,0.0,0.0,0.0,0.0,0.0,0.0,0.0,0.0,0.0,0.0,0.0,0.0,0.0,0.0,0.0,0.0,0.0,0.0,0.0,0.0,0.0,0.0,0.0,0.0,0.0,0.0,0.0,0.0,0.0,0.0,0.0,0.0,0.0,0.0,0.0,0.0,0.0,0.0,0.0,1.8179,1.8097,1.7949,0.0,1.7002,0.0,0.0,0.0,0.0,0.0,0.0,0.0,0.0,0.0,0.0,0.0,0.0,0.0,0.0,0.0,0.0,0.0,0.0,0.0,0.0,0.0,0.0,0.0,0.0,0.0,0.0,0.0,0.0,0.0,0.0,0.0,0.0,0.0,0.0,0.0,0.0,0.0,0.0,0.0,0.0,0.0,0.0,0.0,0.0,0.0,0.0,0.0,0.0,0.0,0.0,0.0,0.0,0.0,0.0,0.0,0.0,0.0,0.0,0.0,0.0,0.0,0.0,0.0,0.0,0.0,0.0,0.0,0.0,0.0,0.0,0.0,0.0,0.0,0.0,0.0,0.0,0.0,0.0,0.0,0.0,0.0,0.0,0.0,0.0,0.0,0.0,0.0,0.0,0.0,0.0,0.0,0.0,0.0,0.0,0.0,0.0,0.0,0.0,0.0,0.0,0.0,0.0,0.0,0.0,0.0,0.0,0.0,0.0,0.0,0.0,1.8158,1.8037,1.7726,1.7308,0.0,0.0,0.0,0.0,0.0,0.0,0.0,0.0,0.0,0.0,0.0,0.0,0.0,0.0,0.0,0.0,0.0,0.0,0.0,0.0,0.0,0.0,0.0,0.0,0.0,0.0,0.0,0.0,0.0,0.0,0.0,0.0,0.0,0.0,0.0,0.0,0.0,0.0,0.0,0.0,0.0,0.0,0.0,0.0,0.0,0.0,0.0,0.0,0.0,0.0,0.0,0.0,0.0,0.0,0.0,0.0,0.0,0.0,0.0,0.0,0.0,0.0,0.0,0.0,0.0,0.0,0.0,0.0,0.0,0.0,0.0,0.0,0.0,0.0,0.0,0.0,0.0,0.0,0.0,0.0,0.0,0.0,0.0,0.0,0.0,0.0,0.0,0.0,0.0,0.0,0.0,0.0,0.0,0.0,0.0,0.0,0.0,0.0,0.0,0.0,0.0,0.0,0.0,0.0,0.0,0.0,0.0,0.0,0.0,0.0,1.8478,1.8465,1.8461,1.7901,1.7388,1.7007,0.0,0.0,0.0,0.0,0.0,0.0,0.0,0.0,0.0,0.0,0.0,0.0,0.0,0.0,0.0,0.0,0.0,0.0,0.0,0.0,0.0,0.0,0.0,0.0,0.0,0.0,0.0,0.0,0.0,0.0,0.0,0.0,0.0,0.0,0.0,0.0,0.0,0.0,0.0,0.0,0.0,0.0,0.0,0.0,0.0,0.0,0.0,0.0,0.0,0.0,0.0,0.0,0.0,0.0,0.0,0.0,0.0,0.0,0.0,0.0,0.0,0.0,0.0,0.0,0.0,0.0,0.0,0.0,0.0,0.0,0.0,0.0,0.0,0.0,0.0,0.0,0.0,0.0,0.0,0.0,0.0,0.0,0.0,0.0,0.0,0.0,0.0,0.0,0.0,0.0,0.0,0.0,0.0,0.0,0.0,0.0,0.0,0.0,0.0,0.0,0.0,0.0,0.0,0.0,0.0,0.0,0.0,0.0,1.9127,1.9121,1.9345,1.9675,1.8778,1.809,0.0,0.0,0.0,0.0,0.0,0.0,0.0,0.0,0.0,0.0,0.0,0.0,0.0,0.0,0.0,0.0,0.0,0.0,0.0,0.0,0.0,0.0,0.0,0.0,0.0,0.0,0.0,0.0,0.0,0.0,0.0,0.0,0.0,0.0,0.0,0.0,0.0,0.0,0.0,0.0,0.0,0.0,0.0,0.0,0.0,0.0,0.0,0.0,0.0,0.0,0.0,0.0,0.0,0.0,0.0,0.0,0.0,0.0,0.0,0.0,0.0,0.0,0.0,0.0,0.0,0.0,0.0,0.0,0.0,0.0,0.0,0.0,0.0,0.0,0.0,0.0,0.0,0.0,0.0,0.0,0.0,0.0,0.0,0.0,0.0,0.0,0.0,0.0,0.0,0.0,0.0,0.0,0.0,0.0,0.0,0.0,0.0,0.0,0.0,0.0,0.0,0.0,0.0,0.0,0.0,0.0,0.0,0.0,0.0,1.9144,1.9491,1.965,1.9651,1.9057,1.8356,0.0,0.0,0.0,0.0,0.0,0.0,0.0,0.0,0.0,0.0,0.0,0.0,0.0,0.0,0.0,0.0,0.0,0.0,0.0,0.0,0.0,0.0,0.0,0.0,0.0,0.0,0.0,0.0,0.0,0.0,0.0,0.0,0.0,0.0,0.0,0.0,0.0,0.0,0.0,0.0,0.0,0.0,0.0,0.0,0.0,0.0,0.0,0.0,0.0,0.0,0.0,0.0,0.0,0.0,0.0,0.0,0.0,0.0,0.0,0.0,0.0,0.0,0.0,0.0,0.0,0.0,0.0,0.0,0.0,0.0,0.0,0.0,0.0,0.0,0.0,0.0,0.0,0.0,0.0,0.0,0.0,0.0,0.0,0.0,0.0,0.0,0.0,0.0,0.0,0.0,0.0,0.0,0.0,0.0,0.0,0.0,0.0,0.0,0.0,0.0,0.0,0.0,0.0,0.0,0.0,0.0,0.0,0.0,0.0,2.0344,2.1074,2.1345,2.1153,2.0344,1.9427,0.0,0.0,0.0,0.0,0.0,0.0,0.0,0.0,0.0,0.0,0.0,0.0,0.0,0.0,0.0,0.0,0.0,0.0,0.0,0.0,0.0,0.0,0.0,0.0,0.0,0.0,0.0,0.0,0.0,0.0,0.0,0.0,0.0,0.0,0.0,0.0,0.0,0.0,0.0,0.0,0.0,0.0,0.0,0.0,0.0,0.0,0.0,0.0,0.0,0.0,0.0,0.0,0.0,0.0,0.0,0.0,0.0,0.0,0.0,0.0,0.0,0.0,0.0,0.0,0.0,0.0,0.0,0.0,0.0,0.0,0.0,0.0,0.0,0.0,0.0,0.0,0.0,0.0,0.0,0.0,0.0,0.0,0.0,0.0,0.0,0.0,0.0,0.0,0.0,0.0,0.0,0.0,0.0,0.0,0.0,0.0,0.0,0.0,0.0,0.0,0.0,0.0,0.0,0.0,0.0,0.0,0.0,0.0,2.0357,2.2933,2.4114,2.4581,2.4378,2.2738,2.1332,0.0,0.0,0.0,0.0,0.0,0.0,0.0,0.0,0.0,0.0,0.0,0.0,0.0,0.0,0.0,0.0,0.0,0.0,0.0,0.0,0.0,0.0,0.0,0.0,0.0,0.0,0.0,0.0,0.0,0.0,0.0,0.0,0.0,0.0,0.0,0.0,0.0,0.0,0.0,0.0,0.0,0.0,0.0,0.0,0.0,0.0,0.0,0.0,0.0,0.0,0.0,0.0,0.0,0.0,0.0,0.0,0.0,0.0,0.0,0.0,0.0,0.0,0.0,0.0,0.0,0.0,0.0,0.0,0.0,0.0,0.0,0.0,0.0,0.0,0.0,0.0,0.0,0.0,0.0,0.0,0.0,0.0,0.0,0.0,0.0,0.0,0.0,0.0,0.0,0.0,0.0,0.0,0.0,0.0,0.0,0.0,0.0,0.0,0.0,0.0,0.0,0.0,0.0,0.0,0.0,0.0,0.0,0.0,0.0,2.6001,2.6681,2.6946,2.6608,2.4958,2.3162,0.0,0.0,0.0,0.0,0.0,0.0,0.0,0.0,0.0,0.0,0.0,0.0,0.0,0.0,0.0,0.0,0.0,0.0,0.0,0.0,0.0,0.0,0.0,0.0,0.0,0.0,0.0,0.0,0.0,0.0,0.0,0.0,0.0,0.0,0.0,0.0,0.0,0.0,0.0,0.0,0.0,0.0,0.0,0.0,0.0,0.0,0.0,0.0,0.0,0.0,0.0,0.0,0.0,0.0,0.0,0.0,0.0,0.0,0.0,0.0,0.0,0.0,0.0,0.0,0.0,0.0,0.0,0.0,0.0,0.0,0.0,0.0,0.0,0.0,0.0,0.0,0.0,0.0,0.0,0.0,0.0,0.0,0.0,0.0,0.0,0.0,0.0,0.0,0.0,0.0,0.0,0.0,0.0,0.0,0.0,0.0,0.0,0.0,0.0,0.0,0.0,0.0,0.0,0.0,0.0,0.0,0.0,0.0,0.0,2.9968,2.9493,2.908,2.8842,2.7115,2.5159,2.3031,0.0,0.0,0.0,0.0,0.0,0.0,0.0,0.0,0.0,0.0,0.0,0.0,0.0,0.0,0.0,0.0,0.0,0.0,0.0,0.0,0.0,0.0,0.0,0.0,0.0,0.0,0.0,0.0,0.0,0.0,0.0,0.0,0.0,0.0,0.0,0.0,0.0,0.0,0.0,0.0,0.0,0.0,0.0,0.0,0.0,0.0,0.0,0.0,0.0,0.0,0.0,0.0,0.0,0.0,0.0,0.0,0.0,0.0,0.0,0.0,0.0,0.0,0.0,0.0,0.0,0.0,0.0,0.0,0.0,0.0,0.0,0.0,0.0,0.0,0.0,0.0,0.0,0.0,0.0,0.0,0.0,0.0,0.0,0.0,0.0,0.0,0.0,0.0,0.0,0.0,0.0,0.0,0.0,0.0,0.0,0.0,0.0,0.0,0.0,0.0,0.0,0.0,0.0,0.0,0.0,0.0,0.0,0.0,3.4592,3.2535,3.132,3.099,2.9315,2.7368,0.0,0.0,0.0,0.0,0.0,0.0,0.0,0.0,0.0,0.0,0.0,0.0,0.0,0.0,0.0,0.0,0.0,0.0,0.0,0.0,0.0,0.0,0.0,0.0,0.0,0.0,0.0,0.0,0.0,0.0,0.0,0.0,0.0,0.0,0.0,0.0,0.0,0.0,0.0,0.0,0.0,0.0,0.0,0.0,0.0,0.0,0.0,0.0,0.0,0.0,0.0,0.0,0.0,0.0,0.0,0.0,0.0,0.0,0.0,0.0,0.0,0.0,0.0,0.0,0.0,0.0,0.0,0.0,0.0,0.0,0.0,0.0,0.0,0.0,0.0,0.0,0.0,0.0,0.0,0.0,0.0,0.0,0.0,0.0,0.0,0.0,0.0,0.0,0.0,0.0,0.0,0.0,0.0,0.0,0.0,0.0,0.0,0.0,0.0,0.0,0.0,0.0,0.0,0.0,0.0,0.0,0.0,0.0,0.0,3.6178,3.5801,3.5108,3.4244,3.2104,2.9806,0.0,0.0,0.0,0.0,0.0,0.0,0.0,0.0,0.0,0.0,0.0,0.0,0.0,0.0,0.0,0.0,0.0,0.0,0.0,0.0,0.0,0.0,0.0,0.0,0.0,0.0,0.0,0.0,0.0,0.0,0.0,0.0,0.0,0.0,0.0,0.0,0.0,0.0,0.0,0.0,0.0,0.0,0.0,0.0,0.0,0.0,0.0,0.0,0.0,0.0,0.0,0.0,0.0,0.0,0.0,0.0,0.0,0.0,0.0,0.0,0.0,0.0,0.0,0.0,0.0,0.0,0.0,0.0,0.0,0.0,0.0,0.0,0.0,0.0,0.0,0.0,0.0,0.0,0.0,0.0,0.0,0.0,0.0,0.0,0.0,0.0,0.0,0.0,0.0,0.0,0.0,0.0,0.0,0.0,0.0,0.0,0.0,0.0,0.0,0.0,0.0,0.0,0.0,0.0,0.0,0.0,0.0,0.0,3.5372,3.769,3.7884,3.7489,3.6548,3.4179,3.1612,0.0,0.0,0.0,0.0,0.0,0.0,0.0,0.0,0.0,0.0,0.0,0.0,0.0,0.0,0.0,0.0,0.0,0.0,0.0,0.0,0.0,0.0,0.0,0.0,0.0,0.0,0.0,0.0,0.0,0.0,0.0,0.0,0.0,0.0,0.0,0.0,0.0,0.0,0.0,0.0,0.0,0.0,0.0,0.0,0.0,0.0,0.0,0.0,0.0,0.0,0.0,0.0,0.0,0.0,0.0,0.0,0.0,0.0,0.0,0.0,0.0,0.0,0.0,0.0,0.0,0.0,0.0,0.0,0.0,0.0,0.0,0.0,0.0,0.0,0.0,0.0,0.0,0.0,0.0,0.0,0.0,0.0,0.0,0.0,0.0,0.0,0.0,0.0,0.0,0.0,0.0,0.0,0.0,0.0,0.0,0.0,0.0,0.0,0.0,0.0,0.0,0.0,0.0,0.0,0.0,0.0,0.0,0.0,3.7218,3.8907,3.9109,3.8769,3.7905,3.5717,3.2982,0.0,0.0,0.0,0.0,0.0,0.0,0.0,0.0,0.0,0.0,0.0,0.0,0.0,0.0,0.0,0.0,0.0,0.0,0.0,0.0,0.0,0.0,0.0,0.0,0.0,0.0,0.0,0.0,0.0,0.0,0.0,0.0,0.0,0.0,0.0,0.0,0.0,0.0,0.0,0.0,0.0,0.0,0.0,0.0,0.0,0.0,0.0,0.0,0.0,0.0,0.0,0.0,0.0,0.0,0.0,0.0,0.0,0.0,0.0,0.0,0.0,0.0,0.0,0.0,0.0,0.0,0.0,0.0,0.0,0.0,0.0,0.0,0.0,0.0,0.0,0.0,0.0,0.0,0.0,0.0,0.0,0.0,0.0,0.0,0.0,0.0,0.0,0.0,0.0,0.0,0.0,0.0,0.0,0.0,0.0,0.0,0.0,0.0,0.0,0.0,0.0,0.0,0.0,0.0,0.0,0.0,0.0,0.0,3.8304,3.986,3.9806,3.9212,3.8164,3.6262,3.3927,0.0,0.0,0.0,0.0,0.0,0.0,0.0,0.0,0.0,0.0,0.0,0.0,0.0,0.0,0.0,0.0,0.0,0.0,0.0,0.0,0.0,0.0,0.0,0.0,0.0,0.0,0.0,0.0,0.0,0.0,0.0,0.0,0.0,0.0,0.0,0.0,0.0,0.0,0.0,0.0,0.0,0.0,0.0,0.0,0.0,0.0,0.0,0.0,2.2276,0.0,0.0,0.0,0.0,0.0,0.0,0.0,0.0,0.0,0.0,0.0,0.0,0.0,0.0,0.0,0.0,0.0,0.0,0.0,0.0,0.0,0.0,0.0,0.0,0.0,0.0,0.0,0.0,0.0,0.0,0.0,0.0,0.0,0.0,0.0,0.0,0.0,0.0,0.0,0.0,0.0,0.0,0.0,0.0,0.0,0.0,0.0,0.0,0.0,0.0,0.0,0.0,0.0,0.0,0.0,0.0,0.0,0.0,0.0,3.9208,4.044,4.0258,3.9597,3.8465,3.6883,3.4758,0.0,0.0,0.0,0.0,0.0,0.0,0.0,0.0,0.0,0.0,0.0,0.0,0.0,0.0,0.0,0.0,0.0,0.0,0.0,0.0,0.0,0.0,0.0,0.0,0.0,0.0,0.0,0.0,0.0,0.0,0.0,0.0,0.0,0.0,0.0,0.0,0.0,0.0,0.0,0.0,0.0,0.0,0.0,0.0,0.0,0.0,0.0,0.0,0.0,0.0,0.0,0.0,0.0,0.0,0.0,0.0,0.0,0.0,0.0,0.0,0.0,0.0,0.0,0.0,0.0,0.0,0.0,0.0,0.0,0.0,0.0,0.0,0.0,0.0,0.0,0.0,0.0,0.0,0.0,0.0,0.0,0.0,0.0,0.0,0.0,0.0,0.0,0.0,0.0,0.0,0.0,0.0,0.0,0.0,0.0,0.0,0.0,0.0,0.0,0.0,0.0,0.0,0.0,0.0,0.0,0.0,0.0,3.8471,4.0023,4.0723,4.0547,3.9919,3.8814,3.7342,3.5283,3.2585,0.0,0.0,0.0,0.0,0.0,0.0,0.0,0.0,0.0,0.0,0.0,0.0,0.0,0.0,0.0,0.0,0.0,0.0,0.0,0.0,0.0,0.0,0.0,0.0,0.0,0.0,0.0,0.0,0.0,0.0,0.0,0.0,0.0,0.0,0.0,0.0,0.0,0.0,2.1888,2.3993,0.0,0.0,0.0,0.0,0.0,0.0,0.0,0.0,2.6869,0.0,0.0,0.0,0.0,0.0,0.0,0.0,0.0,0.0,0.0,0.0,0.0,0.0,0.0,0.0,0.0,0.0,0.0,0.0,0.0,0.0,0.0,0.0,0.0,0.0,0.0,0.0,0.0,0.0,0.0,0.0,0.0,0.0,0.0,0.0,0.0,0.0,0.0,0.0,0.0,0.0,0.0,0.0,0.0,0.0,0.0,0.0,0.0,0.0,0.0,0.0,0.0,0.0,0.0,0.0,0.0,3.558,3.9033,4.0748,4.0631,4.065,4.0221,3.9249,3.7186,3.5083,3.3012,0.0,0.0,0.0,0.0,0.0,0.0,0.0,0.0,0.0,0.0,0.0,0.0,0.0,0.0,0.0,0.0,0.0,0.0,0.0,0.0,0.0,0.0,0.0,0.0,0.0,0.0,0.0,0.0,0.0,0.0,0.0,0.0,0.0,0.0,0.0,0.0,0.0,0.0,0.0,2.7394,2.8778,0.0,0.0,0.0,0.0,0.0,0.0,0.0,0.0,2.7647,0.0,0.0,0.0,0.0,0.0,0.0,0.0,0.0,0.0,0.0,0.0,0.0,0.0,0.0,0.0,0.0,0.0,0.0,0.0,0.0,0.0,0.0,0.0,0.0,0.0,0.0,0.0,0.0,0.0,0.0,0.0,0.0,0.0,0.0,0.0,0.0,0.0,0.0,0.0,0.0,0.0,0.0,0.0,0.0,0.0,0.0,0.0,0.0,0.0,0.0,0.0,0.0,0.0,0.0,0.0,3.6529,3.9145,4.0564,4.0701,4.0897,4.0463,3.9326,3.7597,3.5697,0.0,0.0,0.0,0.0,0.0,0.0,0.0,0.0,0.0,0.0,0.0,0.0,0.0,0.0,0.0,0.0,0.0,0.0,0.0,0.0,0.0,0.0,0.0,0.0,0.0,0.0,0.0,0.0,0.0,0.0,0.0,0.0,0.0,0.0,0.0,0.0,0.0,0.0,0.0,0.0,2.932,3.0524,3.1075,0.0,0.0,0.0,0.0,0.0,0.0,3.0942,2.9817,0.0,0.0,0.0,0.0,0.0,0.0,0.0,0.0,0.0,0.0,0.0,0.0,0.0,0.0,0.0,0.0,0.0,0.0,0.0,0.0,0.0,0.0,0.0,0.0,0.0,0.0,0.0,0.0,0.0,0.0,0.0,0.0,0.0,0.0,0.0,0.0,0.0,0.0,0.0,0.0,0.0,0.0,0.0,0.0,0.0,0.0,0.0,0.0,0.0,0.0,0.0,0.0,0.0,0.0,0.0,3.7488,3.9332,4.0468,4.0961,4.1161,4.0708,3.9458,3.8016,3.617,0.0,0.0,0.0,0.0,0.0,0.0,0.0,0.0,0.0,0.0,0.0,0.0,0.0,0.0,0.0,0.0,0.0,0.0,0.0,0.0,0.0,0.0,0.0,0.0,0.0,0.0,0.0,0.0,0.0,0.0,0.0,0.0,0.0,0.0,0.0,0.0,0.0,0.0,0.0,0.0,0.0,3.199,3.3088,3.3612,0.0,0.0,0.0,0.0,3.4211,3.3231,0.0,0.0,0.0,0.0,0.0,0.0,0.0,0.0,0.0,0.0,0.0,0.0,0.0,0.0,0.0,0.0,0.0,0.0,0.0,0.0,0.0,0.0,0.0,0.0,0.0,0.0,0.0,0.0,0.0,0.0,0.0,0.0,0.0,0.0,0.0,0.0,0.0,0.0,0.0,0.0,0.0,0.0,0.0,0.0,0.0,0.0,0.0,0.0,0.0,0.0,0.0,0.0,0.0,0.0,0.0,0.0,3.74,3.9988,4.1442,4.1656,4.1424,4.095,4.0173,3.7865,3.5642,0.0,0.0,0.0,0.0,0.0,0.0,0.0,0.0,0.0,0.0,0.0,0.0,0.0,0.0,0.0,0.0,0.0,0.0,0.0,0.0,0.0,0.0,0.0,0.0,0.0,0.0,0.0,0.0,0.0,0.0,0.0,0.0,0.0,0.0,0.0,0.0,0.0,0.0,0.0,0.0,0.0,3.3945,3.4934,3.615,3.6808,0.0,0.0,3.6222,3.6239,3.5103,0.0,0.0,0.0,0.0,0.0,0.0,0.0,0.0,0.0,0.0,0.0,0.0,0.0,0.0,0.0,0.0,0.0,0.0,0.0,0.0,0.0,0.0,0.0,0.0,0.0,0.0,0.0,0.0,0.0,0.0,0.0,0.0,0.0,0.0,0.0,0.0,0.0,0.0,0.0,0.0,0.0,0.0,0.0,0.0,0.0,0.0,0.0,0.0,0.0,0.0,0.0,0.0,0.0,0.0,0.0,3.5232,3.792,3.9995,4.1211,4.1609,4.1676,4.1303,4.0441,3.8437,3.6465,0.0,0.0,0.0,0.0,0.0,0.0,0.0,0.0,0.0,0.0,0.0,0.0,0.0,0.0,0.0,0.0,0.0,0.0,0.0,0.0,0.0,0.0,0.0,0.0,0.0,0.0,0.0,0.0,0.0,0.0,0.0,0.0,0.0,0.0,0.0,0.0,0.0,0.0,0.0,0.0,0.0,0.0,3.7037,3.8172,0.0,0.0,0.0,3.8421,3.8316,0.0,0.0,0.0,0.0,0.0,0.0,0.0,0.0,0.0,0.0,0.0,0.0,0.0,0.0,0.0,0.0,0.0,0.0,0.0,0.0,0.0,0.0,0.0,0.0,0.0,0.0,0.0,0.0,0.0,0.0,0.0,0.0,0.0,0.0,0.0,0.0,0.0,0.0,0.0,0.0,0.0,0.0,0.0,0.0,0.0,0.0,0.0,0.0,0.0,0.0,0.0,0.0,0.0,0.0,0.0,0.0,0.0,3.8555,4.0182,4.1279,4.185,4.2016,4.1714,4.0893,3.925,0.0,0.0,0.0,0.0,0.0,0.0,0.0,0.0,0.0,0.0,0.0,0.0,0.0,0.0,0.0,0.0,0.0,0.0,0.0,0.0,0.0,0.0,0.0,0.0,0.0,0.0,0.0,1.8557,0.0,0.0,0.0,0.0,0.0,0.0,0.0,0.0,0.0,0.0,0.0,0.0,0.0,0.0,3.6504,3.8765,3.9815,4.0509,0.0,0.0,4.0386,4.0069,3.9229,3.7991,0.0,0.0,0.0,0.0,0.0,0.0,0.0,0.0,0.0,0.0,0.0,0.0,0.0,0.0,0.0,0.0,0.0,0.0,0.0,0.0,0.0,0.0,0.0,0.0,0.0,0.0,0.0,0.0,0.0,0.0,0.0,0.0,0.0,0.0,0.0,0.0,0.0,0.0,0.0,0.0,0.0,0.0,0.0,0.0,0.0,0.0,0.0,0.0,0.0,0.0,0.0,0.0,0.0,0.0,3.5939,3.9082,4.0973,4.2203,4.2756,4.2516,4.2246,4.19,4.0265,3.8591,0.0,0.0,0.0,0.0,0.0,0.0,0.0,0.0,0.0,0.0,0.0,0.0,0.0,0.0,0.0,0.0,0.0,0.0,0.0,0.0,0.0,0.0,0.0,0.0,0.0,0.0,0.0,0.0,0.0,0.0,0.0,0.0,0.0,0.0,0.0,0.0,0.0,0.0,0.0,0.0,0.0,3.7342,3.9844,4.094,4.1582,0.0,4.2084,4.1982,4.121,4.0591,3.96,3.7965,0.0,0.0,0.0,0.0,0.0,0.0,0.0,0.0,0.0,0.0,0.0,0.0,0.0,0.0,0.0,0.0,0.0,0.0,0.0,0.0,0.0,0.0,0.0,0.0,0.0,0.0,0.0,0.0,0.0,0.0,0.0,0.0,0.0,0.0,0.0,0.0,0.0,0.0,0.0,0.0,0.0,0.0,0.0,0.0,0.0,0.0,0.0,0.0,0.0,0.0,0.0,0.0,0.0,3.67,3.9544,4.1178,4.2193,4.256,4.2432,4.2266,4.2012,4.0639,3.9466,0.0,0.0,0.0,0.0,0.0,0.0,0.0,0.0,0.0,0.0,0.0,0.0,0.0,0.0,0.0,0.0,0.0,0.0,0.0,0.0,0.0,0.0,0.0,0.0,0.0,0.0,0.0,0.0,2.7249,2.7956,2.7841,0.0,0.0,0.0,0.0,0.0,0.0,0.0,0.0,0.0,0.0,3.9399,4.1797,4.26,0.0,0.0,4.3939,4.3599,4.312,4.2538,4.1527,3.9691,3.768,0.0,0.0,0.0,0.0,0.0,0.0,0.0,0.0,0.0,0.0,0.0,0.0,0.0,0.0,0.0,0.0,0.0,0.0,0.0,0.0,0.0,0.0,0.0,0.0,0.0,0.0,0.0,0.0,0.0,0.0,0.0,0.0,0.0,0.0,0.0,0.0,0.0,0.0,0.0,0.0,0.0,0.0,0.0,0.0,0.0,0.0,0.0,0.0,0.0,0.0,0.0,0.0,3.7183,3.986,4.1323,4.2248,4.2617,4.2638,4.2586,4.2437,4.1556,4.0761,0.0,0.0,0.0,0.0,0.0,0.0,0.0,0.0,0.0,0.0,0.0,0.0,0.0,0.0,0.0,0.0,0.0,0.0,0.0,0.0,0.0,0.0,0.0,0.0,0.0,0.0,0.0,0.0,2.9435,2.958,2.8454,0.0,0.0,0.0,0.0,0.0,0.0,0.0,0.0,0.0,0.0,4.0994,4.3146,4.3753,4.4307,4.5366,4.5189,4.4763,4.427,4.3752,4.2788,4.0918,0.0,0.0,0.0,0.0,0.0,0.0,0.0,0.0,0.0,0.0,0.0,0.0,0.0,0.0,0.0,0.0,0.0,0.0,0.0,0.0,0.0,0.0,0.0,0.0,0.0,0.0,0.0,2.3849,0.0,0.0,2.1271,0.0,0.0,0.0,0.0,0.0,0.0,0.0,0.0,0.0,0.0,0.0,0.0,0.0,0.0,0.0,0.0,0.0,0.0,0.0,0.0,0.0,0.0,3.7392,3.9948,4.1474,4.252,4.3154,4.3163,4.3269,4.3421,4.3119,4.2559,4.1718,0.0,0.0,0.0,0.0,0.0,0.0,0.0,0.0,0.0,0.0,0.0,0.0,0.0,0.0,0.0,0.0,0.0,0.0,0.0,0.0,0.0,0.0,0.0,0.0,0.0,0.0,3.1687,3.2462,3.2025,0.0,0.0,0.0,0.0,0.0,0.0,0.0,0.0,0.0,3.8501,4.0133,4.1779,4.3627,4.4136,4.4623,4.5462,4.5633,4.5326,4.4301,4.3957,4.3232,0.0,0.0,0.0,0.0,0.0,0.0,0.0,0.0,0.0,0.0,0.0,0.0,0.0,0.0,0.0,0.0,0.0,0.0,0.0,0.0,0.0,0.0,0.0,0.0,0.0,0.0,0.0,2.9188,2.8334,0.0,0.0,0.0,0.0,0.0,0.0,0.0,0.0,0.0,0.0,0.0,3.7078,3.6786,0.0,0.0,0.0,0.0,0.0,0.0,0.0,0.0,0.0,0.0,0.0,0.0,3.8231,4.0225,4.1918,4.2953,4.3246,4.3515,4.3753,4.3935,4.3431,4.2665,4.1601,0.0,0.0,0.0,0.0,0.0,0.0,0.0,0.0,0.0,0.0,0.0,0.0,0.0,0.0,0.0,0.0,0.0,0.0,0.0,0.0,0.0,0.0,0.0,0.0,0.0,3.1628,0.0,0.0,0.0,0.0,0.0,0.0,0.0,0.0,0.0,0.0,3.5305,3.7898,4.0481,4.1472,4.2593,4.4317,4.4474,4.4607,0.0,0.0,0.0,0.0,0.0,0.0,0.0,0.0,0.0,0.0,0.0,0.0,0.0,0.0,3.7171,3.4348,3.3842,3.3829,3.3734,0.0,0.0,0.0,0.0,0.0,0.0,0.0,0.0,0.0,0.0,0.0,0.0,0.0,0.0,3.3028,3.2597,3.205,0.0,0.0,0.0,0.0,0.0,0.0,0.0,0.0,3.9093,3.9683,3.9929,3.9545,3.8992,0.0,3.7926,3.6686,0.0,0.0,0.0,0.0,0.0,0.0,0.0,0.0,3.8794,4.0666,4.2055,4.2989,4.3508,4.3802,4.4132,4.4462,4.4117,4.3433,4.2384,4.1252,3.9473,0.0,0.0,0.0,0.0,0.0,0.0,0.0,0.0,0.0,0.0,0.0,0.0,0.0,0.0,0.0,0.0,0.0,0.0,0.0,0.0,0.0,0.0,0.0,3.4204,0.0,0.0,0.0,0.0,0.0,0.0,0.0,0.0,0.0,3.5642,3.7486,3.9662,4.1866,4.2466,4.3207,4.4407,0.0,0.0,0.0,0.0,0.0,0.0,0.0,4.4951,4.4469,4.4188,4.3934,4.3626,4.336,4.3232,4.3414,0.0,0.0,3.8661,3.8021,3.7957,3.7759,3.8193,3.8675,3.907,3.9483,4.0037,0.0,0.0,0.0,0.0,3.4231,0.0,0.0,0.0,3.6322,3.672,0.0,3.6305,0.0,0.0,0.0,0.0,3.6328,3.7438,0.0,0.0,4.1199,4.2104,4.2617,4.2084,4.1879,4.1967,4.1329,4.0686,3.9951,3.6057,0.0,0.0,0.0,0.0,0.0,0.0,3.9142,4.1204,4.1813,4.2671,4.3931,4.3989,4.435,4.4977,4.5192,4.4857,4.4008,4.3227,4.1863,3.9776,3.7199,0.0,0.0,0.0,0.0,0.0,0.0,0.0,0.0,0.0,0.0,0.0,0.0,0.0,0.0,0.0,0.0,0.0,0.0,0.0,0.0,3.5798,0.0,0.0,0.0,0.0,0.0,0.0,0.0,0.0,0.0,3.8466,3.8366,3.957,4.1028,4.259,0.0,0.0,0.0,0.0,4.4211,4.4743,4.4933,4.5017,4.4855,4.5207,4.5341,4.4863,0.0,0.0,4.5856,4.5897,4.5954,4.6236,4.6093,4.5033,4.224,4.2053,4.2237,4.1956,4.2294,4.2814,4.2865,4.3032,4.3494,4.1669,0.0,0.0,0.0,0.0,3.9637,4.0106,4.0155,4.1073,4.1484,4.1406,4.0412,0.0,0.0,0.0,0.0,0.0,0.0,4.1524,4.2233,4.3048,4.3352,4.3254,4.2894,4.2693,4.2638,4.2465,4.1943,4.1105,4.0095,3.8798,3.7333,0.0,0.0,0.0,0.0,4.0155,4.1009,4.2354,4.3268,4.3632,4.4227,4.483,4.5492,4.5393,4.5342,4.5461,4.4257,4.307,4.1886,3.9702,0.0,0.0,0.0,0.0,0.0,0.0,0.0,0.0,0.0,0.0,0.0,0.0,0.0,0.0,0.0,0.0,0.0,0.0,0.0,3.8332,3.8776,3.8841,0.0,0.0,0.0,0.0,0.0,0.0,0.0,0.0,0.0,4.1158,4.1405,4.1869,0.0,0.0,4.332,4.4152,4.4308,4.4429,4.4932,4.5169,0.0,4.5632,4.5698,4.5832,4.6127,4.6763,4.7386,4.7996,4.8096,4.819,4.8415,4.8415,4.7906,4.6695,4.5164,4.4214,4.4082,4.4348,4.4446,4.4263,4.4738,4.5303,4.5276,4.303,4.2388,4.2042,4.2058,4.286,4.3212,4.3263,4.4019,4.4514,4.4707,4.3505,4.2969,4.2836,4.1178,0.0,0.0,0.0,4.3387,4.3768,4.4127,4.4141,4.3834,4.3602,4.3593,4.3747,4.3648,4.3323,4.2751,4.2675,4.202,4.0783,0.0,3.9788,4.0113,4.0726,4.1381,4.1975,4.3177,4.3949,4.4327,4.4891,4.5347,4.5733,4.5674,4.5858,4.6357,4.507,4.417,4.3819,4.1853,3.9799,0.0,0.0,0.0,0.0,0.0,0.0,0.0,0.0,0.0,0.0,0.0,2.8907,3.0441,0.0,0.0,0.0,3.7422,3.9333,4.1167,4.0873,0.0,0.0,0.0,0.0,0.0,0.0,0.0,4.0089,4.0883,4.1636,4.2386,4.2562,4.2779,4.313,4.3112,4.3314,4.3902,0.0,4.4326,4.4611,4.5034,4.5364,4.5611,4.5815,4.6253,4.7085,4.7728,4.8324,4.8891,4.9016,4.9057,4.919,4.9132,4.8867,4.8467,4.698,4.5857,4.5859,4.597,4.5944,4.5546,4.5965,4.6398,4.7622,4.7032,4.5756,4.4992,4.4712,4.5071,4.5224,4.5275,4.5804,4.6334,4.6747,4.581,4.5584,4.5854,4.4236,0.0,4.4659,4.45,4.4477,4.4667,4.4651,4.4553,4.4377,4.4175,4.4387,4.4928,4.4755,4.4718,4.4637,4.4141,4.3872,4.3844,4.2105,4.149,4.2025,4.2195,4.2747,4.3635,4.4112,4.4761,4.5586,4.5755,4.5812,4.5889,4.5994,4.63,4.6802,4.5715,4.5185,4.5326,4.3708,4.21,4.0581,0.0,0.0,0.0,0.0,0.0,0.0,0.0,0.0,0.0,0.0,0.0,0.0,0.0,0.0,4.0013,4.1338,0.0,4.2482,4.2311,0.0,0.0,0.0,4.1028,4.0489,4.102,4.1448,4.1448,0.0,0.0,4.2554,4.3227,4.3627,4.3249,4.3329,4.3407,4.3449,4.3778,4.3996,4.4118,4.4663,4.5154,4.5423,4.5998,4.6841,4.7854,4.832,4.867,4.9017,4.9086,4.9073,4.9121,4.8737,4.846,4.8401,4.7773,4.733,4.7228,4.7279,4.7151,4.6691,4.6857,4.6992,4.7969,4.7469,4.7309,4.7188,4.7201,4.779,4.8041,4.8097,4.8652,4.8572,4.8028,4.7731,4.6891,4.5669,4.5175,4.4709,4.4263,4.4976,4.4918,4.4273,4.477,4.4707,4.4262,4.419,4.4327,4.4582,4.4573,4.4587,4.4634,4.4452,4.4479,4.4617,4.4177,4.3663,4.3178,4.3544,4.3877,4.4132,4.4588,4.5073,4.5586,4.5272,4.556,4.647,4.5845,4.5922,4.6773,4.6308,4.5826,4.552,4.5165,4.4204,4.2469,4.1028,0.0,0.0,0.0,0.0,0.0,0.0,0.0,0.0,0.0,3.538,3.7968,0.0,4.1597,0.0,4.3576,4.4071,4.4405,4.3985,0.0,0.0,4.3125,4.2824,4.2397,4.252,4.295,4.3651,4.36,4.3611,4.3927,4.3728,4.3648,4.388,4.361,4.3534,4.3875,4.4012,4.4214,4.4592,4.5063,4.5621,4.6199,4.7276,4.8141,4.8802,4.8987,4.9172,4.954,4.9637,4.9637,4.96,4.9306,4.895,4.8549,4.8111,4.7649,4.7455,4.7404,4.7222,4.655,4.7051,4.7406,4.8103,4.8046,4.8502,4.8686,4.873,4.8838,4.89,4.896,4.9432,4.9338,4.8787,4.8088,4.7026,4.5785,4.5471,4.5181,4.495,4.5333,4.5045,4.4277,4.4435,4.4202,4.3515,4.3608,4.3769,4.4092,4.4453,4.4795,4.498,4.5039,4.5087,4.523,4.5245,4.5,4.4503,4.4787,4.4919,4.4919,4.5374,4.5618,4.5647,4.5553,4.5722,4.6117,4.5614,4.5632,4.6297,4.6012,4.5855,4.5998,4.6234,4.5809,4.4535,4.3467,4.1946,0.0,0.0,0.0,0.0,0.0,0.0,0.0,0.0,0.0,0.0,0.0,4.411,4.5422,4.58,4.599,4.6155,4.5492,4.4944,4.4665,4.4432,4.4129,4.3829,4.3977,4.418,4.4391,4.4511,4.4496,4.4381,4.4388,4.4461,4.4579,4.4276,4.4218,4.4487,4.4664,4.4863,4.5095,4.5502,4.5942,4.644,4.7231,4.7903,4.8094,4.8284,4.8475,4.8702,4.874,4.8664,4.8475,4.8072,4.769,4.7307,4.6862,4.6498,4.6356,4.6316,4.6316,4.6249,4.6485,4.655,4.804,4.8456,4.904,4.9334,4.9325,4.8946,4.8872,4.9059,4.9338,4.9369,4.9157,4.7489,4.6504,4.5996,4.5305,4.5224,4.5606,4.5242,4.4754,4.4206,4.3833,4.331,4.267,4.2748,4.3046,4.3454,4.4251,4.4919,4.5357,4.5456,4.5537,4.5621,4.5782,4.585,4.585,4.5952,4.5912,4.5871,4.6203,4.6183,4.5788,4.6127,4.6022,4.5541,4.5335,4.5394,4.5698,4.5435,4.574,4.6669,4.7075,4.7071,4.6554,4.5837,4.4573,0.0,4.1364,0.0,0.0,0.0,0.0,0.0,0.0,0.0,0.0,4.465,4.6269,4.7527,4.7632,4.7564,4.7378,4.6609,4.5877,4.5353,4.5222,4.5071,4.4803,4.5131,4.5223,4.4515,4.5274,4.5487,4.4601,4.5086,4.5373,4.5101,4.508,4.508,4.5165,4.5315,4.5445,4.5529,4.5923,4.622,4.6344,4.6638,4.691,4.6928,4.7126,4.7255,4.7298,4.7298,4.716,4.6712,4.6305,4.5875,4.5441,4.5068,4.4812,4.4813,4.4741,4.4922,4.5577,4.5574,4.5244,4.7411,4.7779,4.7796,4.7981,4.8245,4.8482,4.92,5.0273,5.0339,4.9851,4.8834,4.6927,4.6103,4.608,4.5032,4.4431,4.425,4.3598,4.3206,4.3098,4.2758,4.2521,4.2368,4.2388,4.2625,4.3081,4.3279,4.3798,4.4622,4.4942,4.5286,4.5696,4.6391,4.6741,4.6762,0.0,0.0,0.0,4.6824,4.6658,4.6203,4.6263,4.6068,4.558,4.5174,0.0,4.5741,4.5943,4.6381,4.7221,4.7964,0.0,0.0,0.0,0.0,0.0,0.0,0.0,0.0,0.0,0.0,0.0,4.3414,4.4256,4.5071,4.6981,4.806,4.7859,4.7758,4.74,4.6738,4.6271,4.5904,4.5662,4.5718,4.5485,4.4899,4.5398,4.5646,4.5187,4.543,4.5567,4.5335,4.525,4.5265,4.5517,4.5561,4.5705,4.5976,4.5536,4.5161,4.5179,4.5807,4.64,4.6779,4.6877,4.6814,4.6938,4.6659,4.6518,4.6518,4.6539,4.6358,4.5876,4.5473,4.5068,4.4622,4.4235,4.3908,4.3908,4.3582,4.3557,4.4422,4.4583,4.4378,4.727,4.7803,4.7936,4.8223,0.0,4.8766,4.9211,4.9807,4.9227,4.8198,4.6887,4.5711,4.5113,4.507,4.4282,4.3606,4.3096,4.2725,4.2188,4.1639,4.1456,4.1227,4.1014,4.1014,4.1371,4.2067,4.2472,4.3152,4.4033,4.4724,4.5352,4.6045,4.6455,4.6928,4.7361,4.7568,4.7568,4.7361,4.7113,4.6886,4.6658,4.6431,4.6096,4.567,4.5386,0.0,0.0,0.0,0.0,0.0,0.0,0.0,0.0,0.0,0.0,4.7276,4.624,4.5373,4.4783,4.473,4.45,4.3995,4.5183,4.5968,4.6039,4.7622,4.8266,4.7458,4.7584,4.7442,4.6667,4.6089,4.5771,4.5716,4.5645,4.552,4.5428,4.5551,4.5638,4.5494,4.5523,4.5589,4.5649,4.5699,4.5747,4.5975,4.6016,4.6058,4.6224,4.5934,4.5624,4.5624,4.579,4.6078,4.6306,4.6145,4.6166,4.6229,4.6168,4.6024,4.596,4.5959,4.5669,4.4798,4.438,4.4065,4.3392,4.3073,4.2989,4.2923,4.2564,4.2345,4.2869,4.309,4.3181,4.712,4.7811,4.8148,4.8452,4.8755,4.8755,4.8544,4.8182,4.7513,0.0,0.0,4.4472,4.405,4.3704,4.3206,4.2602,4.1942,4.18,4.1152,4.0169,4.0046,3.9878,3.9604,3.9563,4.0116,4.1068,4.1811,4.2601,4.3485,4.4349,4.5186,4.6002,4.6269,4.6824,4.7651,4.7672,4.7672,4.7672,4.7341,4.7072,4.6989,4.6617,4.6223,4.5745,4.5707,4.568,4.5631,4.6535,4.7311,4.799,4.9233,4.9848,4.9558,4.9277,4.9025,4.8751,4.7606,4.6729,4.6349,4.6396,4.607,4.5184,4.6094,4.6665,4.6466,4.7556,4.778,4.6775,4.7003,4.6932,4.6372,4.5586,4.5216,4.5381,4.5218,4.5226,4.5511,4.5535,4.5378,4.5383,4.5419,4.5548,4.5689,4.5917,4.6226,4.6286,4.6265,4.6266,4.6226,4.6103,4.6062,4.6062,4.5881,4.5719,4.5637,4.5472,4.5263,4.5562,4.5497,4.5386,4.5179,4.5127,4.4597,4.3391,4.3165,4.2759,4.2061,4.1807,4.1775,4.1731,4.1411,4.1097,4.1115,4.137,4.1702,4.6541,4.6966,4.7021,4.706,4.7038,4.7038,4.6244,4.5034,4.6215,4.6031,4.4776,4.4058,4.3277,4.2486,4.1668,4.1062,4.0628,3.9872,3.9398,3.9182,3.8806,3.8856,3.907,3.9088,3.9783,4.095,4.116,4.1658,4.2591,4.3463,4.4163,4.4797,4.5818,4.6824,4.7651,4.7672,4.7672,4.7672,4.7631,4.7403,4.701,4.6927,4.6493,4.5766,4.602,4.6323,4.6528,4.6877,4.7712,4.9024,4.9694,5.0297,5.0837,5.0272,4.9914,4.9818,4.8522,4.7426,4.6804,4.716,4.7215,4.6764,4.6091,4.5941,4.6689,4.7166,4.7098,4.6271,4.5462,4.4903,4.4832,4.4175,4.3888,4.4329,4.4379,4.4285,4.4052,4.4637,4.4923,4.4663,4.4886,4.5251,4.5576,4.5739,4.5901,4.6185,4.6145,4.6145,4.5881,4.58,4.58,4.58,4.5758,4.5713,4.5608,4.5659,4.5376,4.5134,4.4752,4.4322,4.3622,4.3469,4.3037,4.1985,4.1865,4.1455,4.0605,4.0377,4.0315,4.0086,3.9833,3.9648,3.9709,3.9734,3.9948,4.6045,4.6183,4.6202,4.6321,4.644,4.6003,4.4784,4.331,4.4059,4.394,4.3081,4.2463,4.1835,4.115,4.0308,3.9692,3.9223,3.8593,3.8149,3.7921,3.7708,3.7767,3.792,3.8135,3.8691,3.9561,4.007,4.0747,4.163,4.255,4.3621,4.4768,4.6328,4.7299,4.7672,4.7672,4.7672,4.7672,4.7465,4.7196,4.6989,4.6741,4.6431,4.6057,4.6407,4.6652,4.6778,4.7462,4.8218,4.8956,4.9579,5.0162,5.0544,5.0116,4.9834,4.981,4.9002,4.8181,4.7451,4.6846,4.638,4.5994,4.5591,4.5214,4.4964,4.5716,4.5722,4.4746,4.4167,4.3801,4.3381,4.2819,4.2586,4.2797,4.3017,4.3196,4.3351,4.3833,4.4317,4.4398,4.4578,4.4821,4.525,4.5332,4.5372,4.5576,4.5576,4.5495,4.5352,4.5308,4.5408,4.5593,4.5465,4.531,4.5319,4.5095,4.4756,4.4262,4.4017,4.3591,4.2909,4.2612,4.2038,4.1231,4.0812,4.0321,3.9694,3.9576,3.9441,3.9351,3.9181,3.9179,3.9121,3.9101,3.9386,4.5535,4.5556,4.5413,4.5413,4.5373,4.4576,4.3361,4.1988,4.1844,4.1466,4.0965,4.0786,4.0377,3.9796,3.9017,3.8432,3.7989,3.7619,3.7248,3.686,3.686,3.686,3.686,3.7162,3.7593,3.8195,3.8965,3.9858,4.0747,4.1756,4.3202,4.5051,4.6638,4.7382,4.7382,4.7382,4.7382,4.7361,4.7051,4.6886,4.6968,4.6555,4.6307,4.6326,4.6816,4.7026,4.7022,4.7986,4.8688,4.8963,4.9476,4.9883,5.0166,4.9717,4.939,4.9356,4.8823,4.8248,4.7561,4.6235,4.528,4.4989,4.4843,4.4245,4.3247,4.3684,4.3828,4.3131,4.2913,4.2566,4.194,4.149,4.1314,4.1403,4.1707,4.1966,4.2394,4.2905,4.3421,4.3835,4.4041,4.4288,4.4718,4.4882,4.4923,4.5005,4.4923,4.4841,4.4758,4.4725,4.4857,4.4931,4.4968,4.4889,4.4733,4.4501,4.4068,4.3477,4.3232,4.2812,4.2273,4.1796,4.1211,4.0424,3.9942,3.9544,3.9092,3.8971,3.8893,3.8785,3.8693,3.8726,3.8726,3.8696,3.8988,4.5046,4.5005,4.4657,4.3815,4.278,4.2239,4.1486,4.0602,4.0155,3.9441,3.8765,3.9455,3.9285,3.8486,3.7955,3.75,3.7162,3.7076,3.6773,3.64,3.6356,3.6356,3.6356,3.64,3.6876,3.7636,3.8195,3.8965,3.9901,4.121,4.2902,4.4901,4.5963,4.6451,4.6451,4.6451,4.6451,4.6431,4.6389,4.6576,4.6948,4.6534,4.6307,4.6307,4.709,4.7474,4.7418,4.8288,4.9061,4.9611,4.9623,4.9951,5.0496,4.9499,4.8791,4.8768,4.7702,4.6851,4.6506,4.5441,4.4791,4.474,4.3711,4.2744,4.1827,4.1206,4.1166,4.1424,4.11,4.0718,4.0533,4.0156,4.0029,4.0313,4.0451,4.0608,4.0753,4.1402,4.203,4.2527,4.3007,4.3524,4.4247,4.4452,4.4575,4.4759,4.4554,4.4205,4.3833,4.3829,4.3645,4.3562,4.4095,4.4453,4.3959,4.3996,4.3579,4.2889,4.2371,4.1761,4.1047,4.043,3.9822,3.9565,3.9217,3.8942,3.8637,3.8454,3.8316,3.8132,3.7993,3.7901,3.7855,3.7901,3.8254,4.4082,4.3813,4.309,4.2197,4.1234,4.0729,4.0028,3.9135,3.8666,3.8109,3.7593,3.7636,3.7593,3.7507,3.7032,3.6746,3.6573,3.6313,3.6096,3.5878,3.5894,3.5748,3.553,3.6052,3.6356,3.6513,3.7421,3.8349,3.9543,4.1695,4.3609,4.4964,4.5861,4.6307,4.6307,4.6307,4.6307,4.6307,4.6307,4.641,4.6534,4.641,4.6307,4.6347,4.6912,4.7201,4.7233,4.7931,4.8581,4.9065,4.9229,4.9623,5.0179,4.9209,4.8634,4.8538,4.721,4.6229,4.5877,4.4767,4.3706,4.2982,4.2477,4.1618,4.0221,3.9759,3.9527,3.9264,3.942,3.9372,3.8863,3.8576,3.8476,3.8443,3.8606,3.8862,3.916,4.0222,4.1108,4.1546,4.2485,4.3192,4.3587,4.3835,4.3917,4.3917,4.367,4.338,4.2694,4.289,4.2873,4.2357,4.2766,4.3151,4.3029,4.2897,4.2488,4.1697,4.1047,4.0413,3.9885,3.9308,3.8896,3.8683,3.8483,3.83,3.804,3.7993,3.7901,3.7717,3.7671,3.7671,3.7671,3.7671,3.7947,4.3007,4.255,4.1588,4.0644,3.9816,3.9429,3.8821,3.8106,3.7671,3.7308,3.6921,3.6459,3.6367,3.653,3.6269,3.6112,3.6068,3.5748,3.5617,3.5573,3.5486,3.5225,3.5006,3.5589,3.5748,3.5661,3.6816,3.8177,3.9671,4.2281,4.4123,4.5005,4.5861,4.6307,4.6307,4.6307,4.6307,4.6307,4.6307,4.6307,4.6307,4.6307,4.6307,4.6347,4.6751,4.6966,4.6968,4.7576,4.8148,4.8493,4.8666,4.8904,4.9261,4.8542,4.7996,4.7652,4.6304,4.5237,4.485,4.3719,4.2557,4.1436,4.1122,4.0357,3.913,3.8578,3.8092,3.7457,3.7879,3.793,3.7612,3.7421,3.7291,3.7032,3.7291,3.7636,3.8109,3.9178,4.007,4.0789,4.1756,4.2652,4.286,4.3151,4.3214,4.2799,4.2716,4.2383,4.1681,4.1855,4.1974,4.1121,4.1231,4.1581,4.1967,4.1679,4.1047,4.043,3.9793,3.9383,3.8942,3.8545,3.8224,3.8178,3.7855,3.7763,3.7809,3.7763,3.7717,3.7717,3.7671,3.7671,3.7671,3.7671,3.7671,4.1779,4.157,4.0325,3.9281,3.84,3.8327,3.7999,3.7578,3.7362,3.7107,3.6755,3.6315,3.5979,3.5704,3.5704,3.5661,3.5617,3.5589,3.5573,3.553,3.5137,3.4919,3.4919,3.4962,3.4962,3.5137,3.647,3.8392,4.0831,4.278,4.4123,4.5005,4.5861,4.6307,4.6307,4.6307,4.6307,4.6307,4.6307,4.6307,4.6307,4.6307,4.6307,4.6347,4.6711,4.6952,4.7031,4.7371,4.7829,4.8183,4.7852,4.7792,4.8077,4.7358,4.6545,4.5706,4.445,4.358,4.3131,4.2315,4.1399,4.0481,3.9649,3.8912,3.8297,3.7602,3.6989,3.64,3.6481,3.6654,3.6929,3.6903,3.6946,3.6903,3.6946,3.7162,3.7533,3.8109,3.9007,4.0113,4.0873,4.1546,4.2318,4.2444,4.2216,4.1863,4.1737,4.1402,4.0669,4.069,4.0429,3.9865,3.9777,4.0095,4.0521,4.0339,3.9839,3.9337,3.8988,3.85,3.8316,3.8086,3.7901,3.7763,3.7717,3.7717,3.7717,3.7671,3.7717,3.7671,3.7671,3.7671,3.7671,3.7671,3.7671,4.0349,3.9494,3.8968,3.8397,3.7822,3.7689,3.7527,3.7322,3.699,3.6683,3.6367,3.6186,3.5907,3.5617,3.5617,3.5617,3.5573,3.5312,3.5137,3.5093,3.4656,3.4305,3.4086,3.4612,3.4919,3.5137,3.66,3.8777,4.136,4.2988,4.4123,4.5005,4.5861,4.6307,4.6307,4.6307,4.6307,4.6307,4.6307,4.6307,4.6307,4.6307,4.6307,4.6307,4.6428,4.667,4.7014,4.7153,4.7413,4.7792,4.7403,4.7239,4.7257,4.6312,4.5408,4.4765,4.3568,4.2645,4.2118,4.1054,4.0018,3.9143,3.8477,3.7808,3.7119,3.6746,3.6356,3.5965,3.5835,3.5965,3.6052,3.6096,3.6096,3.6139,3.6139,3.6313,3.6789,3.7421,3.8195,3.9007,3.9901,4.0855,4.1294,4.1504,4.1336,4.0958,4.062,4.007,3.9333,3.9132,3.9004,3.8657,3.8538,3.8725,3.9125,3.9079,3.8804,3.8637,3.8316,3.8086,3.7855,3.7855,3.7717,3.7717,3.7717,3.7671,3.7671,3.7671,3.7671,3.7671,3.7671,3.7671,3.7671,3.7671,3.7671,3.9053,3.8088,3.7962,3.776,3.7441,3.7294,3.726,3.7231,3.7028,3.6686,3.632,3.6257,3.6018,3.5637,3.5443,3.5355,3.5355,3.505,3.4831,3.4612,3.4174,3.3866,3.3866,3.4393,3.4831,3.5443,3.7291,3.9501,4.1612,4.3195,4.4288,4.5005,4.5901,4.6307,4.6307,4.6307,4.6307,4.6307,4.6307,4.6307,4.6307,4.6307,4.6307,4.6266,4.6185,4.6226,4.657,4.657,4.659,4.673,4.6488,4.6286,4.6063,4.5005,4.4186,4.3691,4.2489,4.1486,4.0813,3.9841,3.8837,3.798,3.7464,3.6876,3.6356,3.6139,3.5922,3.5661,3.5617,3.5617,3.5617,3.5617,3.5617,3.5617,3.5617,3.5791,3.6269,3.6833,3.7507,3.8323,3.9246,4.0053,4.0451,4.0391,4.0137,3.9774,3.9306,3.8708,3.8074,3.7782,3.7799,3.7764,3.772,3.7882,3.8203,3.8316,3.827,3.8132,3.8086,3.7809,3.7671,3.7671,3.7671,3.7671,3.7671,3.7671,3.7671,3.7671,3.7671,3.7671,3.7671,3.7671,3.7671,3.7671,3.7671,3.7912,3.7491,3.7338,3.729,3.7233,3.715,3.7115,3.7192,3.7446,3.7083,3.6511,3.6498,3.6057,3.5554,3.5093,3.4875,3.4831,3.4744,3.4568,3.4174,3.3734,3.3734,3.4086,3.4261,3.4962,3.5965,3.8409,4.0349,4.1863,4.3485,4.4575,4.5086,4.5901,4.6307,4.6307,4.6307,4.6307,4.6307,4.6307,4.6307,4.6307,4.6307,4.6266,4.6226,4.5942,4.5698,4.5719,4.5719,4.5576,4.5209,4.5086,4.48,4.437,4.3504,4.2822,4.2239,4.1108,4.001,3.916,3.8537,3.7851,3.7162,3.6616,3.6313,3.6199,3.5878,3.5661,3.5633,3.5617,3.5617,3.5617,3.5617,3.5617,3.5617,3.5617,3.5791,3.6139,3.6329,3.6789,3.7937,3.8666,3.9118,3.9433,3.9263,3.8819,3.8452,3.798,3.7593,3.7135,3.6949,3.6973,3.7136,3.7218,3.7358,3.7508,3.7717,3.7717,3.7717,3.7763,3.7671,3.7671,3.7671,3.7671,3.7671,3.7671,3.7671,3.7671,3.7671,3.7671,3.7671,3.7671,3.7671,3.7671,3.7671,3.7671,3.678,3.6687,3.6768,3.683,3.6878,3.7017,3.7131,3.7053,3.7019,3.6686,3.6231,3.5901,3.5517,3.5084,3.4612,3.4218,3.3954,3.391,3.3866,3.369,3.3249,3.3293,3.3778,3.4393,3.5862,3.7834,3.9416,4.1024,4.2531,4.3835,4.4739,4.5454,4.6023,4.6266,4.6307,4.6307,4.6307,4.6307,4.6307,4.6307,4.6307,4.6307,4.6185,4.5901,4.5759,4.5454,4.4882,4.5046,4.5127,4.4964,4.4411,4.3628,4.2655,4.1946,4.1294,4.0518,3.9561,3.8708,3.8066,3.7378,3.6876,3.6486,3.6096,3.5835,3.5851,3.5704,3.5617,3.5617,3.5617,3.5617,3.5617,3.5617,3.5617,3.5617,3.5617,3.5661,3.5835,3.6112,3.6616,3.7205,3.755,3.7705,3.7808,3.7722,3.7636,3.7464,3.7032,3.666,3.6519,3.6252,3.6139,3.6386,3.6559,3.6924,3.7242,3.7496,3.7591,3.7639,3.7671,3.7591,3.7591,3.7591,3.7607,3.7639,3.7639,3.7671,3.7671,3.7671,3.7671,3.7671,3.7671,3.7671,3.7671,3.7671,3.7671,3.6218,3.6238,3.6323,3.6337,3.6353,3.6393,3.638,3.6365,3.6161,3.5879,3.554,3.5271,3.4937,3.4586,3.413,3.3778,3.347,3.3338,3.3338,3.3426,3.3205,3.3338,3.391,3.5137,3.6773,3.8819,4.0095,4.1444,4.3007,4.4082,4.5005,4.5657,4.6104,4.6307,4.6307,4.6307,4.6307,4.6307,4.6307,4.6226,4.6104,4.6064,4.5861,4.5495,4.5291,4.4862,4.4205,4.4266,4.4307,4.4143,4.3463,4.2406,4.1318,4.0602,3.9943,3.9178,3.8366,3.7636,3.7119,3.666,3.6183,3.6025,3.5764,3.5617,3.5617,3.5617,3.5617,3.5617,3.5617,3.5617,3.5617,3.5617,3.5617,3.5617,3.5617,3.5617,3.5661,3.5835,3.6226,3.6616,3.6773,3.6816,3.6946,3.6816,3.673,3.6703,3.6356,3.6052,3.5981,3.5807,3.5884,3.6002,3.6273,3.6654,3.7022,3.7305,3.7496,3.7591,3.7671,3.7528,3.7448,3.7401,3.7401,3.7464,3.748,3.7639,3.7671,3.7671,3.7671,3.7671,3.7671,3.7671,3.7671,3.7671,3.7671,3.6022,3.5997,3.5895,3.578,3.578,3.5391,3.5255,3.521,3.5149,3.501,3.4751,3.4645,3.4464,3.4087,3.3646,3.3426,3.3382,3.3029,3.3132,3.3426,3.3514,3.3822,3.4641,3.621,3.7765,3.9118,4.0433,4.1737,4.3131,4.4329,4.525,4.5739,4.6145,4.6307,4.6307,4.6307,4.6307,4.6307,4.6266,4.6064,4.5739,4.5678,4.5454,4.5005,4.4575,4.4164,4.3628,4.3131,4.2943,4.286,4.2091,4.115,4.0307,3.9416,3.8751,3.8152,3.7421,3.6816,3.64,3.6226,3.6052,3.5704,3.5677,3.5617,3.5617,3.5617,3.5617,3.5617,3.5617,3.5617,3.5617,3.5617,3.5617,3.5617,3.5617,3.5617,3.5617,3.5617,3.5878,3.6155,3.6286,3.64,3.673,3.6486,3.6313,3.6199,3.5938,3.5748,3.5661,3.5708,3.5792,3.5907,3.6082,3.6352,3.6688,3.6956,3.7131,3.721,3.7337,3.7289,3.721,3.7178,3.7115,3.7178,3.7337,3.7512,3.7623,3.7591,3.7639,3.7671,3.7671,3.7671,3.7671,3.7671,3.7671,3.5015,3.4738,3.4929,3.5038,3.4978,3.4889,3.4815,3.4769,3.454,3.4389,3.4282,3.3958,3.3795,3.3646,3.3205,3.2984,3.2984,3.2852,3.3029,3.3514,3.3866,3.47,3.5819,3.7248,3.8494,3.9561,4.0813,4.2197,4.3504,4.4513,4.5372,4.6104,4.6226,4.6307,4.6307,4.6307,4.6307,4.6266,4.5982,4.582,4.5617,4.5352,4.5005,4.4575,4.4123,4.3504,4.2716,4.1672,4.1294,4.1462,4.0705,3.9816,3.8965,3.8306,3.7679,3.7006,3.666,3.6269,3.5922,3.5791,3.5704,3.5617,3.5617,3.5617,3.5617,3.5617,3.5617,3.5617,3.5617,3.5617,3.5617,3.5617,3.5617,3.5617,3.5617,3.5617,3.5617,3.5617,3.5661,3.5764,3.5791,3.5922,3.5965,3.5965,3.5835,3.5791,3.5704,3.5617,3.5617,3.5633,3.5713,3.5748,3.5907,3.6114,3.6352,3.659,3.6733,3.6781,3.686,3.694,3.6908,3.6892,3.6813,3.6765,3.7035,3.7242,3.7369,3.7432,3.7528,3.7623,3.7671,3.7671,3.7671,3.7671,3.7671,3.4437,3.4189,3.421,3.4122,3.3987,3.3916,3.3812,3.3692,3.3647,3.3602,3.3558,3.3338,3.3205,3.3161,3.2911,3.2808,3.2808,3.2808,3.3161,3.3954,3.4919,3.5819,3.673,3.7808,3.8794,3.9774,4.1066,4.2364,4.3628,4.4595,4.5454,4.6145,4.6307,4.6307,4.6266,4.6104,4.6023,4.5942,4.5617,4.5332,4.5127,4.4882,4.4431,4.3917,4.338,4.2633,4.1336,4.0113,3.9646,3.9731,3.9348,3.8708,3.7851,3.7291,3.6833,3.6269,3.6112,3.5878,3.5661,3.5617,3.5617,3.5617,3.5617,3.5617,3.5617,3.5617,3.5617,3.5617,3.5617,3.5617,3.5617,3.5617,3.5617,3.5617,3.5617,3.5617,3.5617,3.5617,3.5617,3.5617,3.5617,3.5617,3.5617,3.5617,3.5617,3.5617,3.5661,3.5617,3.5617,3.5617,3.5633,3.5669,3.5732,3.5923,3.6098,3.6304,3.6463,3.6495,3.6431,3.6511,3.6527,3.6543,3.6479,3.6463,3.6717,3.694,3.7083,3.7258,3.7432,3.7528,3.7607,3.7717,3.7701,3.7671,3.7671,3.4055,3.3996,3.3557,3.3187,3.2891,3.2749,3.2661,3.2441,3.2705,3.2852,3.2852,3.2808,3.2852,3.2808,3.2822,3.2808,3.2808,3.2808,3.347,3.4525,3.5819,3.6903,3.7119,3.8152,3.8965,3.9858,4.1084,4.2447,4.3628,4.4595,4.5454,4.6064,4.6266,4.6226,4.6064,4.582,4.5637,4.5535,4.5168,4.4739,4.4452,4.4205,4.3752,4.2965,4.2091,4.1168,3.9816,3.8751,3.8195,3.8126,3.8109,3.7679,3.6946,3.6486,3.6242,3.6139,3.5835,3.5661,3.5617,3.5617,3.5617,3.5617,3.5617,3.5617,3.5617,3.5617,3.5617,3.5617,3.5617,3.5617,3.5617,3.5617,3.5617,3.5617,3.5617,3.5617,3.5617,3.5617,3.5617,3.5617,3.5617,3.5617,3.5617,3.5617,3.5617,3.5617,3.5617,3.5617,3.5617,3.5617,3.5617,3.5649,3.5653,3.5716,3.5875,3.6034,3.6177,3.6257,3.6098,3.6082,3.6082,3.6082,3.6082,3.6145,3.6368,3.659,3.6752,3.7003,3.721,3.7401,3.7448,3.7606,3.7701,3.7717,3.7671,3.3276,3.2689,3.2601,3.2381,3.2073,3.2016,3.212,3.228,3.2412,3.2544,3.2778,3.2808,3.2808,3.2808,3.2808,3.2808,3.2808,3.2896,3.3514,3.4831,3.6297,3.7162,3.7679,3.8708,3.9433,4.007,4.142,4.2716,4.367,4.4534,4.5454,4.6104,4.5942,4.5841,4.5739,4.5372,4.5127,4.5086,4.4698,4.4247,4.3793,4.3463,4.2882,4.1905,4.0602,3.9476,3.8623,3.7765,3.7119,3.6833,3.6746,3.6703,3.6443,3.6052,3.5835,3.5791,3.5704,3.5617,3.5617,3.5617,3.5617,3.5617,3.5617,3.5617,3.5617,3.5617,3.5617,3.5617,3.5617,3.5617,3.5617,3.5617,3.5617,3.5617,3.5617,3.5617,3.5617,3.5617,3.5617,3.5617,3.5617,3.5617,3.5617,3.5617,3.5617,3.5617,3.5617,3.5617,3.5617,3.5617,3.5617,3.5617,3.5649,3.5653,3.5701,3.5872,3.5907,3.6002,3.5875,3.5796,3.5796,3.578,3.5812,3.5891,3.6002,3.6241,3.6495,3.6638,3.6813,3.7035,3.7274,3.7401,3.7496,3.7575,3.7671,3.2837,3.2295,3.228,3.2002,3.1637,3.1724,3.19,3.2061,3.2222,3.2471,3.2764,3.2808,3.2808,3.2808,3.2808,3.2808,3.294,3.3293,3.4071,3.5252,3.6454,3.7334,3.8066,3.9007,3.9749,3.9986,4.1523,4.2735,4.3463,4.4247,4.5025,4.5617,4.5454,4.5372,4.5332,4.4923,4.4616,4.4329,4.3958,4.3463,4.2841,4.255,4.1714,4.0602,3.9246,3.8323,3.7394,3.6963,3.6443,3.6096,3.5981,3.5981,3.5981,3.5764,3.5617,3.5617,3.5617,3.5617,3.5617,3.5617,3.5617,3.5617,3.5617,3.5617,3.5617,3.5617,3.5617,3.5617,3.5617,3.5617,3.5617,3.5617,3.5617,3.5617,3.5617,3.5617,3.5617,3.5617,3.5617,3.5617,3.5617,3.5617,3.5617,3.5617,3.5617,3.5617,3.5617,3.5617,3.5617,3.5617,3.5617,3.5617,3.5617,3.5633,3.5633,3.5665,3.5697,3.576,3.5744,3.5697,3.5697,3.5681,3.5649,3.576,3.5828,3.5955,3.6177,3.6304,3.6479,3.6749,3.6988,3.7178,3.7353,3.7464,3.7591,3.2602,3.2207,3.2207,3.1827,3.1344,3.1578,3.1754,3.1856,3.2149,3.2471,3.2764,3.2808,3.2808,3.2808,3.2808,3.2808,3.3043,3.3734,3.4553,3.5324,3.6454,3.7334,3.8152,3.8965,3.9579,3.9816,4.1378,4.2425,4.3048,4.3752,4.4411,4.4841,4.4841,4.4841,4.48,4.4411,4.4,4.367,4.3131,4.2508,4.1756,4.1444,4.0476,3.9118,3.8237,3.7481,3.666,3.6269,3.6009,3.5661,3.5617,3.5617,3.5617,3.5617,3.5617,3.5617,3.5617,3.5617,3.5617,3.5617,3.5617,3.5617,3.5617,3.5617,3.5617,3.5617,3.5617,3.5617,3.5617,3.5617,3.5617,3.5617,3.5617,3.5617,3.5617,3.5617,3.5617,3.5617,3.5617,3.5617,3.5617,3.5617,3.5617,3.5617,3.5617,3.5617,3.5617,3.5617,3.5617,3.5617,3.5617,3.5617,3.5617,3.5617,3.5617,3.5617,3.5617,3.5617,3.5617,3.5573,3.5573,3.5617,3.5617,3.5617,3.5728,3.5812,3.5875,3.5971,3.6193,3.6479,3.6654,3.6797,3.7035,3.7337,3.7464,3.2427,3.1885,3.1885,3.1505,3.098,3.1256,3.1578,3.1827,3.2163,3.2471,3.2793,3.2808,3.2808,3.2808,3.2808,3.2808,3.3043,3.3778,3.4525,3.5209,3.6297,3.7248,3.7808,3.858,3.9067,3.9621,4.0789,4.1798,4.2425,4.3007,4.3567,4.4205,4.4082,4.4041,4.4082,4.3752,4.3256,4.2924,4.2299,4.1612,4.0958,4.0198,3.9331,3.792,3.7205,3.666,3.6313,3.5922,3.5661,3.5617,3.5617,3.5617,3.5617,3.5617,3.5617,3.5617,3.5617,3.5617,3.5617,3.5617,3.5617,3.5617,3.5617,3.5617,3.5617,3.5617,3.5617,3.5617,3.5617,3.5617,3.5617,3.5617,3.5617,3.5617,3.5617,3.5617,3.5617,3.5617,3.5617,3.5617,3.5617,3.5617,3.5617,3.5617,3.5617,3.5617,3.5617,3.5617,3.5617,3.5617,3.5617,3.5617,3.5617,3.5617,3.5617,3.5617,3.5617,3.5617,3.5573,3.553,3.553,3.5573,3.5617,3.5486,3.553,3.5697,3.5701,3.5732,3.5875,3.6145,3.6273,3.64,3.667,3.6956,3.7194,3.2529,3.2061,3.2046,3.1768,3.1402,3.149,3.1739,3.2032,3.2222,3.2471,3.2734,3.2808,3.2808,3.2808,3.2808,3.2808,3.3029,3.3778,3.4437,3.5093,3.6052,3.686,3.7291,3.798,3.8195,3.8537,3.9416,4.0536,4.1336,4.2049,4.2531,4.2863,4.2965,4.3131,4.3173,4.2716,4.2258,4.1923,4.1336,4.0518,3.9646,3.8751,3.7808,3.7092,3.6573,3.6183,3.5922,3.5791,3.5617,3.5617,3.5617,3.5617,3.5617,3.5617,3.5617,3.5617,3.5617,3.5617,3.5617,3.5617,3.5617,3.5617,3.5617,3.5617,3.5617,3.5617,3.5617,3.5617,3.5617,3.5617,3.5617,3.5617,3.5617,3.5617,3.5617,3.5617,3.5617,3.5617,3.5617,3.5617,3.5617,3.5617,3.5617,3.5617,3.5617,3.5617,3.5617,3.5617,3.5617,3.5617,3.5617,3.5617,3.5617,3.5617,3.5617,3.5617,3.5617,3.5617,3.5573,3.553,3.5355,3.5355,3.5268,3.5181,3.5312,3.5486,3.5633,3.5697,3.5732,3.5828,3.6018,3.6209,3.6368,3.6574,3.6829,3.2588,3.228,3.228,3.209,3.1827,3.1871,3.2032,3.2266,3.2368,3.2529,3.2793,3.2808,3.2808,3.2808,3.2808,3.2808,3.2852,3.369,3.4174,3.47,3.5661,3.64,3.673,3.7205,3.7533,3.7619,3.7937,3.8751,4.001,4.0729,4.115,4.1528,4.1882,4.2068,4.2026,4.1714,4.121,4.0747,4.018,3.9263,3.8066,3.7205,3.666,3.6226,3.6183,3.5965,3.5661,3.5617,3.5617,3.5617,3.5617,3.5617,3.5617,3.5617,3.5617,3.5617,3.5617,3.5617,3.5617,3.5617,3.5617,3.5617,3.5617,3.5617,3.5617,3.5617,3.5617,3.5617,3.5617,3.5617,3.5617,3.5617,3.5617,3.5617,3.5617,3.5617,3.5617,3.5617,3.5617,3.5617,3.5617,3.5617,3.5617,3.5617,3.5617,3.5617,3.5617,3.5617,3.5617,3.5617,3.5617,3.5617,3.5617,3.5617,3.5617,3.5617,3.5617,3.5617,3.553,3.5486,3.5225,3.5006,3.4919,3.4831,3.5137,3.5312,3.5443,3.5617,3.5681,3.5748,3.5875,3.5971,3.605,3.6273,3.6559,3.2588,3.228,3.228,3.209,3.1885,3.2105,3.228,3.2324,3.2632,3.2719,3.2808,3.2808,3.2808,3.2808,3.2808,3.2808,3.2984,3.3338,3.369,3.4042,3.505,3.5661,3.5878,3.6687,3.6816,3.686,3.7032,3.7937,3.8862,3.9288,3.9841,4.0433,4.0663,4.0789,4.1042,4.056,4.0307,3.9774,3.8965,3.7894,3.6833,3.6486,3.6139,3.5835,3.5704,3.5704,3.5617,3.5617,3.5617,3.5617,3.5617,3.5617,3.5617,3.5617,3.5617,3.5617,3.5617,3.5617,3.5617,3.5617,3.5617,3.5617,3.5617,3.5617,3.5617,3.5617,3.5617,3.5617,3.5617,3.5617,3.5617,3.5617,3.5617,3.5617,3.5617,3.5617,3.5617,3.5617,3.5617,3.5617,3.5617,3.5617,3.5617,3.5617,3.5617,3.5617,3.5617,3.5617,3.5617,3.5617,3.5617,3.5617,3.5617,3.5617,3.5617,3.5617,3.5617,3.5617,3.5443,3.5355,3.4962,3.4656,3.4525,3.4525,3.4831,3.5137,3.5355,3.5486,3.5573,3.5681,3.5732,3.5744,3.5681,3.5939,3.6273,3.269,3.2559,3.2602,3.2485,3.2383,3.2544,3.2602,3.2588,3.2749,3.2808,3.2808,3.2808,3.2808,3.2808,3.2808,3.2808,3.2911,3.3264,3.347,3.3573,3.4349,3.4831,3.4875,3.5225,3.5486,3.5862,3.5906,3.6356,3.7378,3.8323,3.9007,3.9476,3.9604,3.9671,3.9798,3.916,3.8777,3.828,3.7636,3.6919,3.6372,3.6068,3.5791,3.5617,3.5617,3.5617,3.5617,3.5617,3.5617,3.5617,3.5617,3.5617,3.5617,3.5617,3.5617,3.5573,3.5312,3.5312,3.553,3.5573,3.5573,3.5617,3.5617,3.5617,3.5617,3.5617,3.5617,3.5617,3.5617,3.5617,3.5617,3.5617,3.5617,3.5617,3.5617,3.5617,3.5617,3.5617,3.5617,3.5617,3.5617,3.5617,3.5617,3.5617,3.5617,3.5617,3.5617,3.5617,3.5617,3.5617,3.5617,3.5617,3.5617,3.5617,3.5617,3.5617,3.5617,3.553,3.5225,3.5006,3.4568,3.4261,3.413,3.4086,3.4305,3.4656,3.5093,3.5443,3.5573,3.5617,3.5633,3.5617,3.5633,3.5681,3.6018,3.2734,3.2808,3.2808,3.2808,3.2808,3.2808,3.2808,3.2808,3.2808,3.2808,3.2808,3.2808,3.2808,3.2808,3.2808,3.2808,3.2866,3.3176,3.3308,3.3485,3.3734,3.4042,3.4174,3.4218,3.4568,3.4875,3.5093,3.5661,3.6443,3.7222,3.7954,3.8469,3.8452,3.8494,3.8306,3.7963,3.755,3.7291,3.6616,3.6183,3.6025,3.5791,3.5661,3.5617,3.5617,3.5617,3.5617,3.5617,3.5617,3.5617,3.5617,3.5617,3.5617,3.5617,3.5486,3.5399,3.5093,3.5006,3.5181,3.5268,3.5399,3.5443,3.5573,3.5617,3.5617,3.5617,3.5617,3.5617,3.5617,3.5617,3.5617,3.5617,3.5617,3.5617,3.5617,3.5617,3.5617,3.5617,3.5617,3.5617,3.5617,3.5617,3.5617,3.5617,3.5617,3.5617,3.5617,3.5617,3.5617,3.5617,3.5617,3.5617,3.5617,3.5617,3.5617,3.5617,3.5617,3.5486,3.5137,3.4744,3.4393,3.3954,3.3646,3.369,3.3866,3.4218,3.47,3.5181,3.5617,3.5617,3.5617,3.5617,3.5633,3.5649,3.5844,3.2544,3.2808,3.2808,3.2808,3.2808,3.2808,3.2808,3.2808,3.2808,3.2808,3.2808,3.2808,3.2808,3.2808,3.2808,3.2808,3.2808,3.2822,3.2911,3.3088,3.3293,3.3514,3.3646,3.391,3.4305,3.47,3.4787,3.5312,3.6052,3.6372,3.6833,3.7076,3.7334,3.7205,3.7162,3.7076,3.673,3.6486,3.5965,3.5748,3.5748,3.5661,3.5617,3.5617,3.5617,3.5617,3.5617,3.5617,3.5617,3.5617,3.5617,3.5617,3.5617,3.553,3.5355,3.5093,3.4787,3.4612,3.4525,3.4831,3.4962,3.5093,3.5312,3.5617,3.5617,3.5617,3.5617,3.5617,3.5617,3.5617,3.5617,3.5617,3.5617,3.5617,3.5617,3.5617,3.5617,3.5617,3.5617,3.5617,3.5617,3.5617,3.5617,3.5617,3.5617,3.5617,3.5617,3.5617,3.5617,3.5617,3.5617,3.5617,3.5617,3.5617,3.5617,3.5617,3.5617,3.5399,3.505,3.47,3.4305,3.3822,3.3249,3.3426,3.3602,3.3954,3.4424,3.5144,3.5641,3.5605,3.5617,3.5617,3.5665,3.5728,3.5971,3.2471,3.2808,3.2808,3.2808,3.2808,3.2808,3.2808,3.2808,3.2808,3.2808,3.2808,3.2808,3.2808,3.2808,3.2808,3.2808,3.2808,3.2808,3.2808,3.2808,3.2984,3.3073,3.3161,3.3338,3.3558,3.4042,3.4349,3.4744,3.5355,3.5764,3.5922,3.6183,3.6443,3.6573,3.653,3.6356,3.6096,3.5965,3.5704,3.5617,3.5617,3.5617,3.5617,3.5617,3.5617,3.5617,3.5617,3.5617,3.5617,3.5617,3.5617,3.5573,3.553,3.5312,3.5093,3.4787,3.4393,3.4042,3.4042,3.4481,3.5006,3.5312,3.553,3.5617,3.5617,3.5617,3.5617,3.5617,3.5617,3.5617,3.5617,3.5617,3.5617,3.5617,3.5617,3.5617,3.5617,3.5617,3.5617,3.5617,3.5617,3.5617,3.5617,3.5617,3.5617,3.5617,3.5617,3.5617,3.5617,3.5617,3.5617,3.5617,3.5617,3.5617,3.5617,3.5617,3.5617,3.5312,3.4962,3.4525,3.4086,3.3426,3.2984,3.3161,3.347,3.3954,3.4542,3.5313,3.5664,3.5716,3.5681,3.5617,3.5697,3.5792,3.605,3.2412,3.2661,3.2617,3.269,3.2808,3.2808,3.2808,3.2808,3.2808,3.2808,3.2808,3.2808,3.2808,3.2808,3.2808,3.2808,3.2808,3.2808,3.2808,3.2808,3.2808,3.2808,3.2808,3.2896,3.3161,3.3514,3.3954,3.4481,3.5006,3.5399,3.5617,3.5791,3.5878,3.6052,3.6009,3.5791,3.5617,3.5617,3.5617,3.5617,3.5617,3.5617,3.5617,3.5617,3.5617,3.5617,3.5617,3.5617,3.5617,3.5617,3.5573,3.5502,3.5312,3.5093,3.4787,3.4393,3.3954,3.3529,3.3734,3.4174,3.4962,3.5459,3.5573,3.5617,3.5617,3.5617,3.5617,3.5617,3.5617,3.5617,3.5617,3.5617,3.5617,3.5617,3.5617,3.5617,3.5617,3.5617,3.5617,3.5617,3.5617,3.5617,3.5617,3.5617,3.5617,3.5617,3.5617,3.5617,3.5617,3.5617,3.5617,3.5617,3.5617,3.5617,3.5617,3.5573,3.5486,3.5093,3.4744,3.4305,3.3778,3.3161,3.2852,3.2984,3.3382,3.3998,3.4633,3.53,3.5624,3.5812,3.578,3.584,3.5812,3.5939,3.605,3.2266,3.2295,3.2295,3.2515,3.2734,3.2793,3.2719,3.272,3.2764,3.2764,3.2764,3.2778,3.2808,3.2808,3.2778,3.2734,3.272,3.272,3.2705,3.2661,3.269,3.2764,3.2793,3.2822,3.2984,3.347,3.3866,3.4305,3.4831,3.5268,3.5486,3.5617,3.5704,3.5704,3.5633,3.5617,3.5617,3.5617,3.5617,3.5617,3.5617,3.5617,3.5617,3.5617,3.5617,3.5617,3.5617,3.5617,3.5573,3.5486,3.5486,3.5268,3.4919,3.4787,3.4393,3.3734,3.3558,3.347,3.3602,3.3998,3.4744,3.5459,3.5617,3.5617,3.5617,3.5617,3.5617,3.5617,3.5617,3.5617,3.5617,3.5617,3.5617,3.5617,3.5617,3.5617,3.5617,3.5617,3.5617,3.5617,3.5617,3.5617,3.5617,3.5617,3.5617,3.5617,3.5617,3.5617,3.5617,3.5617,3.5617,3.5617,3.5617,3.5617,3.5617,3.553,3.5399,3.4962,3.4525,3.4042,3.3646,3.3161,3.294,3.2896,3.3426,3.413,3.4663,3.5243,3.5725,3.6209,3.613,3.6114,3.6098,3.613,3.6257,3.1768,3.1959,3.1959,3.2017,3.212,3.2134,3.212,3.2163,3.2339,3.2441,3.2544,3.2705,3.2808,3.2764,3.2573,3.2441,3.2427,3.2163,3.212,3.2163,3.2354,3.2427,3.25,3.269,3.2881,3.3132,3.3514,3.3998,3.4437,3.4962,3.5355,3.5486,3.5617,3.5617,3.5617,3.5617,3.5617,3.5617,3.5617,3.5617,3.5617,3.5617,3.5617,3.5617,3.5617,3.5617,3.5573,3.5573,3.5443,3.5225,3.5181,3.4919,3.4481,3.4261,3.3866,3.3426,3.3293,3.3382,3.3822,3.4437,3.4919,3.5399,3.5617,3.5617,3.5617,3.5617,3.5617,3.5617,3.5617,3.5617,3.5617,3.5617,3.5617,3.5617,3.5617,3.5617,3.5617,3.5617,3.5617,3.5617,3.5617,3.5617,3.5617,3.5617,3.5617,3.5617,3.5617,3.5617,3.5617,3.5617,3.5617,3.5617,3.5617,3.5617,3.5573,3.5399,3.5137,3.47,3.4218,3.3734,3.3338,3.3029,3.294,3.2852,3.3558,3.4277,3.4842,3.5472,3.6224,3.6638,3.6527,3.6447,3.6447,3.6431,3.6463,3.1534,3.1622,3.1622,3.1563,3.1505,3.1695,3.1798,3.1841,3.2017,3.212,3.2163,3.2339,3.2456,3.2397,3.2237,3.212,3.209,3.1929,3.1812,3.1827,3.2002,3.2178,3.2339,3.25,3.2676,3.2896,3.3264,3.3734,3.3998,3.4612,3.5137,3.5486,3.5617,3.5617,3.5617,3.5617,3.5617,3.5617,3.5617,3.5617,3.5617,3.5617,3.5617,3.5617,3.5617,3.5617,3.553,3.5399,3.5225,3.4919,3.47,3.4437,3.3998,3.369,3.3426,3.3205,3.3426,3.3558,3.413,3.4831,3.5268,3.553,3.5617,3.5617,3.5617,3.5617,3.5617,3.5617,3.5617,3.5617,3.5617,3.5617,3.5617,3.5617,3.5617,3.5617,3.5617,3.5617,3.5617,3.5617,3.5617,3.5617,3.5617,3.5617,3.5617,3.5617,3.5617,3.5617,3.5617,3.5617,3.5617,3.5573,3.553,3.5486,3.5355,3.5137,3.4831,3.4481,3.3954,3.3485,3.3205,3.2896,3.2852,3.2896,3.3602,3.4323,3.5007,3.5686,3.6329,3.6749,3.6876,3.6813,3.6781,3.6781,3.6781,3.1578,3.1272,3.1285,3.111,3.0964,3.1461,3.171,3.1754,3.1768,3.1783,3.1798,3.1827,3.1929,3.1856,3.1798,3.1783,3.1739,3.171,3.1666,3.1695,3.1724,3.1944,3.2149,3.231,3.2573,3.2867,3.3161,3.3426,3.3646,3.4481,3.5137,3.5443,3.5573,3.5573,3.5617,3.5617,3.5617,3.5617,3.5617,3.5617,3.5617,3.5617,3.5617,3.5617,3.5617,3.553,3.5399,3.5181,3.4919,3.4656,3.4393,3.3954,3.3646,3.347,3.3205,3.3161,3.3646,3.3998,3.4305,3.5006,3.5443,3.5617,3.5617,3.5617,3.5617,3.5617,3.5617,3.5617,3.5617,3.5617,3.5617,3.5617,3.5617,3.5617,3.5617,3.5617,3.5617,3.5617,3.5617,3.5617,3.5617,3.5617,3.5617,3.5617,3.5617,3.5617,3.5617,3.5617,3.5617,3.5617,3.5617,3.5573,3.5486,3.5312,3.5093,3.4831,3.4437,3.3998,3.369,3.3249,3.2984,3.2852,3.2808,3.3029,3.369,3.4426,3.5209,3.5753,3.6247,3.6606,3.6781,3.7099,3.7035,3.7131,3.7162,3.1051,3.0907,3.0715,3.07,3.0846,3.1022,3.1068,3.1124,3.1344,3.1446,3.1461,3.1695,3.1724,3.1783,3.1563,3.1476,3.1359,3.1227,3.1082,3.1141,3.1388,3.1651,3.1915,3.2163,3.2441,3.2705,3.2984,3.3205,3.3646,3.4393,3.4831,3.5093,3.5399,3.553,3.5573,3.5617,3.5617,3.5617,3.5617,3.5617,3.5617,3.5617,3.5617,3.5617,3.553,3.5443,3.5137,3.4919,3.4612,3.3998,3.3822,3.347,3.3029,3.2984,3.2852,3.294,3.3558,3.4218,3.4349,3.5093,3.5617,3.5573,3.5617,3.5617,3.5617,3.5617,3.5617,3.5617,3.5617,3.5617,3.5617,3.5617,3.5617,3.5617,3.5617,3.5617,3.5617,3.5617,3.5617,3.5617,3.5617,3.5617,3.5617,3.5617,3.5617,3.5617,3.5617,3.5617,3.5617,3.5617,3.5617,3.5573,3.5312,3.5093,3.47,3.4393,3.3954,3.3558,3.3293,3.3073,3.294,3.2808,3.2808,3.3205,3.3866,3.4628,3.5434,3.5907,3.6161,3.6304,3.6511,3.6956,3.7305,3.7305,3.7385,3.0437,3.0422,3.0287,3.0317,3.0422,3.0451,3.0437,3.0525,3.092,3.1124,3.1139,3.13,3.1417,3.1359,3.1198,3.1124,3.1095,3.0936,3.0849,3.0907,3.0995,3.13,3.1622,3.1944,3.228,3.2544,3.2749,3.2984,3.3367,3.391,3.4349,3.4656,3.5093,3.5268,3.5355,3.5486,3.5617,3.5617,3.5617,3.5617,3.5617,3.5617,3.5617,3.5573,3.5486,3.5137,3.4875,3.47,3.4042,3.3514,3.3382,3.3117,3.2808,3.2808,3.2808,3.294,3.3426,3.3954,3.4261,3.4875,3.5312,3.553,3.5617,3.5617,3.5617,3.5617,3.5617,3.5617,3.5617,3.5617,3.5617,3.5617,3.5617,3.5617,3.5617,3.5617,3.5617,3.5617,3.5617,3.5617,3.5617,3.5617,3.5617,3.5617,3.5617,3.5617,3.5617,3.5617,3.5617,3.5617,3.5617,3.5573,3.5225,3.4875,3.4437,3.3998,3.3602,3.3293,3.3073,3.2896,3.2808,3.2896,3.2984,3.347,3.4042,3.4803,3.5534,3.5716,3.5907,3.6066,3.6241,3.6574,3.694,3.7178,3.7321,2.9906,2.9921,2.9906,2.9906,2.9877,2.9921,2.995,2.9965,3.0481,3.0744,3.0729,3.0744,3.0744,3.0729,3.0685,3.0744,3.0759,3.0729,3.0759,3.0776,3.0819,3.1081,3.1373,3.1622,3.1929,3.2251,3.25,3.2632,3.2867,3.3396,3.3954,3.4174,3.47,3.5006,3.5093,3.5443,3.5617,3.5617,3.5617,3.5617,3.5617,3.5617,3.5573,3.553,3.5225,3.4875,3.4612,3.413,3.347,3.3293,3.3117,3.2866,3.2808,3.2808,3.2808,3.294,3.3338,3.3646,3.4086,3.4656,3.5093,3.5355,3.5573,3.5617,3.5617,3.5617,3.5617,3.5617,3.5617,3.5617,3.5617,3.5617,3.5617,3.5617,3.5617,3.5617,3.5617,3.5617,3.5617,3.5617,3.5617,3.5617,3.5617,3.5617,3.5617,3.5617,3.5617,3.5617,3.5573,3.5573,3.5443,3.5443,3.5006,3.4525,3.4086,3.369,3.3293,3.2984,3.2866,3.2808,3.2808,3.2984,3.3205,3.3734,3.4305,3.4875,3.5474,3.5641,3.5764,3.5891,3.605,3.6209,3.6511,3.686,3.7146,2.9906,2.9906,2.9906,2.976,2.9584,2.9804,2.9892,2.9921,3.0053,3.0086,3.0141,3.0141,3.017,3.0214,3.0229,3.0276,3.0507,3.058,3.0627,3.0759,3.0776,3.0922,3.1199,3.1375,3.1637,3.1827,3.2032,3.2222,3.2529,3.3027,3.3543,3.3704,3.4288,3.4635,3.4781,3.5217,3.5482,3.551,3.5553,3.5553,3.5569,3.5601,3.5573,3.5427,3.5121,3.4641,3.429,3.3822,3.3338,3.2984,3.2896,3.2808,3.2808,3.2808,3.2808,3.2896,3.3205,3.347,3.3866,3.4393,3.4875,3.5137,3.5355,3.553,3.5617,3.5617,3.5617,3.5617,3.5617,3.5617,3.5617,3.5617,3.5617,3.5617,3.5617,3.5617,3.5617,3.5617,3.5617,3.5617,3.5617,3.5617,3.5617,3.5617,3.5617,3.5617,3.5617,3.5573,3.5443,3.5355,3.5093,3.5006,3.4612,3.4174,3.3778,3.3426,3.3073,3.297,3.2866,3.2837,3.2852,3.3339,3.3783,3.4103,3.4568,3.5219,3.5617,3.5578,3.5701,3.5891,3.5987,3.6193,3.6209,3.6463,3.6781,2.9467,2.9427,2.9467,2.9379,2.9208,2.9354,2.9467,2.9467,2.9467,2.9467,2.954,2.9745,2.9892,2.9892,2.9906,3.0053,3.0317,3.039,3.0568,3.0744,3.079,3.0905,3.1039,3.1199,3.1402,3.1578,3.1754,3.1944,3.2134,3.2352,3.2745,3.2935,3.3529,3.4022,3.4195,3.4721,3.5162,3.5319,3.5335,3.5319,3.5319,3.5335,3.5162,3.4989,3.4554,3.418,3.3895,3.347,3.3117,3.2852,3.2808,3.2808,3.2808,3.2808,3.2808,3.2852,3.3029,3.3249,3.3602,3.4086,3.4656,3.4919,3.5312,3.5573,3.5617,3.5617,3.5617,3.5617,3.5617,3.5617,3.5617,3.5617,3.5617,3.5617,3.5617,3.5617,3.5617,3.5617,3.5617,3.5617,3.5617,3.5617,3.5617,3.5617,3.5617,3.5617,3.5617,3.5573,3.5443,3.5093,3.4831,3.4525,3.4174,3.391,3.3646,3.3293,3.2896,3.2852,3.2924,3.3264,3.3575,3.3978,3.4409,3.4792,3.522,3.5728,3.6022,3.5939,3.6002,3.6241,3.6225,3.6193,3.6193,3.6225,3.6495,2.8915,2.8886,2.89,2.89,2.89,2.89,2.8915,2.8915,2.89,2.8915,2.9003,2.9525,2.9745,2.9774,2.9789,3.0038,3.0199,3.0229,3.0437,3.0744,3.0776,3.0819,3.0907,3.1095,3.1198,3.1344,3.1534,3.1637,3.1739,3.1957,3.2059,3.1941,3.2269,3.2755,3.3285,3.3925,3.4541,3.4841,3.4911,3.4836,3.4852,3.4825,3.4627,3.424,3.3754,3.3473,3.329,3.3058,3.2793,3.2808,3.2808,3.2808,3.2808,3.2808,3.2808,3.2852,3.2852,3.3073,3.3382,3.391,3.4349,3.4787,3.5268,3.5573,3.5617,3.5617,3.5617,3.5617,3.5617,3.5617,3.5617,3.5617,3.5617,3.5617,3.5617,3.5617,3.5617,3.5617,3.5617,3.5617,3.5617,3.5617,3.5617,3.5617,3.5617,3.5617,3.5573,3.553,3.5399,3.4919,3.4525,3.413,3.369,3.3514,3.3397,3.3235,3.291,3.3115,3.332,3.3782,3.4231,3.4502,3.4952,3.5613,3.6032,3.6329,3.6419,3.6368,3.6495,3.6559,3.6447,3.6352,3.6384,3.64,3.64,2.8886,2.8886,2.8886,2.8886,2.8886,2.8886,2.8886,2.8886,2.8886,2.8886,2.893,2.8959,2.9115,2.9115,2.9076,2.9423,3.0038,3.0082,3.0393,3.0744,3.0776,3.0776,3.0805,3.0892,3.0878,3.1051,3.1242,3.1373,3.1417,3.1622,3.1768,3.1767,3.2225,3.2652,3.3178,3.3712,3.4111,3.4435,3.4445,3.4329,3.3876,3.3938,3.4095,3.3685,3.3172,3.3041,3.289,3.263,3.2632,3.272,3.2808,3.2808,3.2808,3.2808,3.2808,3.2808,3.2808,3.2852,3.3205,3.3822,3.4261,3.4481,3.5006,3.5573,3.5617,3.5617,3.5617,3.5617,3.5617,3.5617,3.5617,3.5617,3.5617,3.5617,3.5617,3.5617,3.5617,3.5617,3.5617,3.5617,3.5617,3.5617,3.5617,3.5617,3.5617,3.5573,3.553,3.5443,3.5137,3.4656,3.4174,3.3778,3.3338,3.322,3.3219,3.3205,3.3085,3.3349,3.3673,3.4169,3.4592,3.4849,3.5377,3.618,3.6434,3.6609,3.667,3.6813,3.6733,3.6749,3.6622,3.6543,3.6606,3.6606,3.6638]},{"header":{"parameterUnit":"m.s-1","parameterCategory":1,"la1":31.0,"la2":29.5877,"lo1":-88.7671,"lo2":-86.6584,"dx":0.0162,"dy":0.0185,"nx":115,"ny":88,"refTime":"2022-11-13T06:00:00:Z","depth":0,"parameterNumber":3,"parameterNumberName":"V-component_of_WINDS"},"data":[0.0,0.0,0.0,0.0,0.0,0.0,0.0,0.0,0.0,0.0,0.0,0.0,0.0,0.0,0.0,0.0,0.0,0.0,0.0,0.0,0.0,0.0,0.0,0.0,0.0,0.0,0.0,0.0,0.0,0.0,0.0,0.0,0.0,0.0,0.0,0.0,0.0,0.0,0.0,0.0,0.0,0.0,0.0,0.0,0.0,0.0,0.0,0.0,0.0,0.0,0.0,0.0,0.0,0.0,0.0,0.0,0.0,0.0,0.0,0.0,0.0,0.0,0.0,0.0,0.0,0.0,0.0,0.0,0.0,0.0,0.0,0.0,0.0,0.0,0.0,0.0,0.0,0.0,0.0,0.0,0.0,0.0,0.0,0.0,0.0,0.0,0.0,0.0,0.0,0.0,0.0,0.0,0.0,0.0,0.0,0.0,0.0,0.0,0.0,0.0,0.0,0.0,0.0,0.0,0.0,0.0,0.0,0.0,0.0,0.0,0.0,0.0,0.0,0.0,0.0,0.0,0.0,0.0,0.0,0.0,0.0,0.0,0.0,0.0,0.0,0.0,0.0,0.0,0.0,0.0,0.0,0.0,0.0,0.0,0.0,0.0,0.0,0.0,0.0,0.0,0.0,0.0,0.0,0.0,0.0,0.0,0.0,0.0,0.0,0.0,0.0,0.0,0.0,0.0,0.0,0.0,0.0,0.0,0.0,0.0,0.0,0.0,0.0,0.0,0.0,0.0,0.0,0.0,0.0,0.0,0.0,0.0,0.0,0.0,0.0,0.0,0.0,0.0,0.0,0.0,0.0,0.0,0.0,0.0,0.0,0.0,0.0,0.0,0.0,0.0,0.0,0.0,0.0,0.0,0.0,0.0,0.0,0.0,0.0,0.0,0.0,0.0,0.0,0.0,0.0,0.0,0.0,0.0,0.0,0.0,0.0,0.0,0.0,0.0,0.0,0.0,0.0,0.0,0.0,0.0,0.0,0.0,0.0,0.0,0.0,0.0,0.0,0.0,0.0,0.0,0.0,0.0,0.0,0.0,0.0,0.0,0.0,0.0,0.0,0.0,0.0,0.0,0.0,0.0,0.0,0.0,0.0,0.0,0.0,0.0,0.0,0.0,0.0,0.0,0.0,0.0,0.0,0.0,0.0,0.0,0.0,0.0,0.0,0.0,0.0,0.0,0.0,0.0,0.0,0.0,0.0,0.0,0.0,0.0,0.0,0.0,0.0,0.0,0.0,0.0,0.0,0.0,0.0,0.0,0.0,0.0,0.0,0.0,0.0,0.0,0.0,0.0,0.0,0.0,0.0,0.0,0.0,0.0,0.0,0.0,0.0,0.0,0.0,0.0,0.0,0.0,0.0,0.0,0.0,0.0,0.0,0.0,0.0,0.0,0.0,0.0,0.0,0.0,0.0,0.0,0.0,0.0,0.0,0.0,0.0,0.0,0.0,0.0,0.0,0.0,0.0,0.0,0.0,0.0,0.0,0.0,0.0,0.0,0.0,0.0,0.0,0.0,0.0,0.0,0.0,0.0,0.0,0.0,0.0,0.0,0.0,0.0,0.0,0.0,0.0,0.0,0.0,0.0,0.0,0.0,0.0,0.0,0.0,0.0,0.0,0.0,0.0,0.0,0.0,0.0,0.0,0.0,0.0,0.0,0.0,0.0,0.0,0.0,0.0,0.0,0.0,0.0,0.0,0.0,0.0,0.0,0.0,0.0,0.0,0.0,0.0,0.0,0.0,0.0,0.0,0.0,0.0,0.0,0.0,0.0,0.0,0.0,0.0,0.0,0.0,0.0,0.0,0.0,0.0,0.0,0.0,0.0,0.0,0.0,0.0,0.0,0.0,0.0,0.0,0.0,0.0,0.0,0.0,0.0,0.0,0.0,0.0,0.0,0.0,0.0,0.0,0.0,0.0,0.0,0.0,0.0,0.0,0.0,0.0,0.0,0.0,0.0,0.0,0.0,0.0,0.0,0.0,0.0,0.0,0.0,0.0,0.0,0.0,0.0,0.0,0.0,0.0,0.0,0.0,0.0,0.0,0.0,0.0,0.0,0.0,0.0,0.0,0.0,0.0,0.0,0.0,0.0,0.0,0.0,0.0,0.0,0.0,0.0,0.0,0.0,0.0,0.0,0.0,0.0,0.0,0.0,0.0,0.0,0.0,0.0,0.0,0.0,0.0,0.0,0.0,0.0,0.0,0.0,0.0,0.0,0.0,0.0,0.0,0.0,0.0,0.0,0.0,0.0,0.0,0.0,0.0,0.0,0.0,0.0,0.0,0.0,0.0,0.0,0.0,0.0,0.0,0.0,0.0,0.0,0.0,0.0,0.0,0.0,0.0,0.0,0.0,0.0,0.0,0.0,0.0,0.0,0.0,0.0,0.0,0.0,0.0,0.0,0.0,0.0,0.0,0.0,0.0,0.0,0.0,0.0,0.0,0.0,0.0,0.0,0.0,0.0,0.0,0.0,0.0,0.0,0.0,0.0,0.0,0.0,0.0,0.0,0.0,0.0,0.0,0.0,0.0,0.0,0.0,0.0,0.0,0.0,0.0,0.0,0.0,0.0,0.0,0.0,0.0,0.0,0.0,0.0,0.0,0.0,0.0,0.0,0.0,0.0,0.0,0.0,0.0,0.0,0.0,0.0,0.0,0.0,0.0,0.0,0.0,0.0,0.0,0.0,0.0,0.0,0.0,0.0,0.0,0.0,0.0,0.0,0.0,0.0,0.0,0.0,0.0,0.0,0.0,0.0,0.0,0.0,0.0,0.0,0.0,0.0,0.0,0.0,0.0,0.0,0.0,0.0,0.0,0.0,0.0,0.0,0.0,0.0,0.0,0.0,0.0,0.0,0.0,0.0,0.0,0.0,0.0,0.0,0.0,0.0,0.0,0.0,0.0,0.0,0.0,0.0,0.0,0.0,0.0,0.0,0.0,0.0,0.0,0.0,0.0,0.0,0.0,0.0,0.0,0.0,0.0,0.0,0.0,0.0,0.0,0.0,0.0,0.0,0.0,0.0,0.0,0.0,0.0,0.0,0.0,0.0,0.0,0.0,0.0,0.0,0.0,0.0,0.0,0.0,0.0,0.0,0.0,0.0,0.0,0.0,0.0,0.0,0.0,0.0,0.0,0.0,0.0,0.0,0.0,0.0,0.0,0.0,0.0,0.0,0.0,0.0,0.0,0.0,0.0,0.0,0.0,0.0,0.0,0.0,0.0,0.0,0.0,0.0,0.0,0.0,0.0,0.0,0.0,0.0,0.0,0.0,0.0,0.0,0.0,0.0,0.0,0.0,0.0,0.0,0.0,0.0,0.0,0.0,0.0,0.0,0.0,0.0,0.0,0.0,0.0,0.0,0.0,0.0,0.0,0.0,0.0,0.0,0.0,0.0,0.0,0.0,0.0,0.0,0.0,0.0,0.0,0.0,0.0,0.0,0.0,0.0,0.0,0.0,0.0,0.0,0.0,0.0,0.0,0.0,0.0,0.0,0.0,0.0,0.0,0.0,0.0,0.0,0.0,0.0,0.0,0.0,0.0,0.0,0.0,0.0,0.0,0.0,0.0,0.0,0.0,0.0,0.0,0.0,0.0,0.0,0.0,0.0,0.0,0.0,0.0,0.0,0.0,0.0,0.0,0.0,0.0,0.0,0.0,0.0,0.0,0.0,0.0,0.0,0.0,0.0,0.0,0.0,0.0,0.0,0.0,0.0,0.0,0.0,0.0,0.0,0.0,0.0,0.0,0.0,0.0,0.0,0.0,0.0,0.0,0.0,0.0,0.0,0.0,0.0,0.0,0.0,0.0,0.0,0.0,0.0,0.0,0.0,0.0,0.0,0.0,0.0,0.0,0.0,0.0,0.0,0.0,0.0,0.0,0.0,0.0,0.0,0.0,0.0,0.0,0.0,0.0,0.0,0.0,0.0,0.0,0.0,0.0,0.0,0.0,0.0,0.0,0.0,0.0,0.0,0.0,0.0,0.0,0.0,0.0,0.0,0.0,0.0,0.0,0.0,0.0,0.0,0.0,0.0,0.0,0.0,0.0,0.0,0.0,0.0,0.0,0.0,0.0,0.0,0.0,0.0,0.0,0.0,0.0,0.0,0.0,0.0,0.0,0.0,0.0,0.0,0.0,0.0,0.0,0.0,0.0,0.0,0.0,0.0,0.0,0.0,0.0,0.0,0.0,0.0,0.0,0.0,0.0,0.0,0.0,0.0,0.0,0.0,0.0,0.0,0.0,0.0,0.0,0.0,0.0,0.0,0.9803,0.0,0.0,0.0,1.0563,0.0,0.0,0.0,0.0,0.0,0.0,0.0,0.0,0.0,0.0,0.0,0.0,0.0,0.0,0.0,0.0,0.0,0.0,0.0,0.0,0.0,0.0,0.0,0.0,0.0,0.0,0.0,0.0,0.0,0.0,0.0,0.0,0.0,0.0,0.0,0.0,0.0,0.0,0.0,0.0,0.0,0.0,0.0,0.0,0.0,0.0,0.0,0.0,0.0,0.0,0.0,0.0,0.0,0.0,0.0,0.0,0.0,0.0,0.0,0.0,0.0,0.0,0.0,0.0,0.0,0.0,0.0,0.0,0.0,0.0,0.0,0.0,0.0,0.0,0.0,0.0,0.0,0.0,0.0,0.0,0.0,0.0,0.0,0.0,0.0,0.0,0.0,0.0,0.0,0.0,0.0,0.0,0.0,0.0,0.0,0.0,0.0,0.0,0.0,0.0,0.0,0.0,0.0,0.0,0.0,0.0,0.0,0.0,0.0,0.0,0.9783,0.9892,1.0019,1.0235,1.0639,0.0,0.0,0.0,0.0,0.0,0.0,0.0,0.0,0.0,0.0,0.0,0.0,0.0,0.0,0.0,0.0,0.0,0.0,0.0,0.0,0.0,0.0,0.0,0.0,0.0,0.0,0.0,0.0,0.0,0.0,0.0,0.0,0.0,0.0,0.0,0.0,0.0,0.0,0.0,0.0,0.0,0.0,0.0,0.0,0.0,0.0,0.0,0.0,0.0,0.0,0.0,0.0,0.0,0.0,0.0,0.0,0.0,0.0,0.0,0.0,0.0,0.0,0.0,0.0,0.0,0.0,0.0,0.0,0.0,0.0,0.0,0.0,0.0,0.0,0.0,0.0,0.0,0.0,0.0,0.0,0.0,0.0,0.0,0.0,0.0,0.0,0.0,0.0,0.0,0.0,0.0,0.0,0.0,0.0,0.0,0.0,0.0,0.0,0.0,0.0,0.0,0.0,0.0,0.0,0.0,0.0,0.0,0.0,0.0,0.0,0.0,0.0,1.004,1.0361,1.0905,0.0,0.0,0.0,0.0,0.0,0.0,0.0,0.0,0.0,0.0,0.0,0.0,0.0,0.0,0.0,0.0,0.0,0.0,0.0,0.0,0.0,0.0,0.0,0.0,0.0,0.0,0.0,0.0,0.0,0.0,0.0,0.0,0.0,0.0,0.0,0.0,0.0,0.0,0.0,0.0,0.0,0.0,0.0,0.0,0.0,0.0,0.0,0.0,0.0,0.0,0.0,0.0,0.0,0.0,0.0,0.0,0.0,0.0,0.0,0.0,0.0,0.0,0.0,0.0,0.0,0.0,0.0,0.0,0.0,0.0,0.0,0.0,0.0,0.0,0.0,0.0,0.0,0.0,0.0,0.0,0.0,0.0,0.0,0.0,0.0,0.0,0.0,0.0,0.0,0.0,0.0,0.0,0.0,0.0,0.0,0.0,0.0,0.0,0.0,0.0,0.0,0.0,0.0,0.0,0.0,0.0,0.0,0.0,0.0,0.0,0.9742,0.9813,1.0,0.0,1.1468,0.0,0.0,0.0,0.0,0.0,0.0,0.0,0.0,0.0,0.0,0.0,0.0,0.0,0.0,0.0,0.0,0.0,0.0,0.0,0.0,0.0,0.0,0.0,0.0,0.0,0.0,0.0,0.0,0.0,0.0,0.0,0.0,0.0,0.0,0.0,0.0,0.0,0.0,0.0,0.0,0.0,0.0,0.0,0.0,0.0,0.0,0.0,0.0,0.0,0.0,0.0,0.0,0.0,0.0,0.0,0.0,0.0,0.0,0.0,0.0,0.0,0.0,0.0,0.0,0.0,0.0,0.0,0.0,0.0,0.0,0.0,0.0,0.0,0.0,0.0,0.0,0.0,0.0,0.0,0.0,0.0,0.0,0.0,0.0,0.0,0.0,0.0,0.0,0.0,0.0,0.0,0.0,0.0,0.0,0.0,0.0,0.0,0.0,0.0,0.0,0.0,0.0,0.0,0.0,0.0,0.0,0.0,0.0,0.0,0.0,0.9782,0.9921,1.039,1.1,0.0,0.0,0.0,0.0,0.0,0.0,0.0,0.0,0.0,0.0,0.0,0.0,0.0,0.0,0.0,0.0,0.0,0.0,0.0,0.0,0.0,0.0,0.0,0.0,0.0,0.0,0.0,0.0,0.0,0.0,0.0,0.0,0.0,0.0,0.0,0.0,0.0,0.0,0.0,0.0,0.0,0.0,0.0,0.0,0.0,0.0,0.0,0.0,0.0,0.0,0.0,0.0,0.0,0.0,0.0,0.0,0.0,0.0,0.0,0.0,0.0,0.0,0.0,0.0,0.0,0.0,0.0,0.0,0.0,0.0,0.0,0.0,0.0,0.0,0.0,0.0,0.0,0.0,0.0,0.0,0.0,0.0,0.0,0.0,0.0,0.0,0.0,0.0,0.0,0.0,0.0,0.0,0.0,0.0,0.0,0.0,0.0,0.0,0.0,0.0,0.0,0.0,0.0,0.0,0.0,0.0,0.0,0.0,0.0,0.0,0.9929,1.0117,1.0524,1.101,1.1523,1.2145,0.0,0.0,0.0,0.0,0.0,0.0,0.0,0.0,0.0,0.0,0.0,0.0,0.0,0.0,0.0,0.0,0.0,0.0,0.0,0.0,0.0,0.0,0.0,0.0,0.0,0.0,0.0,0.0,0.0,0.0,0.0,0.0,0.0,0.0,0.0,0.0,0.0,0.0,0.0,0.0,0.0,0.0,0.0,0.0,0.0,0.0,0.0,0.0,0.0,0.0,0.0,0.0,0.0,0.0,0.0,0.0,0.0,0.0,0.0,0.0,0.0,0.0,0.0,0.0,0.0,0.0,0.0,0.0,0.0,0.0,0.0,0.0,0.0,0.0,0.0,0.0,0.0,0.0,0.0,0.0,0.0,0.0,0.0,0.0,0.0,0.0,0.0,0.0,0.0,0.0,0.0,0.0,0.0,0.0,0.0,0.0,0.0,0.0,0.0,0.0,0.0,0.0,0.0,0.0,0.0,0.0,0.0,0.0,1.0453,1.0463,1.0945,1.1851,1.1891,1.2159,0.0,0.0,0.0,0.0,0.0,0.0,0.0,0.0,0.0,0.0,0.0,0.0,0.0,0.0,0.0,0.0,0.0,0.0,0.0,0.0,0.0,0.0,0.0,0.0,0.0,0.0,0.0,0.0,0.0,0.0,0.0,0.0,0.0,0.0,0.0,0.0,0.0,0.0,0.0,0.0,0.0,0.0,0.0,0.0,0.0,0.0,0.0,0.0,0.0,0.0,0.0,0.0,0.0,0.0,0.0,0.0,0.0,0.0,0.0,0.0,0.0,0.0,0.0,0.0,0.0,0.0,0.0,0.0,0.0,0.0,0.0,0.0,0.0,0.0,0.0,0.0,0.0,0.0,0.0,0.0,0.0,0.0,0.0,0.0,0.0,0.0,0.0,0.0,0.0,0.0,0.0,0.0,0.0,0.0,0.0,0.0,0.0,0.0,0.0,0.0,0.0,0.0,0.0,0.0,0.0,0.0,0.0,0.0,0.0,1.0584,1.1084,1.1589,1.219,1.2539,1.2808,0.0,0.0,0.0,0.0,0.0,0.0,0.0,0.0,0.0,0.0,0.0,0.0,0.0,0.0,0.0,0.0,0.0,0.0,0.0,0.0,0.0,0.0,0.0,0.0,0.0,0.0,0.0,0.0,0.0,0.0,0.0,0.0,0.0,0.0,0.0,0.0,0.0,0.0,0.0,0.0,0.0,0.0,0.0,0.0,0.0,0.0,0.0,0.0,0.0,0.0,0.0,0.0,0.0,0.0,0.0,0.0,0.0,0.0,0.0,0.0,0.0,0.0,0.0,0.0,0.0,0.0,0.0,0.0,0.0,0.0,0.0,0.0,0.0,0.0,0.0,0.0,0.0,0.0,0.0,0.0,0.0,0.0,0.0,0.0,0.0,0.0,0.0,0.0,0.0,0.0,0.0,0.0,0.0,0.0,0.0,0.0,0.0,0.0,0.0,0.0,0.0,0.0,0.0,0.0,0.0,0.0,0.0,0.0,0.0,1.1716,1.2709,1.3386,1.3688,1.3917,1.4066,0.0,0.0,0.0,0.0,0.0,0.0,0.0,0.0,0.0,0.0,0.0,0.0,0.0,0.0,0.0,0.0,0.0,0.0,0.0,0.0,0.0,0.0,0.0,0.0,0.0,0.0,0.0,0.0,0.0,0.0,0.0,0.0,0.0,0.0,0.0,0.0,0.0,0.0,0.0,0.0,0.0,0.0,0.0,0.0,0.0,0.0,0.0,0.0,0.0,0.0,0.0,0.0,0.0,0.0,0.0,0.0,0.0,0.0,0.0,0.0,0.0,0.0,0.0,0.0,0.0,0.0,0.0,0.0,0.0,0.0,0.0,0.0,0.0,0.0,0.0,0.0,0.0,0.0,0.0,0.0,0.0,0.0,0.0,0.0,0.0,0.0,0.0,0.0,0.0,0.0,0.0,0.0,0.0,0.0,0.0,0.0,0.0,0.0,0.0,0.0,0.0,0.0,0.0,0.0,0.0,0.0,0.0,0.0,1.2157,1.4088,1.5511,1.6366,1.6598,1.6219,1.5893,0.0,0.0,0.0,0.0,0.0,0.0,0.0,0.0,0.0,0.0,0.0,0.0,0.0,0.0,0.0,0.0,0.0,0.0,0.0,0.0,0.0,0.0,0.0,0.0,0.0,0.0,0.0,0.0,0.0,0.0,0.0,0.0,0.0,0.0,0.0,0.0,0.0,0.0,0.0,0.0,0.0,0.0,0.0,0.0,0.0,0.0,0.0,0.0,0.0,0.0,0.0,0.0,0.0,0.0,0.0,0.0,0.0,0.0,0.0,0.0,0.0,0.0,0.0,0.0,0.0,0.0,0.0,0.0,0.0,0.0,0.0,0.0,0.0,0.0,0.0,0.0,0.0,0.0,0.0,0.0,0.0,0.0,0.0,0.0,0.0,0.0,0.0,0.0,0.0,0.0,0.0,0.0,0.0,0.0,0.0,0.0,0.0,0.0,0.0,0.0,0.0,0.0,0.0,0.0,0.0,0.0,0.0,0.0,0.0,1.7476,1.8488,1.9198,1.9532,1.9129,1.8383,0.0,0.0,0.0,0.0,0.0,0.0,0.0,0.0,0.0,0.0,0.0,0.0,0.0,0.0,0.0,0.0,0.0,0.0,0.0,0.0,0.0,0.0,0.0,0.0,0.0,0.0,0.0,0.0,0.0,0.0,0.0,0.0,0.0,0.0,0.0,0.0,0.0,0.0,0.0,0.0,0.0,0.0,0.0,0.0,0.0,0.0,0.0,0.0,0.0,0.0,0.0,0.0,0.0,0.0,0.0,0.0,0.0,0.0,0.0,0.0,0.0,0.0,0.0,0.0,0.0,0.0,0.0,0.0,0.0,0.0,0.0,0.0,0.0,0.0,0.0,0.0,0.0,0.0,0.0,0.0,0.0,0.0,0.0,0.0,0.0,0.0,0.0,0.0,0.0,0.0,0.0,0.0,0.0,0.0,0.0,0.0,0.0,0.0,0.0,0.0,0.0,0.0,0.0,0.0,0.0,0.0,0.0,0.0,0.0,2.2608,2.2199,2.2163,2.2534,2.2007,2.1064,1.9648,0.0,0.0,0.0,0.0,0.0,0.0,0.0,0.0,0.0,0.0,0.0,0.0,0.0,0.0,0.0,0.0,0.0,0.0,0.0,0.0,0.0,0.0,0.0,0.0,0.0,0.0,0.0,0.0,0.0,0.0,0.0,0.0,0.0,0.0,0.0,0.0,0.0,0.0,0.0,0.0,0.0,0.0,0.0,0.0,0.0,0.0,0.0,0.0,0.0,0.0,0.0,0.0,0.0,0.0,0.0,0.0,0.0,0.0,0.0,0.0,0.0,0.0,0.0,0.0,0.0,0.0,0.0,0.0,0.0,0.0,0.0,0.0,0.0,0.0,0.0,0.0,0.0,0.0,0.0,0.0,0.0,0.0,0.0,0.0,0.0,0.0,0.0,0.0,0.0,0.0,0.0,0.0,0.0,0.0,0.0,0.0,0.0,0.0,0.0,0.0,0.0,0.0,0.0,0.0,0.0,0.0,0.0,0.0,2.9026,2.6671,2.5504,2.566,2.4982,2.3949,0.0,0.0,0.0,0.0,0.0,0.0,0.0,0.0,0.0,0.0,0.0,0.0,0.0,0.0,0.0,0.0,0.0,0.0,0.0,0.0,0.0,0.0,0.0,0.0,0.0,0.0,0.0,0.0,0.0,0.0,0.0,0.0,0.0,0.0,0.0,0.0,0.0,0.0,0.0,0.0,0.0,0.0,0.0,0.0,0.0,0.0,0.0,0.0,0.0,0.0,0.0,0.0,0.0,0.0,0.0,0.0,0.0,0.0,0.0,0.0,0.0,0.0,0.0,0.0,0.0,0.0,0.0,0.0,0.0,0.0,0.0,0.0,0.0,0.0,0.0,0.0,0.0,0.0,0.0,0.0,0.0,0.0,0.0,0.0,0.0,0.0,0.0,0.0,0.0,0.0,0.0,0.0,0.0,0.0,0.0,0.0,0.0,0.0,0.0,0.0,0.0,0.0,0.0,0.0,0.0,0.0,0.0,0.0,0.0,3.2325,3.2626,3.182,3.0031,2.897,2.7432,0.0,0.0,0.0,0.0,0.0,0.0,0.0,0.0,0.0,0.0,0.0,0.0,0.0,0.0,0.0,0.0,0.0,0.0,0.0,0.0,0.0,0.0,0.0,0.0,0.0,0.0,0.0,0.0,0.0,0.0,0.0,0.0,0.0,0.0,0.0,0.0,0.0,0.0,0.0,0.0,0.0,0.0,0.0,0.0,0.0,0.0,0.0,0.0,0.0,0.0,0.0,0.0,0.0,0.0,0.0,0.0,0.0,0.0,0.0,0.0,0.0,0.0,0.0,0.0,0.0,0.0,0.0,0.0,0.0,0.0,0.0,0.0,0.0,0.0,0.0,0.0,0.0,0.0,0.0,0.0,0.0,0.0,0.0,0.0,0.0,0.0,0.0,0.0,0.0,0.0,0.0,0.0,0.0,0.0,0.0,0.0,0.0,0.0,0.0,0.0,0.0,0.0,0.0,0.0,0.0,0.0,0.0,0.0,3.2805,3.6041,3.7188,3.6921,3.5256,3.3042,3.0695,0.0,0.0,0.0,0.0,0.0,0.0,0.0,0.0,0.0,0.0,0.0,0.0,0.0,0.0,0.0,0.0,0.0,0.0,0.0,0.0,0.0,0.0,0.0,0.0,0.0,0.0,0.0,0.0,0.0,0.0,0.0,0.0,0.0,0.0,0.0,0.0,0.0,0.0,0.0,0.0,0.0,0.0,0.0,0.0,0.0,0.0,0.0,0.0,0.0,0.0,0.0,0.0,0.0,0.0,0.0,0.0,0.0,0.0,0.0,0.0,0.0,0.0,0.0,0.0,0.0,0.0,0.0,0.0,0.0,0.0,0.0,0.0,0.0,0.0,0.0,0.0,0.0,0.0,0.0,0.0,0.0,0.0,0.0,0.0,0.0,0.0,0.0,0.0,0.0,0.0,0.0,0.0,0.0,0.0,0.0,0.0,0.0,0.0,0.0,0.0,0.0,0.0,0.0,0.0,0.0,0.0,0.0,0.0,3.6694,3.9809,4.0809,4.1078,4.0604,3.7026,3.3746,0.0,0.0,0.0,0.0,0.0,0.0,0.0,0.0,0.0,0.0,0.0,0.0,0.0,0.0,0.0,0.0,0.0,0.0,0.0,0.0,0.0,0.0,0.0,0.0,0.0,0.0,0.0,0.0,0.0,0.0,0.0,0.0,0.0,0.0,0.0,0.0,0.0,0.0,0.0,0.0,0.0,0.0,0.0,0.0,0.0,0.0,0.0,0.0,0.0,0.0,0.0,0.0,0.0,0.0,0.0,0.0,0.0,0.0,0.0,0.0,0.0,0.0,0.0,0.0,0.0,0.0,0.0,0.0,0.0,0.0,0.0,0.0,0.0,0.0,0.0,0.0,0.0,0.0,0.0,0.0,0.0,0.0,0.0,0.0,0.0,0.0,0.0,0.0,0.0,0.0,0.0,0.0,0.0,0.0,0.0,0.0,0.0,0.0,0.0,0.0,0.0,0.0,0.0,0.0,0.0,0.0,0.0,0.0,4.0497,4.369,4.416,4.4272,4.4048,4.0097,3.6462,0.0,0.0,0.0,0.0,0.0,0.0,0.0,0.0,0.0,0.0,0.0,0.0,0.0,0.0,0.0,0.0,0.0,0.0,0.0,0.0,0.0,0.0,0.0,0.0,0.0,0.0,0.0,0.0,0.0,0.0,0.0,0.0,0.0,0.0,0.0,0.0,0.0,0.0,0.0,0.0,0.0,0.0,0.0,0.0,0.0,0.0,0.0,0.0,1.7739,0.0,0.0,0.0,0.0,0.0,0.0,0.0,0.0,0.0,0.0,0.0,0.0,0.0,0.0,0.0,0.0,0.0,0.0,0.0,0.0,0.0,0.0,0.0,0.0,0.0,0.0,0.0,0.0,0.0,0.0,0.0,0.0,0.0,0.0,0.0,0.0,0.0,0.0,0.0,0.0,0.0,0.0,0.0,0.0,0.0,0.0,0.0,0.0,0.0,0.0,0.0,0.0,0.0,0.0,0.0,0.0,0.0,0.0,0.0,4.4171,4.7037,4.7398,4.7189,4.6404,4.3858,4.0383,0.0,0.0,0.0,0.0,0.0,0.0,0.0,0.0,0.0,0.0,0.0,0.0,0.0,0.0,0.0,0.0,0.0,0.0,0.0,0.0,0.0,0.0,0.0,0.0,0.0,0.0,0.0,0.0,0.0,0.0,0.0,0.0,0.0,0.0,0.0,0.0,0.0,0.0,0.0,0.0,0.0,0.0,0.0,0.0,0.0,0.0,0.0,0.0,0.0,0.0,0.0,0.0,0.0,0.0,0.0,0.0,0.0,0.0,0.0,0.0,0.0,0.0,0.0,0.0,0.0,0.0,0.0,0.0,0.0,0.0,0.0,0.0,0.0,0.0,0.0,0.0,0.0,0.0,0.0,0.0,0.0,0.0,0.0,0.0,0.0,0.0,0.0,0.0,0.0,0.0,0.0,0.0,0.0,0.0,0.0,0.0,0.0,0.0,0.0,0.0,0.0,0.0,0.0,0.0,0.0,0.0,0.0,4.4402,4.7698,5.0009,5.0352,4.9905,4.8687,4.7262,4.4109,3.9049,0.0,0.0,0.0,0.0,0.0,0.0,0.0,0.0,0.0,0.0,0.0,0.0,0.0,0.0,0.0,0.0,0.0,0.0,0.0,0.0,0.0,0.0,0.0,0.0,0.0,0.0,0.0,0.0,0.0,0.0,0.0,0.0,0.0,0.0,0.0,0.0,0.0,0.0,1.7159,1.9778,0.0,0.0,0.0,0.0,0.0,0.0,0.0,0.0,2.2974,0.0,0.0,0.0,0.0,0.0,0.0,0.0,0.0,0.0,0.0,0.0,0.0,0.0,0.0,0.0,0.0,0.0,0.0,0.0,0.0,0.0,0.0,0.0,0.0,0.0,0.0,0.0,0.0,0.0,0.0,0.0,0.0,0.0,0.0,0.0,0.0,0.0,0.0,0.0,0.0,0.0,0.0,0.0,0.0,0.0,0.0,0.0,0.0,0.0,0.0,0.0,0.0,0.0,0.0,0.0,0.0,4.189,4.7404,5.0942,5.2476,5.256,5.2299,5.1616,4.8571,4.531,4.1922,0.0,0.0,0.0,0.0,0.0,0.0,0.0,0.0,0.0,0.0,0.0,0.0,0.0,0.0,0.0,0.0,0.0,0.0,0.0,0.0,0.0,0.0,0.0,0.0,0.0,0.0,0.0,0.0,0.0,0.0,0.0,0.0,0.0,0.0,0.0,0.0,0.0,0.0,0.0,2.3919,2.5657,0.0,0.0,0.0,0.0,0.0,0.0,0.0,0.0,2.4812,0.0,0.0,0.0,0.0,0.0,0.0,0.0,0.0,0.0,0.0,0.0,0.0,0.0,0.0,0.0,0.0,0.0,0.0,0.0,0.0,0.0,0.0,0.0,0.0,0.0,0.0,0.0,0.0,0.0,0.0,0.0,0.0,0.0,0.0,0.0,0.0,0.0,0.0,0.0,0.0,0.0,0.0,0.0,0.0,0.0,0.0,0.0,0.0,0.0,0.0,0.0,0.0,0.0,0.0,0.0,4.4809,4.9322,5.2626,5.463,5.4581,5.4125,5.3267,5.0464,4.7103,0.0,0.0,0.0,0.0,0.0,0.0,0.0,0.0,0.0,0.0,0.0,0.0,0.0,0.0,0.0,0.0,0.0,0.0,0.0,0.0,0.0,0.0,0.0,0.0,0.0,0.0,0.0,0.0,0.0,0.0,0.0,0.0,0.0,0.0,0.0,0.0,0.0,0.0,0.0,0.0,2.6574,2.8093,2.882,0.0,0.0,0.0,0.0,0.0,0.0,2.8446,2.7592,0.0,0.0,0.0,0.0,0.0,0.0,0.0,0.0,0.0,0.0,0.0,0.0,0.0,0.0,0.0,0.0,0.0,0.0,0.0,0.0,0.0,0.0,0.0,0.0,0.0,0.0,0.0,0.0,0.0,0.0,0.0,0.0,0.0,0.0,0.0,0.0,0.0,0.0,0.0,0.0,0.0,0.0,0.0,0.0,0.0,0.0,0.0,0.0,0.0,0.0,0.0,0.0,0.0,0.0,0.0,4.7446,5.1258,5.4316,5.6572,5.6523,5.5838,5.4622,5.2145,4.8604,0.0,0.0,0.0,0.0,0.0,0.0,0.0,0.0,0.0,0.0,0.0,0.0,0.0,0.0,0.0,0.0,0.0,0.0,0.0,0.0,0.0,0.0,0.0,0.0,0.0,0.0,0.0,0.0,0.0,0.0,0.0,0.0,0.0,0.0,0.0,0.0,0.0,0.0,0.0,0.0,0.0,3.0357,3.164,3.1827,0.0,0.0,0.0,0.0,3.25,3.1604,0.0,0.0,0.0,0.0,0.0,0.0,0.0,0.0,0.0,0.0,0.0,0.0,0.0,0.0,0.0,0.0,0.0,0.0,0.0,0.0,0.0,0.0,0.0,0.0,0.0,0.0,0.0,0.0,0.0,0.0,0.0,0.0,0.0,0.0,0.0,0.0,0.0,0.0,0.0,0.0,0.0,0.0,0.0,0.0,0.0,0.0,0.0,0.0,0.0,0.0,0.0,0.0,0.0,0.0,0.0,0.0,4.8851,5.404,5.7236,5.8333,5.8546,5.7876,5.632,5.3024,4.8944,0.0,0.0,0.0,0.0,0.0,0.0,0.0,0.0,0.0,0.0,0.0,0.0,0.0,0.0,0.0,0.0,0.0,0.0,0.0,0.0,0.0,0.0,0.0,0.0,0.0,0.0,0.0,0.0,0.0,0.0,0.0,0.0,0.0,0.0,0.0,0.0,0.0,0.0,0.0,0.0,0.0,3.3394,3.4782,3.5719,3.6053,0.0,0.0,3.5479,3.5573,3.4722,0.0,0.0,0.0,0.0,0.0,0.0,0.0,0.0,0.0,0.0,0.0,0.0,0.0,0.0,0.0,0.0,0.0,0.0,0.0,0.0,0.0,0.0,0.0,0.0,0.0,0.0,0.0,0.0,0.0,0.0,0.0,0.0,0.0,0.0,0.0,0.0,0.0,0.0,0.0,0.0,0.0,0.0,0.0,0.0,0.0,0.0,0.0,0.0,0.0,0.0,0.0,0.0,0.0,0.0,0.0,4.5095,5.1246,5.4859,5.7643,5.9562,5.9658,5.8918,5.7422,5.4199,5.0133,0.0,0.0,0.0,0.0,0.0,0.0,0.0,0.0,0.0,0.0,0.0,0.0,0.0,0.0,0.0,0.0,0.0,0.0,0.0,0.0,0.0,0.0,0.0,0.0,0.0,0.0,0.0,0.0,0.0,0.0,0.0,0.0,0.0,0.0,0.0,0.0,0.0,0.0,0.0,0.0,0.0,0.0,3.7484,3.8339,0.0,0.0,0.0,3.8421,3.8526,0.0,0.0,0.0,0.0,0.0,0.0,0.0,0.0,0.0,0.0,0.0,0.0,0.0,0.0,0.0,0.0,0.0,0.0,0.0,0.0,0.0,0.0,0.0,0.0,0.0,0.0,0.0,0.0,0.0,0.0,0.0,0.0,0.0,0.0,0.0,0.0,0.0,0.0,0.0,0.0,0.0,0.0,0.0,0.0,0.0,0.0,0.0,0.0,0.0,0.0,0.0,0.0,0.0,0.0,0.0,0.0,0.0,5.325,5.5881,5.8409,6.0821,6.0849,6.006,5.8537,5.5538,0.0,0.0,0.0,0.0,0.0,0.0,0.0,0.0,0.0,0.0,0.0,0.0,0.0,0.0,0.0,0.0,0.0,0.0,0.0,0.0,0.0,0.0,0.0,0.0,0.0,0.0,0.0,1.5195,0.0,0.0,0.0,0.0,0.0,0.0,0.0,0.0,0.0,0.0,0.0,0.0,0.0,0.0,3.7187,4.0055,4.105,4.1629,0.0,0.0,4.1639,4.1403,4.0313,3.8956,0.0,0.0,0.0,0.0,0.0,0.0,0.0,0.0,0.0,0.0,0.0,0.0,0.0,0.0,0.0,0.0,0.0,0.0,0.0,0.0,0.0,0.0,0.0,0.0,0.0,0.0,0.0,0.0,0.0,0.0,0.0,0.0,0.0,0.0,0.0,0.0,0.0,0.0,0.0,0.0,0.0,0.0,0.0,0.0,0.0,0.0,0.0,0.0,0.0,0.0,0.0,0.0,0.0,0.0,4.7801,5.3977,5.7908,6.0624,6.2283,6.2589,6.1828,5.9978,5.6973,5.2934,0.0,0.0,0.0,0.0,0.0,0.0,0.0,0.0,0.0,0.0,0.0,0.0,0.0,0.0,0.0,0.0,0.0,0.0,0.0,0.0,0.0,0.0,0.0,0.0,0.0,0.0,0.0,0.0,0.0,0.0,0.0,0.0,0.0,0.0,0.0,0.0,0.0,0.0,0.0,0.0,0.0,3.9093,4.2588,4.4289,4.5131,0.0,4.5625,4.5665,4.4144,4.3386,4.2281,4.0226,0.0,0.0,0.0,0.0,0.0,0.0,0.0,0.0,0.0,0.0,0.0,0.0,0.0,0.0,0.0,0.0,0.0,0.0,0.0,0.0,0.0,0.0,0.0,0.0,0.0,0.0,0.0,0.0,0.0,0.0,0.0,0.0,0.0,0.0,0.0,0.0,0.0,0.0,0.0,0.0,0.0,0.0,0.0,0.0,0.0,0.0,0.0,0.0,0.0,0.0,0.0,0.0,0.0,4.9427,5.576,5.8672,6.0963,6.2654,6.2835,6.2003,6.0138,5.757,5.4133,0.0,0.0,0.0,0.0,0.0,0.0,0.0,0.0,0.0,0.0,0.0,0.0,0.0,0.0,0.0,0.0,0.0,0.0,0.0,0.0,0.0,0.0,0.0,0.0,0.0,0.0,0.0,0.0,2.3609,2.4463,2.4713,0.0,0.0,0.0,0.0,0.0,0.0,0.0,0.0,0.0,0.0,4.2575,4.5464,4.6848,0.0,0.0,4.8586,4.8157,4.6954,4.6269,4.5022,4.2517,4.0011,0.0,0.0,0.0,0.0,0.0,0.0,0.0,0.0,0.0,0.0,0.0,0.0,0.0,0.0,0.0,0.0,0.0,0.0,0.0,0.0,0.0,0.0,0.0,0.0,0.0,0.0,0.0,0.0,0.0,0.0,0.0,0.0,0.0,0.0,0.0,0.0,0.0,0.0,0.0,0.0,0.0,0.0,0.0,0.0,0.0,0.0,0.0,0.0,0.0,0.0,0.0,0.0,5.106,5.7257,5.9428,6.14,6.3182,6.3214,6.24,6.0747,5.8596,5.5654,0.0,0.0,0.0,0.0,0.0,0.0,0.0,0.0,0.0,0.0,0.0,0.0,0.0,0.0,0.0,0.0,0.0,0.0,0.0,0.0,0.0,0.0,0.0,0.0,0.0,0.0,0.0,0.0,2.6504,2.6868,2.6016,0.0,0.0,0.0,0.0,0.0,0.0,0.0,0.0,0.0,0.0,4.5981,4.8928,5.011,5.1026,5.2073,5.1812,5.1043,4.9654,4.8859,4.7521,4.4998,0.0,0.0,0.0,0.0,0.0,0.0,0.0,0.0,0.0,0.0,0.0,0.0,0.0,0.0,0.0,0.0,0.0,0.0,0.0,0.0,0.0,0.0,0.0,0.0,0.0,0.0,0.0,1.9399,0.0,0.0,1.6995,0.0,0.0,0.0,0.0,0.0,0.0,0.0,0.0,0.0,0.0,0.0,0.0,0.0,0.0,0.0,0.0,0.0,0.0,0.0,0.0,0.0,0.0,5.2786,5.8193,6.0415,6.2303,6.3903,6.3991,6.34,6.2156,6.0312,5.758,5.3758,0.0,0.0,0.0,0.0,0.0,0.0,0.0,0.0,0.0,0.0,0.0,0.0,0.0,0.0,0.0,0.0,0.0,0.0,0.0,0.0,0.0,0.0,0.0,0.0,0.0,0.0,2.9195,3.014,2.9864,0.0,0.0,0.0,0.0,0.0,0.0,0.0,0.0,0.0,4.3805,4.627,4.9079,5.2982,5.4382,5.5044,5.5519,5.548,5.4619,5.2215,5.1071,4.9787,0.0,0.0,0.0,0.0,0.0,0.0,0.0,0.0,0.0,0.0,0.0,0.0,0.0,0.0,0.0,0.0,0.0,0.0,0.0,0.0,0.0,0.0,0.0,0.0,0.0,0.0,0.0,2.4222,2.3539,0.0,0.0,0.0,0.0,0.0,0.0,0.0,0.0,0.0,0.0,0.0,3.5494,3.5796,0.0,0.0,0.0,0.0,0.0,0.0,0.0,0.0,0.0,0.0,0.0,0.0,5.4917,5.9988,6.2145,6.3756,6.4876,6.4743,6.411,6.2892,6.1241,5.7988,5.3008,0.0,0.0,0.0,0.0,0.0,0.0,0.0,0.0,0.0,0.0,0.0,0.0,0.0,0.0,0.0,0.0,0.0,0.0,0.0,0.0,0.0,0.0,0.0,0.0,0.0,2.8855,0.0,0.0,0.0,0.0,0.0,0.0,0.0,0.0,0.0,0.0,3.9905,4.4226,4.7977,5.0759,5.3368,5.6089,5.686,5.7351,0.0,0.0,0.0,0.0,0.0,0.0,0.0,0.0,0.0,0.0,0.0,0.0,0.0,0.0,3.8282,3.4649,3.4325,3.4613,3.4705,0.0,0.0,0.0,0.0,0.0,0.0,0.0,0.0,0.0,0.0,0.0,0.0,0.0,0.0,2.8333,2.7995,2.7313,0.0,0.0,0.0,0.0,0.0,0.0,0.0,0.0,3.7793,3.9424,4.0721,4.104,4.1405,0.0,4.2121,4.1239,0.0,0.0,0.0,0.0,0.0,0.0,0.0,0.0,5.7043,6.1806,6.3463,6.4719,6.5734,6.5632,6.4892,6.3572,6.1423,5.8098,5.3584,5.0434,4.6834,0.0,0.0,0.0,0.0,0.0,0.0,0.0,0.0,0.0,0.0,0.0,0.0,0.0,0.0,0.0,0.0,0.0,0.0,0.0,0.0,0.0,0.0,0.0,3.2565,0.0,0.0,0.0,0.0,0.0,0.0,0.0,0.0,0.0,4.0597,4.4575,4.8706,5.2048,5.4661,5.6949,5.893,0.0,0.0,0.0,0.0,0.0,0.0,0.0,5.5079,5.3706,5.2719,5.1553,4.991,4.8581,4.7699,4.7586,0.0,0.0,4.0696,4.0066,4.0394,4.058,4.1136,4.1701,4.2081,4.3135,4.432,0.0,0.0,0.0,0.0,3.1851,0.0,0.0,0.0,3.2633,3.2774,0.0,3.1769,0.0,0.0,0.0,0.0,3.3034,3.5683,0.0,0.0,4.2756,4.4806,4.6356,4.6893,4.7753,4.8866,4.9254,4.9686,4.9778,4.3985,0.0,0.0,0.0,0.0,0.0,0.0,5.9067,6.36,6.4463,6.5395,6.6531,6.6539,6.5829,6.4309,6.1074,5.8195,5.5636,5.2907,4.9724,4.601,4.2557,0.0,0.0,0.0,0.0,0.0,0.0,0.0,0.0,0.0,0.0,0.0,0.0,0.0,0.0,0.0,0.0,0.0,0.0,0.0,0.0,3.5409,0.0,0.0,0.0,0.0,0.0,0.0,0.0,0.0,0.0,4.6353,4.5672,4.9083,5.281,5.5946,0.0,0.0,0.0,0.0,6.2124,6.28,6.1845,6.0767,5.9864,5.8517,5.7321,5.6654,0.0,0.0,5.2578,5.2335,5.2285,5.2088,5.2214,5.1013,4.7015,4.65,4.6755,4.7007,4.7491,4.8022,4.8185,4.9339,5.0645,4.3766,0.0,0.0,0.0,0.0,3.745,3.7522,3.7527,3.7801,3.793,3.79,3.6788,0.0,0.0,0.0,0.0,0.0,0.0,4.3472,4.5487,4.7444,4.9163,5.0644,5.095,5.1676,5.2831,5.297,5.3384,5.3934,5.2788,5.137,4.9881,0.0,0.0,0.0,0.0,6.2278,6.4838,6.6483,6.7429,6.7752,6.7458,6.6542,6.5045,6.2766,6.072,5.8913,5.5888,5.2833,4.9807,4.6178,0.0,0.0,0.0,0.0,0.0,0.0,0.0,0.0,0.0,0.0,0.0,0.0,0.0,0.0,0.0,0.0,0.0,0.0,0.0,3.8123,3.9116,3.9654,0.0,0.0,0.0,0.0,0.0,0.0,0.0,0.0,0.0,5.3943,5.4883,5.639,0.0,0.0,6.2083,6.3645,6.387,6.4119,6.4769,6.3839,0.0,6.2448,6.1477,6.0546,5.9978,5.9185,5.8386,5.7581,5.7446,5.7367,5.7126,5.7126,5.684,5.602,5.3173,5.1313,5.1272,5.1867,5.2502,5.2809,5.4091,5.5448,5.0064,4.6346,4.3942,4.2643,4.2242,4.2211,4.2187,4.2191,4.2139,4.2242,4.2379,4.1149,4.0465,4.0208,3.9852,0.0,0.0,0.0,4.8505,5.046,5.1953,5.3369,5.4677,5.5309,5.6111,5.7077,5.7595,5.8083,5.8506,5.9621,5.932,5.7707,0.0,5.9058,6.1328,6.3165,6.5111,6.7092,6.8597,6.9403,6.958,6.8471,6.723,6.5924,6.3959,6.2185,6.0687,5.7882,5.5158,5.257,4.9221,4.5784,0.0,0.0,0.0,0.0,0.0,0.0,0.0,0.0,0.0,0.0,0.0,2.5156,2.6961,0.0,0.0,0.0,3.6375,3.9333,4.2351,4.2418,0.0,0.0,0.0,0.0,0.0,0.0,0.0,5.0568,5.3219,5.6076,5.9492,6.0085,6.0601,6.1882,6.3318,6.4595,6.5471,0.0,6.5562,6.5983,6.522,6.4562,6.4388,6.3714,6.301,6.2342,6.1851,6.1436,6.0985,6.0936,6.0852,6.0745,6.0741,6.0955,6.1274,5.9062,5.7009,5.6254,5.6516,5.699,5.7259,5.8372,5.9521,5.539,5.4403,5.0208,4.7881,4.6963,4.6673,4.6525,4.6476,4.5954,4.6031,4.6391,4.5116,4.4845,4.5406,4.5958,0.0,5.0092,5.1531,5.3241,5.5159,5.6323,5.7541,5.8757,5.9835,6.0745,6.1414,6.26,6.3201,6.3306,6.4602,6.535,6.5463,6.2866,6.2759,6.5023,6.6074,6.7668,6.9831,7.0593,7.12,7.1556,6.9539,6.7999,6.7003,6.493,6.3073,6.1478,5.9309,5.6996,5.4619,5.1745,4.8752,4.5617,0.0,0.0,0.0,0.0,0.0,0.0,0.0,0.0,0.0,0.0,0.0,0.0,0.0,0.0,3.864,4.202,0.0,4.5308,4.5522,0.0,0.0,0.0,4.6733,4.7355,4.9816,5.2282,5.4507,0.0,0.0,6.2941,6.4466,6.5138,6.4498,6.5852,6.6921,6.6986,6.6772,6.6628,6.6735,6.6372,6.6086,6.6091,6.5692,6.5142,6.445,6.3905,6.3787,6.3521,6.3467,6.3379,6.344,6.3588,6.38,6.3795,6.4121,6.3963,6.2037,6.1407,6.1309,6.1611,6.2464,6.329,5.8515,5.7713,5.576,5.3748,5.185,5.1361,5.1181,5.1128,5.0546,5.0243,5.0116,4.9806,4.9956,5.0498,5.1513,5.2638,5.3875,5.6164,5.7752,5.8885,6.0366,6.1817,6.314,6.3477,6.4047,6.4868,6.5158,6.5716,6.6485,6.6842,6.7761,6.9116,6.8516,6.7964,6.7532,6.9013,7.0048,7.0626,7.1355,7.1696,7.1556,7.0552,6.9574,6.8733,6.7175,6.5507,6.3791,6.1802,5.9519,5.678,5.4245,5.1528,4.8587,4.5267,0.0,0.0,0.0,0.0,0.0,0.0,0.0,0.0,0.0,3.2102,3.529,0.0,4.0877,0.0,4.6424,4.8678,4.9533,4.9227,0.0,0.0,5.0549,5.1263,5.2473,5.4669,5.6996,5.9396,6.1408,6.3307,6.5125,6.6618,6.7695,6.8056,6.7394,6.7117,6.7642,6.7692,6.784,6.834,6.8732,6.8926,6.8493,6.8467,6.8197,6.7869,6.7736,6.7602,6.7333,6.731,6.731,6.7337,6.7553,6.7762,6.7906,6.8313,6.8446,6.801,6.6228,6.4624,6.511,6.6192,6.7233,6.1361,6.081,5.9895,5.8734,5.7371,5.5262,5.4369,5.4316,5.3886,5.3549,5.3417,5.3524,5.4097,5.505,5.5965,5.7248,5.8911,6.0433,6.1716,6.2796,6.383,6.4844,6.5822,6.6276,6.6918,6.7733,6.7964,6.8487,6.9346,6.9354,6.9928,7.0996,7.1449,7.1234,7.0532,7.1414,7.1885,7.1885,7.2614,7.2738,7.2258,7.1763,7.0913,6.9675,6.8508,6.6942,6.4906,6.3041,6.0921,5.8545,5.6149,5.3754,5.1345,4.8275,4.5327,0.0,0.0,0.0,0.0,0.0,0.0,0.0,0.0,0.0,0.0,0.0,4.5429,4.8763,5.0643,5.2097,5.3095,5.2738,5.2797,5.3644,5.4746,5.579,5.6669,5.896,6.1089,6.2667,6.4537,6.6201,6.7451,6.8844,6.9958,7.0484,6.9751,6.9325,6.9663,6.9689,6.9747,7.0108,7.0403,7.0491,7.0164,7.0105,7.0026,6.9896,6.9764,6.9632,6.9473,6.9447,6.95,6.9632,6.9863,7.0125,7.0384,7.0634,7.0921,7.0873,7.0058,6.9073,6.8647,6.9242,6.9997,6.3823,6.3508,6.291,6.258,6.2288,5.8721,5.7096,5.6936,5.6694,5.6667,5.6799,5.7036,5.7943,5.9338,5.9917,6.1536,6.3864,6.4314,6.5271,6.663,6.7016,6.7495,6.8039,6.8912,6.9646,7.022,7.0644,7.1193,7.1887,7.187,7.1911,7.2043,7.2912,7.3376,7.3376,7.345,7.3475,7.3409,7.403,7.3997,7.3276,7.3018,7.2066,7.0379,6.9394,6.7857,6.5568,6.3698,6.1884,6.0003,5.7682,5.5603,5.3731,5.1187,4.859,0.0,4.3732,0.0,0.0,0.0,0.0,0.0,0.0,0.0,0.0,4.6591,5.0108,5.4075,5.4554,5.5079,5.6213,5.6041,5.6088,5.6762,5.8604,5.9947,6.0341,6.2763,6.4661,6.515,6.7279,6.8968,6.959,7.0856,7.1738,7.2002,7.1969,7.1969,7.2192,7.1821,7.1507,7.1639,7.148,7.1428,7.1534,7.1389,7.1211,7.1152,7.1115,7.0889,7.0954,7.0954,7.0998,7.1247,7.1559,7.1836,7.2019,7.2299,7.2504,7.2594,7.3189,7.3216,7.1887,7.1796,7.2142,6.5405,6.5088,6.4152,6.3672,6.3374,6.2404,6.1439,6.0514,6.0459,6.0811,6.1531,6.1922,6.2733,6.3716,6.4461,6.5255,6.599,6.7216,6.8394,6.9476,7.0463,7.1472,7.2288,7.2502,7.2544,7.2502,7.2566,7.2893,7.3444,7.3249,7.345,7.4024,7.4604,7.4892,7.4925,0.0,0.0,0.0,7.5025,7.476,7.403,7.3947,7.3101,7.1375,7.0568,0.0,6.6631,6.5158,6.3255,6.0712,5.8771,0.0,0.0,0.0,0.0,0.0,0.0,0.0,0.0,0.0,0.0,0.0,4.8428,4.8456,4.7807,5.1892,5.5165,5.6471,5.7423,5.8274,5.8955,5.9224,5.9755,6.0871,6.1997,6.2893,6.3456,6.5824,6.7593,6.7948,6.9706,7.1012,7.1161,7.1631,7.2176,7.2755,7.2912,7.3144,7.3666,7.2697,7.201,7.1952,7.2249,7.2659,7.3251,7.3142,7.3043,7.3149,7.3328,7.3371,7.3371,7.3404,7.3472,7.3774,7.4023,7.427,7.4539,7.4815,7.5008,7.5008,7.5964,7.6113,7.3839,7.4016,7.4685,6.8139,6.7718,6.7049,6.6602,0.0,6.6205,6.5826,6.513,6.3506,6.3312,6.424,6.4604,6.564,6.7134,6.7702,6.8696,6.9982,7.0757,7.1532,7.2395,7.2994,7.3617,7.4182,7.4182,7.4252,7.4354,7.4123,7.4273,7.4753,7.4433,7.4555,7.5139,7.5345,7.5558,7.5794,7.6125,7.6125,7.5794,7.5489,7.5124,7.476,7.4395,7.3591,7.2382,7.1499,0.0,0.0,0.0,0.0,0.0,0.0,0.0,0.0,0.0,0.0,5.2678,5.1298,5.0502,5.0452,5.0447,5.091,5.1911,5.4026,5.454,5.2729,5.6006,5.8422,5.9131,6.0428,6.148,6.207,6.25,6.3216,6.4314,6.5415,6.6309,6.7034,6.8738,6.9943,7.0223,7.1457,7.2341,7.2349,7.2779,7.321,7.3575,7.3641,7.3799,7.4064,7.36,7.3103,7.3103,7.3368,7.374,7.4105,7.4297,7.4513,7.4796,7.4972,7.5289,7.574,7.5832,7.6006,7.6433,7.6676,7.6903,7.7284,7.7507,7.7554,7.7635,7.8189,7.8396,7.704,7.714,7.7402,7.0603,7.0137,6.9811,6.96,6.9388,6.9388,6.9489,6.9455,6.6534,0.0,0.0,6.711,6.8319,7.0111,7.0419,7.1696,7.3662,7.3787,7.424,7.4954,7.5019,7.5197,7.5474,7.5496,7.5646,7.5934,7.5527,7.5489,7.5794,7.5383,7.5294,7.5623,7.5597,7.5852,7.6258,7.6291,7.6291,7.6291,7.5761,7.5422,7.529,7.4693,7.3972,7.3119,7.2266,7.0847,6.8778,6.708,6.5043,6.2684,6.1412,6.0003,5.8411,5.7315,5.6397,5.5651,5.4524,5.3993,5.4268,5.4382,5.4965,5.6047,5.8667,5.9461,5.7573,5.9453,6.1019,6.1792,6.3233,6.4449,6.5237,6.5789,6.6564,6.7677,6.8724,6.9559,7.0165,7.1218,7.192,7.2101,7.2862,7.3426,7.3384,7.3841,7.4247,7.4163,7.413,7.4221,7.4247,7.4231,7.4164,7.4164,7.4506,7.4881,7.493,7.5305,7.5704,7.6298,7.6474,7.6857,7.7567,7.7868,7.8128,7.8582,7.8884,7.906,7.9523,7.9568,7.9717,7.974,8.0083,8.0332,8.0367,8.0324,8.0108,7.0986,7.0706,7.0622,7.0596,7.0564,7.0564,7.104,7.1721,7.0406,7.0293,7.1052,7.1546,7.2203,7.2943,7.3368,7.3888,7.4439,7.4891,7.5582,7.6485,7.6677,7.7089,7.7725,7.776,7.745,7.7016,7.6904,7.6725,7.6345,7.5852,7.5537,7.539,7.5506,7.5852,7.6258,7.6291,7.6291,7.6291,7.6225,7.586,7.5323,7.519,7.4494,7.3152,7.2762,7.1501,6.9307,6.7888,6.62,6.4106,6.2544,6.1355,6.0653,5.9187,5.8313,5.8137,5.7189,5.6835,5.7349,5.7915,5.9225,6.1359,6.2644,6.2512,6.0777,6.2379,6.3795,6.4349,6.5304,6.6493,6.8136,6.8842,6.9811,7.1286,7.1715,7.2002,7.2328,7.2841,7.3307,7.3511,7.4244,7.4571,7.4373,7.4456,7.4448,7.4272,7.4297,7.4297,7.4506,7.4556,7.4556,7.4647,7.5314,7.5798,7.5998,7.665,7.7226,7.7684,7.7905,7.824,7.89,7.9029,7.9265,7.9695,7.989,8.006,8.045,8.0434,8.064,8.0841,8.1445,8.1969,8.1983,8.2492,8.2475,7.2977,7.2843,7.2785,7.2709,7.2634,7.2911,7.362,7.4452,7.4056,7.3491,7.3047,7.3363,7.4037,7.491,7.5411,7.6045,7.6772,7.709,7.7572,7.8074,7.8178,7.8409,7.8726,7.8622,7.835,7.7958,7.7698,7.7345,7.6873,7.6368,7.6032,7.5906,7.5973,7.6063,7.6291,7.6291,7.6291,7.6291,7.596,7.5621,7.529,7.4892,7.4395,7.3707,7.2932,7.1753,7.0174,6.8576,6.6749,6.46,6.3529,6.257,6.1657,6.0998,6.0723,6.0693,6.0445,6.0503,6.1077,6.1886,6.2965,6.4259,6.5643,6.6328,6.5884,6.5746,6.6217,6.7444,6.8337,6.9589,7.1227,7.1794,7.2568,7.3847,7.3854,7.3976,7.4428,7.4599,7.4676,7.4719,7.4929,7.5058,7.4845,7.4796,7.4771,7.4647,7.4647,7.4697,7.4829,7.5312,7.5571,7.5505,7.5947,7.6539,7.7033,7.7616,7.8307,7.9036,7.9307,7.9764,8.0488,8.0778,8.1078,8.1579,8.1745,8.1989,8.2294,8.2394,8.2459,8.2502,8.2842,8.3189,8.3302,8.3614,8.3393,7.4672,7.4614,7.4655,7.4655,7.468,7.5112,7.5865,7.6634,7.6668,7.6073,7.5056,7.502,7.564,7.6652,7.7095,7.7825,7.8649,7.887,7.9089,7.9271,7.9271,7.9271,7.9271,7.913,7.8926,7.8637,7.8258,7.7807,7.7345,7.6805,7.636,7.6102,7.5921,7.5827,7.5827,7.5827,7.5827,7.5794,7.5297,7.5124,7.5257,7.4594,7.4196,7.4138,7.3135,7.2069,7.1043,6.9495,6.771,6.5719,6.499,6.4135,6.3067,6.2924,6.2933,6.296,6.3127,6.3666,6.4569,6.5573,6.6425,6.7093,6.8642,6.9955,7.0486,6.9571,6.9295,7.0556,7.1419,7.2534,7.3753,7.4275,7.482,7.5663,7.5629,7.5709,7.6186,7.6124,7.5876,7.5638,7.5518,7.5373,7.5164,7.5067,7.5042,7.4993,7.5042,7.5091,7.5231,7.6023,7.6534,7.6852,7.7012,7.7555,7.8366,7.8856,7.9501,8.0493,8.0669,8.1158,8.1968,8.2474,8.2769,8.3112,8.3388,8.3491,8.3833,8.3933,8.3883,8.389,8.3932,8.4003,8.4003,8.406,8.3968,7.4968,7.4993,7.5155,7.5604,7.6194,7.6496,7.6907,7.7377,7.7654,7.7932,7.7964,7.7749,7.7835,7.8364,7.8579,7.8841,7.913,7.917,7.9311,7.9526,7.9546,7.9546,7.9546,7.9526,7.9307,7.8906,7.8637,7.8258,7.7785,7.7099,7.6216,7.5192,7.4639,7.4428,7.4428,7.4428,7.4428,7.4395,7.4329,7.4627,7.5223,7.4561,7.4196,7.4196,7.3562,7.2756,7.1811,7.1088,6.9985,6.8441,6.7368,6.6589,6.5882,6.5021,6.4528,6.4497,6.4465,6.5231,6.7195,6.8248,6.9468,7.1167,7.2033,7.2837,7.3368,7.3673,7.3696,7.3685,7.3956,7.4701,7.5733,7.6022,7.6487,7.7132,7.7191,7.7286,7.7254,7.6952,7.6611,7.6425,7.6111,7.5862,7.5398,7.5277,7.5204,7.514,7.5262,7.5422,7.5729,7.6588,7.7635,7.8487,7.904,7.9376,7.9919,8.0611,8.1104,8.1735,8.2049,8.2405,8.2893,8.324,8.3489,8.3654,8.3861,8.3989,8.4173,8.4257,8.432,8.4403,8.4465,8.4507,8.4527,8.4507,8.4305,7.5494,7.5695,7.6064,7.6519,7.7042,7.731,7.7719,7.8173,7.8406,7.8678,7.8926,7.8906,7.8926,7.8967,7.9191,7.9367,7.9447,7.9566,7.9665,7.9763,7.9799,7.9822,7.9919,7.9684,7.9546,7.9431,7.9008,7.8518,7.7923,7.6793,7.5723,7.5018,7.4473,7.4196,7.4196,7.4196,7.4196,7.4196,7.4196,7.4362,7.4561,7.4362,7.4196,7.4171,7.3815,7.3119,7.2214,7.1564,7.0604,6.9265,6.862,6.8143,6.7735,6.7575,6.7557,6.7578,6.8132,6.8943,6.9973,7.0781,7.1761,7.2969,7.3851,7.4696,7.5546,7.6275,7.6747,7.675,7.6231,7.6344,7.7523,7.7797,7.8021,7.8385,7.8392,7.8265,7.8116,7.7575,7.7109,7.6918,7.6449,7.6051,7.5781,7.5638,7.559,7.559,7.5733,7.5899,7.6332,7.7475,7.8554,7.9453,8.0431,8.1155,8.1353,8.1643,8.2164,8.2613,8.2893,8.3204,8.3502,8.3819,8.401,8.4152,8.42,8.4284,8.4445,8.4465,8.4507,8.4589,8.461,8.461,8.461,8.461,8.4486,7.6111,7.6368,7.6896,7.7355,7.7828,7.8331,7.8721,7.9113,7.9537,7.9666,7.963,7.9886,7.9799,7.9467,7.9586,7.97,7.972,7.9822,7.988,7.9899,7.9938,8.0054,8.015,7.9935,7.9822,7.9861,7.9291,7.8602,7.7858,7.6473,7.547,7.4993,7.4473,7.4196,7.4196,7.4196,7.4196,7.4196,7.4196,7.4196,7.4196,7.4196,7.4196,7.4171,7.3917,7.3456,7.2758,7.2222,7.1466,7.0475,7.007,6.9761,6.9461,6.9728,6.9916,7.0151,7.1047,7.187,7.2388,7.3031,7.3804,7.4752,7.5638,7.6402,7.7213,7.8014,7.8643,7.8861,7.8095,7.7984,7.8744,7.9008,7.9069,7.9191,7.9069,7.8906,7.8678,7.8151,7.7698,7.7323,7.6805,7.6356,7.6239,7.6075,7.5994,7.6228,7.6275,7.6461,7.7068,7.8305,7.9568,8.0056,8.1579,8.2496,8.2476,8.2578,8.2893,8.324,8.3546,8.374,8.3989,8.4215,8.4361,8.4382,8.4527,8.4569,8.4548,8.4569,8.4589,8.4589,8.461,8.461,8.461,8.461,8.461,7.6748,7.6861,7.7566,7.8143,7.8623,7.9571,8.0117,8.0358,8.1277,8.1307,8.0652,8.0852,8.0574,7.9841,7.9841,7.9861,7.988,7.9935,7.9899,7.9919,8.0092,8.0188,8.0188,8.0169,8.0169,8.0092,7.9451,7.8497,7.73,7.6194,7.547,7.4993,7.4473,7.4196,7.4196,7.4196,7.4196,7.4196,7.4196,7.4196,7.4196,7.4196,7.4196,7.4171,7.3943,7.3789,7.3646,7.3382,7.3038,7.2711,7.204,7.161,7.1278,7.096,7.1077,7.1572,7.2359,7.3251,7.433,7.4887,7.5754,7.7043,7.7606,7.8153,7.8413,7.8835,7.9211,7.9526,7.936,7.9281,7.9196,7.9251,7.9231,7.9251,7.9231,7.913,7.8911,7.8678,7.8237,7.7676,7.7278,7.6918,7.6541,7.6472,7.6553,7.6702,7.6771,7.6952,7.7607,7.9004,8.0102,8.095,8.2124,8.3358,8.3195,8.3284,8.3524,8.3762,8.3968,8.4236,8.432,8.4424,8.4507,8.4569,8.4589,8.4589,8.4589,8.461,8.4589,8.461,8.461,8.461,8.461,8.461,8.461,7.7509,7.8036,7.891,7.9494,7.9855,8.0824,8.1287,8.1424,8.1876,8.1671,8.1085,8.1038,8.0649,7.988,7.988,7.988,7.9899,8.0015,8.0092,8.0111,8.0302,8.0452,8.0545,8.032,8.0188,8.0092,7.9391,7.8308,7.6975,7.6077,7.547,7.4993,7.4473,7.4196,7.4196,7.4196,7.4196,7.4196,7.4196,7.4196,7.4196,7.4196,7.4196,7.4196,7.412,7.3968,7.3797,7.3661,7.3448,7.3155,7.3082,7.3002,7.2944,7.3224,7.3558,7.3952,7.4708,7.5374,7.5982,7.6606,7.7285,7.8082,7.8455,7.8823,7.915,7.9367,7.9546,7.9724,7.9783,7.9724,7.9684,7.9665,7.9665,7.9645,7.9645,7.9566,7.9347,7.9008,7.8637,7.8237,7.7785,7.7244,7.7054,7.6941,7.7031,7.7233,7.7411,7.7698,7.8248,7.9352,8.0415,8.1275,8.2411,8.3401,8.3904,8.3925,8.4053,8.4173,8.432,8.4424,8.4527,8.4527,8.4589,8.4589,8.4589,8.461,8.461,8.461,8.461,8.461,8.461,8.461,8.461,8.461,8.461,7.865,7.9296,8.0264,8.0748,8.0982,8.1952,8.2354,8.241,8.2801,8.2397,8.1577,8.1434,8.0899,8.0042,7.9957,7.9996,7.9996,8.013,8.0226,8.032,8.0508,8.0638,8.0638,8.0415,8.0226,7.9957,7.9069,7.7945,7.6839,7.596,7.5373,7.4993,7.4448,7.4196,7.4196,7.4196,7.4196,7.4196,7.4196,7.4196,7.4196,7.4196,7.4196,7.4221,7.4272,7.4247,7.4077,7.4077,7.4019,7.3884,7.4037,7.4163,7.4256,7.4902,7.5388,7.5676,7.6357,7.6907,7.7266,7.7772,7.8322,7.8741,7.8987,7.9307,7.9546,7.9645,7.9743,7.9861,7.988,7.988,7.988,7.988,7.988,7.988,7.988,7.9802,7.9586,7.9327,7.8967,7.8574,7.8074,7.7663,7.75,7.7487,7.7619,7.785,7.8087,7.8385,7.8825,7.9658,8.06,8.1565,8.2531,8.3487,8.4071,8.432,8.4341,8.4403,8.4424,8.4548,8.461,8.461,8.461,8.461,8.461,8.461,8.461,8.461,8.461,8.461,8.461,8.461,8.461,8.461,8.461,8.0158,8.0399,8.146,8.1825,8.1937,8.2832,8.3361,8.3412,8.3983,8.3289,8.2005,8.2096,8.1223,8.0207,8.0111,8.0207,8.0226,8.0264,8.0339,8.0508,8.0693,8.0693,8.0545,8.0471,8.0169,7.9724,7.8532,7.7509,7.6702,7.5794,7.5204,7.4944,7.4448,7.4196,7.4196,7.4196,7.4196,7.4196,7.4196,7.4196,7.4196,7.4196,7.4221,7.4247,7.4423,7.4573,7.4606,7.4606,7.4647,7.487,7.4944,7.5115,7.5325,7.5828,7.6171,7.6496,7.7109,7.7685,7.8116,7.8469,7.8803,7.913,7.9427,7.9566,7.9661,7.9763,7.9861,7.9916,7.988,7.988,7.988,7.988,7.988,7.988,7.988,7.9802,7.9645,7.9602,7.9347,7.8761,7.8406,7.8138,7.8023,7.8109,7.8287,7.8511,7.8741,7.8926,7.9186,7.9919,8.0896,8.1724,8.2501,8.3295,8.3998,8.4589,8.4589,8.4589,8.4569,8.461,8.461,8.461,8.461,8.461,8.461,8.461,8.461,8.461,8.461,8.461,8.461,8.461,8.461,8.461,8.461,7.9782,8.0039,8.1504,8.2119,8.2226,8.3019,8.3397,8.3345,8.3147,8.2397,8.1616,8.1591,8.1077,8.0329,8.032,8.0489,8.0601,8.0619,8.0638,8.0712,8.0894,8.0876,8.0675,8.0415,7.9727,7.8767,7.7988,7.7154,7.6334,7.5638,7.5106,7.4722,7.4372,7.4221,7.4196,7.4196,7.4196,7.4196,7.4196,7.4196,7.4196,7.4196,7.4272,7.4448,7.4581,7.4722,7.5067,7.4968,7.4919,7.5018,7.5301,7.5757,7.6264,7.6656,7.7054,7.7421,7.7958,7.8385,7.8699,7.9028,7.9307,7.9487,7.9665,7.9783,7.9818,7.9841,7.988,7.988,7.988,7.988,7.988,7.988,7.988,7.988,7.988,7.9861,7.9783,7.97,7.9427,7.911,7.8947,7.8829,7.8823,7.8864,7.8906,7.8987,7.9191,7.9407,7.9558,7.9894,8.046,8.1248,8.2112,8.2933,8.3646,8.4217,8.4431,8.4538,8.461,8.4431,8.4431,8.4431,8.4467,8.4538,8.4538,8.461,8.461,8.461,8.461,8.461,8.461,8.461,8.461,8.461,8.461,8.0167,8.0329,8.1703,8.2338,8.2374,8.2954,8.3172,8.3137,8.2671,8.2027,8.1493,8.1483,8.1074,8.0502,8.0527,8.0675,8.0803,8.0858,8.0858,8.0821,8.0912,8.0858,8.0619,8.0092,7.9311,7.8287,7.7641,7.6929,7.6111,7.5494,7.4993,7.4597,7.4322,7.4196,7.4196,7.4196,7.4196,7.4196,7.4196,7.4247,7.4322,7.4347,7.4473,7.4697,7.4821,7.5033,7.5422,7.5431,7.5407,7.5504,7.5852,7.6403,7.6997,7.7377,7.7763,7.8151,7.8553,7.8906,7.915,7.9407,7.9625,7.974,7.9857,7.988,7.988,7.988,7.988,7.988,7.988,7.988,7.988,7.988,7.988,7.988,7.988,7.988,7.9861,7.9783,7.9606,7.9427,7.9311,7.9291,7.9231,7.9291,7.9331,7.9387,7.9546,7.9684,7.9759,7.9838,8.036,8.0863,8.147,8.2326,8.3274,8.3789,8.4217,8.4431,8.461,8.4289,8.411,8.4003,8.4003,8.4146,8.4182,8.4538,8.461,8.461,8.461,8.461,8.461,8.461,8.461,8.461,8.461,8.1025,8.1207,8.2063,8.2411,8.2411,8.2622,8.268,8.2699,8.2555,8.2105,8.1621,8.1496,8.1191,8.0672,8.073,8.0821,8.084,8.0985,8.0985,8.0821,8.0785,8.0656,8.0266,7.957,7.8844,7.8138,7.7465,7.6771,7.6041,7.5349,7.4845,7.4548,7.4297,7.4196,7.4196,7.4196,7.4196,7.4196,7.4221,7.4347,7.4548,7.4631,7.4722,7.4993,7.5204,7.5446,7.5757,7.6041,7.6192,7.6239,7.6622,7.7087,7.7531,7.7988,7.8364,7.8657,7.9008,7.9291,7.9526,7.9606,7.9684,7.9841,7.9896,7.988,7.988,7.988,7.988,7.988,7.988,7.988,7.988,7.988,7.988,7.988,7.988,7.988,7.988,7.988,7.9763,7.9681,7.9621,7.9526,7.9331,7.9487,7.9566,7.9661,7.9779,7.9822,7.9861,7.9968,8.0272,8.0649,8.1041,8.1648,8.2524,8.3004,8.3397,8.3575,8.386,8.3753,8.3575,8.3504,8.3361,8.3504,8.386,8.4253,8.4503,8.4431,8.4538,8.461,8.461,8.461,8.461,8.461,8.461,8.0529,8.0734,8.1545,8.1923,8.1906,8.1944,8.2018,8.191,8.1371,8.1138,8.0886,8.0981,8.0964,8.073,8.0912,8.1003,8.1003,8.1056,8.0985,8.0785,8.0638,8.0283,7.9747,7.9089,7.849,7.7958,7.7266,7.6519,7.5828,7.5286,7.4771,7.4322,7.4247,7.4196,7.4196,7.4196,7.4196,7.4221,7.4398,7.4498,7.4622,7.4829,7.4993,7.5204,7.547,7.5828,7.6275,7.685,7.7054,7.6964,7.7367,7.7828,7.8258,7.8539,7.8885,7.9246,7.9407,7.9586,7.9743,7.9802,7.9841,7.988,7.988,7.988,7.988,7.988,7.988,7.988,7.988,7.988,7.988,7.988,7.988,7.988,7.988,7.988,7.988,7.988,7.9861,7.9857,7.9802,7.9743,7.9724,7.9724,7.9783,7.9802,7.9841,7.988,7.988,7.9916,8.0094,8.0292,8.0649,8.1113,8.1648,8.2183,8.2504,8.2611,8.279,8.2968,8.2897,8.2861,8.2683,8.2576,8.3182,8.3646,8.3932,8.4075,8.4289,8.4503,8.461,8.461,8.461,8.461,8.461,8.0396,8.0544,8.1086,8.1124,8.0926,8.1252,8.1253,8.0965,8.0857,8.0748,8.0767,8.0858,8.0912,8.093,8.1075,8.1074,8.1074,8.1074,8.093,8.0601,8.0188,7.9747,7.9331,7.8823,7.8343,7.785,7.7132,7.6427,7.5757,7.5237,7.4722,7.4297,7.4196,7.4196,7.4221,7.4322,7.4372,7.4423,7.4622,7.4796,7.4919,7.5067,7.5334,7.559,7.5899,7.6322,7.7031,7.7676,7.7915,7.7872,7.8066,7.8385,7.8803,7.9069,7.9327,7.9586,7.97,7.9763,7.9861,7.988,7.988,7.988,7.988,7.988,7.988,7.988,7.988,7.988,7.988,7.988,7.988,7.988,7.988,7.988,7.988,7.988,7.988,7.988,7.988,7.988,7.988,7.988,7.988,7.988,7.988,7.988,7.9861,7.988,7.988,7.988,7.9916,8.0113,8.0256,8.0684,8.1077,8.1541,8.1898,8.1969,8.1826,8.2005,8.204,8.2076,8.1933,8.1898,8.2469,8.2968,8.3289,8.3682,8.4075,8.4289,8.4467,8.4589,8.4554,8.461,8.461,8.0473,8.0456,8.064,8.0244,7.9774,8.0424,8.0459,8.0169,8.0568,8.093,8.1056,8.1074,8.1056,8.1074,8.1111,8.1074,8.1074,8.1074,8.0803,8.0358,7.9747,7.9251,7.915,7.8657,7.8258,7.7807,7.7166,7.638,7.5757,7.5237,7.4722,7.4347,7.4221,7.4247,7.4347,7.4498,7.4656,7.4672,7.4895,7.5106,7.5277,7.5422,7.5686,7.6135,7.6622,7.7122,7.7828,7.8364,7.8637,7.8713,7.8678,7.8885,7.9231,7.9487,7.9641,7.9645,7.9783,7.9861,7.988,7.988,7.988,7.988,7.988,7.988,7.988,7.988,7.988,7.988,7.988,7.988,7.988,7.988,7.988,7.988,7.988,7.988,7.988,7.988,7.988,7.988,7.988,7.988,7.988,7.988,7.988,7.988,7.988,7.988,7.988,7.988,7.988,7.9951,8.0078,8.0221,8.0577,8.0934,8.1255,8.1434,8.1077,8.1041,8.1041,8.1041,8.1041,8.1184,8.1684,8.2183,8.2667,8.3111,8.3575,8.4003,8.411,8.434,8.4554,8.4589,8.461,8.046,8.0026,8.0062,7.9645,7.9012,7.9119,7.9499,7.9897,8.0097,8.0549,8.1002,8.1074,8.1074,8.1074,8.1074,8.1074,8.1074,8.1038,8.0785,8.0226,7.9531,7.913,7.8885,7.8385,7.8023,7.7698,7.6986,7.6275,7.5733,7.5228,7.4722,7.4322,7.4423,7.4531,7.4548,7.4771,7.4919,7.4944,7.5131,7.5398,7.5662,7.5852,7.6182,7.6679,7.7377,7.8001,7.8427,7.8844,7.915,7.9327,7.9367,7.9387,7.9507,7.9684,7.9783,7.9802,7.9841,7.988,7.988,7.988,7.988,7.988,7.988,7.988,7.988,7.988,7.988,7.988,7.988,7.988,7.988,7.988,7.988,7.988,7.988,7.988,7.988,7.988,7.988,7.988,7.988,7.988,7.988,7.988,7.988,7.988,7.988,7.988,7.988,7.988,7.988,7.988,7.9951,8.0078,8.0185,8.0451,8.0649,8.0863,8.0577,8.0399,8.0399,8.0363,8.0435,8.0613,8.0863,8.1398,8.1969,8.229,8.2683,8.3182,8.3718,8.4003,8.4217,8.4396,8.461,8.0514,7.9933,7.9897,7.9209,7.8303,7.8521,7.8955,7.9354,7.9752,8.0368,8.0966,8.1074,8.1074,8.1074,8.1074,8.1074,8.1021,8.0876,8.0509,7.9999,7.9416,7.9049,7.8699,7.8237,7.7906,7.7741,7.6976,7.6309,7.5852,7.5398,7.4935,7.4622,7.4722,7.4771,7.4796,7.5042,7.5179,7.5349,7.5566,7.5852,7.6205,7.6368,7.6828,7.7377,7.8074,7.8574,7.9064,7.9266,7.9507,7.9665,7.9759,7.9759,7.9759,7.9857,7.988,7.988,7.988,7.988,7.988,7.988,7.988,7.988,7.988,7.988,7.988,7.988,7.988,7.988,7.988,7.988,7.988,7.988,7.988,7.988,7.988,7.988,7.988,7.988,7.988,7.988,7.988,7.988,7.988,7.988,7.988,7.988,7.988,7.988,7.988,7.988,7.988,7.988,7.988,7.9916,7.9916,7.9987,8.0058,8.0201,8.0165,8.0058,8.0058,8.0023,7.9951,8.0201,8.047,8.0756,8.1255,8.1541,8.1933,8.254,8.3075,8.3504,8.3896,8.4146,8.4431,8.0567,7.9716,7.9716,7.8774,7.7579,7.8159,7.8593,7.8847,7.9571,8.0368,8.0966,8.1074,8.1074,8.1074,8.1074,8.1074,8.1021,8.0693,8.0303,7.9925,7.9416,7.9049,7.8657,7.8258,7.7993,7.7828,7.7009,7.6438,7.6088,7.5686,7.5301,7.5091,7.5091,7.5091,7.5115,7.5301,7.5542,7.5733,7.6041,7.6391,7.6805,7.6929,7.7443,7.8138,7.8616,7.9023,7.9407,7.9586,7.9704,7.9861,7.988,7.988,7.988,7.988,7.988,7.988,7.988,7.988,7.988,7.988,7.988,7.988,7.988,7.988,7.988,7.988,7.988,7.988,7.988,7.988,7.988,7.988,7.988,7.988,7.988,7.988,7.988,7.988,7.988,7.988,7.988,7.988,7.988,7.988,7.988,7.988,7.988,7.988,7.988,7.988,7.988,7.988,7.988,7.988,7.988,7.988,7.988,7.988,7.988,7.9899,7.9899,7.988,7.988,7.988,8.013,8.0435,8.0577,8.0791,8.1291,8.1933,8.2326,8.2647,8.3182,8.386,8.4146,8.0259,7.8919,7.8919,7.7977,7.6799,7.7362,7.8159,7.8774,7.9607,8.0368,8.1038,8.1074,8.1074,8.1074,8.1074,8.1074,8.1021,8.0675,8.0358,8.0018,7.9531,7.9089,7.8823,7.8448,7.825,7.7971,7.7323,7.6782,7.6438,7.6111,7.5747,7.5422,7.5494,7.5518,7.5494,7.5686,7.597,7.6158,7.6507,7.6839,7.7233,7.7632,7.8031,7.8726,7.911,7.9407,7.9566,7.9743,7.9861,7.988,7.988,7.988,7.988,7.988,7.988,7.988,7.988,7.988,7.988,7.988,7.988,7.988,7.988,7.988,7.988,7.988,7.988,7.988,7.988,7.988,7.988,7.988,7.988,7.988,7.988,7.988,7.988,7.988,7.988,7.988,7.988,7.988,7.988,7.988,7.988,7.988,7.988,7.988,7.988,7.988,7.988,7.988,7.988,7.988,7.988,7.988,7.988,7.988,7.9899,7.9919,7.9919,7.9899,7.988,7.9938,7.9919,8.0058,8.0185,8.0256,8.0577,8.1184,8.147,8.1755,8.2362,8.3004,8.3539,8.0386,7.9354,7.9318,7.8629,7.7724,7.7941,7.8557,7.9281,7.9752,8.0368,8.0893,8.1074,8.1074,8.1074,8.1074,8.1074,8.0985,8.0675,8.0396,8.0111,7.9684,7.9271,7.9069,7.8741,7.8637,7.8469,7.7988,7.7456,7.7031,7.6645,7.6334,7.6148,7.6135,7.6041,7.6017,7.6275,7.653,7.6714,7.7031,7.7421,7.7915,7.8364,7.8823,7.9206,7.9447,7.9625,7.9743,7.9802,7.988,7.988,7.988,7.988,7.988,7.988,7.988,7.988,7.988,7.988,7.988,7.988,7.988,7.988,7.988,7.988,7.988,7.988,7.988,7.988,7.988,7.988,7.988,7.988,7.988,7.988,7.988,7.988,7.988,7.988,7.988,7.988,7.988,7.988,7.988,7.988,7.988,7.988,7.988,7.988,7.988,7.988,7.988,7.988,7.988,7.988,7.988,7.988,7.988,7.988,7.9899,7.9919,7.9996,7.9996,8.0035,8.0073,8.0015,7.9938,7.9916,8.0058,8.0256,8.047,8.0899,8.1327,8.1684,8.2148,8.2718,8.0658,7.9897,7.9897,7.9426,7.8774,7.8883,7.9281,7.9861,8.0114,8.0513,8.1038,8.1074,8.1074,8.1074,8.1074,8.1074,8.1056,8.0712,8.0508,8.0283,7.9861,7.9526,7.9331,7.911,7.8911,7.887,7.8761,7.8364,7.7685,7.731,7.7087,7.6884,7.6736,7.6679,7.6702,7.6828,7.7099,7.7345,7.7597,7.8109,7.8699,7.911,7.9407,7.9606,7.9625,7.9724,7.9861,7.988,7.988,7.988,7.988,7.988,7.988,7.988,7.988,7.988,7.988,7.988,7.988,7.988,7.988,7.988,7.988,7.988,7.988,7.988,7.988,7.988,7.988,7.988,7.988,7.988,7.988,7.988,7.988,7.988,7.988,7.988,7.988,7.988,7.988,7.988,7.988,7.988,7.988,7.988,7.988,7.988,7.988,7.988,7.988,7.988,7.988,7.988,7.988,7.988,7.988,7.988,7.9919,7.9938,8.0054,8.015,8.0188,8.0226,8.0092,8.0015,7.9957,7.988,8.0023,8.0292,8.0577,8.0791,8.097,8.147,8.2112,8.0658,7.9897,7.9897,7.9426,7.8919,7.9462,7.9771,8.0006,8.064,8.0984,8.1074,8.1074,8.1074,8.1074,8.1074,8.1074,8.1003,8.0858,8.0712,8.0564,8.013,7.9861,7.9763,7.9351,7.9291,7.9271,7.9191,7.8761,7.8265,7.8052,7.7772,7.7465,7.7389,7.7323,7.7189,7.7399,7.7531,7.785,7.8258,7.8782,7.9327,7.9487,7.9645,7.9783,7.9841,7.9841,7.988,7.988,7.988,7.988,7.988,7.988,7.988,7.988,7.988,7.988,7.988,7.988,7.988,7.988,7.988,7.988,7.988,7.988,7.988,7.988,7.988,7.988,7.988,7.988,7.988,7.988,7.988,7.988,7.988,7.988,7.988,7.988,7.988,7.988,7.988,7.988,7.988,7.988,7.988,7.988,7.988,7.988,7.988,7.988,7.988,7.988,7.988,7.988,7.988,7.988,7.988,7.988,7.9957,7.9996,8.0169,8.0302,8.0358,8.0358,8.0226,8.0092,7.9996,7.9938,7.9899,8.0023,8.0256,8.0165,8.0023,8.072,8.147,8.0911,8.0585,8.0567,8.0404,8.0151,8.0423,8.0567,8.0658,8.0929,8.1074,8.1074,8.1074,8.1074,8.1074,8.1074,8.1074,8.1075,8.093,8.0803,8.0803,8.0433,8.0226,8.0207,8.0054,7.9938,7.9727,7.9708,7.9546,7.9028,7.8574,7.8237,7.8001,7.7937,7.7858,7.7793,7.8116,7.8308,7.8595,7.8906,7.9286,7.9582,7.972,7.9802,7.988,7.988,7.988,7.988,7.988,7.988,7.988,7.988,7.988,7.988,7.988,7.988,7.9899,8.0015,8.0015,7.9919,7.9899,7.9899,7.988,7.988,7.988,7.988,7.988,7.988,7.988,7.988,7.988,7.988,7.988,7.988,7.988,7.988,7.988,7.988,7.988,7.988,7.988,7.988,7.988,7.988,7.988,7.988,7.988,7.988,7.988,7.988,7.988,7.988,7.988,7.988,7.988,7.988,7.988,7.988,7.9919,8.0054,8.015,8.0339,8.0471,8.0527,8.0545,8.0452,8.0302,8.0111,7.9957,7.9899,7.988,7.9916,7.988,7.9916,8.0023,8.0899,8.0893,8.1074,8.1074,8.1074,8.1074,8.1074,8.1074,8.1074,8.1074,8.1074,8.1074,8.1074,8.1074,8.1074,8.1074,8.1074,8.1093,8.0967,8.0912,8.0839,8.0693,8.0564,8.0508,8.0489,8.0339,8.0207,8.0111,7.9861,7.9507,7.9145,7.8796,7.8546,7.8511,7.849,7.8539,7.8705,7.8947,7.9069,7.9427,7.9625,7.974,7.9802,7.9861,7.988,7.988,7.988,7.988,7.988,7.988,7.988,7.988,7.988,7.988,7.988,7.9938,7.9977,8.0111,8.015,8.0073,8.0035,7.9977,7.9957,7.9899,7.988,7.988,7.988,7.988,7.988,7.988,7.988,7.988,7.988,7.988,7.988,7.988,7.988,7.988,7.988,7.988,7.988,7.988,7.988,7.988,7.988,7.988,7.988,7.988,7.988,7.988,7.988,7.988,7.988,7.988,7.988,7.988,7.988,7.988,7.9938,8.0092,8.0264,8.0415,8.0601,8.073,8.0712,8.0638,8.0489,8.0283,8.0073,7.988,7.988,7.988,7.988,7.9916,7.9951,8.0506,8.0423,8.1074,8.1074,8.1074,8.1074,8.1074,8.1074,8.1074,8.1074,8.1074,8.1074,8.1074,8.1074,8.1074,8.1074,8.1074,8.1074,8.1111,8.1075,8.1003,8.0876,8.0785,8.073,8.0619,8.0452,8.0283,8.0245,8.0015,7.9684,7.9582,7.9327,7.917,7.9049,7.911,7.913,7.917,7.9331,7.9487,7.9724,7.9822,7.9822,7.9861,7.988,7.988,7.988,7.988,7.988,7.988,7.988,7.988,7.988,7.988,7.988,7.9919,7.9996,8.0111,8.0245,8.032,8.0358,8.0226,8.0169,8.0111,8.0015,7.988,7.988,7.988,7.988,7.988,7.988,7.988,7.988,7.988,7.988,7.988,7.988,7.988,7.988,7.988,7.988,7.988,7.988,7.988,7.988,7.988,7.988,7.988,7.988,7.988,7.988,7.988,7.988,7.988,7.988,7.988,7.988,7.988,7.988,7.9977,8.013,8.0283,8.0452,8.0656,8.0894,8.0821,8.0748,8.0601,8.0486,8.0345,8.0169,7.9971,7.988,7.988,7.9987,8.013,8.0791,8.0368,8.1074,8.1074,8.1074,8.1074,8.1074,8.1074,8.1074,8.1074,8.1074,8.1074,8.1074,8.1074,8.1074,8.1074,8.1074,8.1074,8.1074,8.1074,8.1074,8.1003,8.0967,8.093,8.0858,8.0767,8.0564,8.0433,8.0264,7.9996,7.9857,7.9743,7.9625,7.9507,7.9447,7.9467,7.9546,7.9665,7.9724,7.9841,7.988,7.988,7.988,7.988,7.988,7.988,7.988,7.988,7.988,7.988,7.988,7.988,7.9899,7.9919,8.0015,8.0111,8.0245,8.0415,8.0564,8.0564,8.0377,8.015,8.0015,7.9919,7.988,7.988,7.988,7.988,7.988,7.988,7.988,7.988,7.988,7.988,7.988,7.988,7.988,7.988,7.988,7.988,7.988,7.988,7.988,7.988,7.988,7.988,7.988,7.988,7.988,7.988,7.988,7.988,7.988,7.988,7.988,7.988,7.988,7.988,8.0015,8.0169,8.0358,8.0545,8.0821,8.1003,8.093,8.0803,8.0601,8.0521,8.0612,8.0457,8.0221,8.0023,7.988,8.0058,8.0272,8.097,8.0223,8.0712,8.073,8.0911,8.1074,8.1074,8.1074,8.1074,8.1074,8.1074,8.1074,8.1074,8.1074,8.1074,8.1074,8.1074,8.1074,8.1074,8.1074,8.1074,8.1074,8.1074,8.1074,8.1038,8.093,8.0785,8.0601,8.0377,8.015,7.9977,7.988,7.9802,7.9763,7.9684,7.9704,7.9802,7.988,7.988,7.988,7.988,7.988,7.988,7.988,7.988,7.988,7.988,7.988,7.988,7.988,7.988,7.9899,7.9974,8.0015,8.0111,8.0245,8.0415,8.0601,8.0821,8.0693,8.0508,8.0169,7.9993,7.9899,7.988,7.988,7.988,7.988,7.988,7.988,7.988,7.988,7.988,7.988,7.988,7.988,7.988,7.988,7.988,7.988,7.988,7.988,7.988,7.988,7.988,7.988,7.988,7.988,7.988,7.988,7.988,7.988,7.988,7.988,7.988,7.988,7.9899,7.9938,8.0111,8.0264,8.0452,8.0675,8.093,8.1056,8.1003,8.084,8.0582,8.0609,8.0703,8.0603,8.0435,8.0363,8.0379,8.0435,8.072,8.097,7.9861,7.9933,7.9933,8.035,8.0893,8.1038,8.0984,8.0857,8.0966,8.0966,8.0966,8.1002,8.1074,8.1074,8.1002,8.0893,8.0857,8.0857,8.0821,8.0712,8.0785,8.0966,8.1038,8.0984,8.1003,8.0803,8.0638,8.0452,8.0226,8.0035,7.9938,7.988,7.9841,7.9841,7.9916,7.988,7.988,7.988,7.988,7.988,7.988,7.988,7.988,7.988,7.988,7.988,7.988,7.988,7.9899,7.9938,7.9938,8.0035,8.0188,8.0245,8.0415,8.0693,8.0767,8.0803,8.0748,8.0582,8.0264,7.9993,7.988,7.988,7.988,7.988,7.988,7.988,7.988,7.988,7.988,7.988,7.988,7.988,7.988,7.988,7.988,7.988,7.988,7.988,7.988,7.988,7.988,7.988,7.988,7.988,7.988,7.988,7.988,7.988,7.988,7.988,7.988,7.988,7.988,7.9919,7.9977,8.0169,8.0358,8.0564,8.073,8.093,8.1021,8.1038,8.0821,8.0527,8.0681,8.0813,8.1071,8.1327,8.1148,8.1113,8.1077,8.1148,8.1434,7.8629,7.91,7.91,7.9245,7.9499,7.9535,7.9499,7.9607,8.0042,8.0295,8.0423,8.0821,8.1074,8.0966,8.0495,8.0295,8.0259,7.9607,7.9499,7.9607,8.0078,8.0259,8.044,8.0785,8.1002,8.0985,8.0785,8.0582,8.0396,8.0169,7.9996,7.9938,7.988,7.988,7.988,7.988,7.988,7.988,7.988,7.988,7.988,7.988,7.988,7.988,7.988,7.988,7.9899,7.9899,7.9957,8.0054,8.0073,8.0188,8.0377,8.0471,8.0638,8.0821,8.0876,8.084,8.0656,8.0396,8.0188,7.9977,7.988,7.988,7.988,7.988,7.988,7.988,7.988,7.988,7.988,7.988,7.988,7.988,7.988,7.988,7.988,7.988,7.988,7.988,7.988,7.988,7.988,7.988,7.988,7.988,7.988,7.988,7.988,7.988,7.988,7.988,7.988,7.988,7.9899,7.9977,8.0092,8.0283,8.0489,8.0693,8.0858,8.0985,8.1021,8.1056,8.0767,8.0507,8.0732,8.1097,8.1961,8.229,8.204,8.1862,8.1862,8.1826,8.1898,7.805,7.8267,7.8267,7.8122,7.7977,7.8448,7.8702,7.881,7.9245,7.9499,7.9607,8.0042,8.0205,8.006,7.9788,7.9499,7.9426,7.9028,7.8738,7.8774,7.9209,7.9643,8.0042,8.044,8.0748,8.0912,8.093,8.0693,8.0582,8.032,8.0092,7.9938,7.988,7.988,7.988,7.988,7.988,7.988,7.988,7.988,7.988,7.988,7.988,7.988,7.988,7.988,7.9919,7.9977,8.0054,8.0188,8.0283,8.0396,8.0582,8.0712,8.0821,8.0912,8.0821,8.0767,8.0527,8.0226,8.0035,7.9919,7.988,7.988,7.988,7.988,7.988,7.988,7.988,7.988,7.988,7.988,7.988,7.988,7.988,7.988,7.988,7.988,7.988,7.988,7.988,7.988,7.988,7.988,7.988,7.988,7.988,7.988,7.988,7.988,7.988,7.9899,7.9919,7.9938,7.9996,8.0092,8.0226,8.0377,8.0601,8.0839,8.0912,8.1038,8.1056,8.1038,8.0748,8.0614,8.0873,8.1344,8.1957,8.254,8.2826,8.2683,8.2611,8.2611,8.2611,7.8159,7.7524,7.7434,7.7,7.6637,7.7869,7.8484,7.8593,7.8629,7.8666,7.8702,7.8774,7.9028,7.8847,7.8702,7.8666,7.8557,7.8484,7.8376,7.8448,7.8521,7.9064,7.9571,7.9969,8.0495,8.084,8.093,8.0821,8.073,8.0377,8.0092,7.9957,7.9899,7.9899,7.988,7.988,7.988,7.988,7.988,7.988,7.988,7.988,7.988,7.988,7.988,7.9919,7.9977,8.0073,8.0188,8.0302,8.0415,8.0601,8.073,8.0803,8.0912,8.093,8.073,8.0582,8.0452,8.015,7.9957,7.988,7.988,7.988,7.988,7.988,7.988,7.988,7.988,7.988,7.988,7.988,7.988,7.988,7.988,7.988,7.988,7.988,7.988,7.988,7.988,7.988,7.988,7.988,7.988,7.988,7.988,7.988,7.988,7.988,7.988,7.9899,7.9938,8.0015,8.0111,8.0226,8.0396,8.0582,8.0712,8.0894,8.1003,8.1056,8.1074,8.0985,8.0712,8.0613,8.0615,8.1016,8.1652,8.2219,8.2611,8.3325,8.3182,8.3397,8.3468,7.6855,7.6618,7.6022,7.5985,7.6348,7.6782,7.7016,7.7036,7.7579,7.7833,7.7869,7.8448,7.8521,7.8666,7.8122,7.7905,7.7615,7.7289,7.7053,7.7198,7.7688,7.834,7.8992,7.9607,8.0295,8.0821,8.1003,8.0912,8.073,8.0415,8.0226,8.0111,7.9977,7.9919,7.9899,7.988,7.988,7.988,7.988,7.988,7.988,7.988,7.988,7.988,7.9919,7.9957,8.0092,8.0188,8.032,8.0582,8.0656,8.0803,8.0985,8.1003,8.1056,8.1021,8.0767,8.0489,8.0433,8.0111,7.988,7.9899,7.988,7.988,7.988,7.988,7.988,7.988,7.988,7.988,7.988,7.988,7.988,7.988,7.988,7.988,7.988,7.988,7.988,7.988,7.988,7.988,7.988,7.988,7.988,7.988,7.988,7.988,7.988,7.988,7.988,7.9899,8.0015,8.0111,8.0283,8.0415,8.0601,8.0767,8.0876,8.0967,8.1021,8.1074,8.1074,8.0912,8.0638,8.0356,8.0175,8.0649,8.122,8.1541,8.2005,8.3004,8.3789,8.3789,8.3967,7.5334,7.5297,7.4846,7.4919,7.5297,7.537,7.5334,7.5551,7.6529,7.7036,7.7072,7.747,7.776,7.7615,7.7217,7.7036,7.6963,7.669,7.6473,7.6618,7.6835,7.747,7.8267,7.9064,7.9771,8.0423,8.0929,8.1003,8.0804,8.0619,8.0433,8.0302,8.0111,8.0035,7.9996,7.9938,7.988,7.988,7.988,7.988,7.988,7.988,7.988,7.9899,7.9938,8.0092,8.0207,8.0283,8.0564,8.0785,8.084,8.0948,8.1074,8.1074,8.1074,8.1021,8.0821,8.0601,8.0471,8.0207,8.0015,7.9919,7.988,7.988,7.988,7.988,7.988,7.988,7.988,7.988,7.988,7.988,7.988,7.988,7.988,7.988,7.988,7.988,7.988,7.988,7.988,7.988,7.988,7.988,7.988,7.988,7.988,7.988,7.988,7.988,7.988,7.9899,8.0054,8.0207,8.0396,8.0582,8.0748,8.0876,8.0967,8.1038,8.1074,8.1038,8.1003,8.0803,8.0564,8.0281,8.0045,8.0221,8.0649,8.1006,8.1398,8.2148,8.2968,8.3504,8.3825,7.3905,7.3941,7.3905,7.3905,7.3832,7.3941,7.4013,7.405,7.5442,7.6094,7.6058,7.6094,7.6094,7.6058,7.5949,7.6094,7.613,7.6058,7.613,7.6292,7.6401,7.6927,7.7651,7.8267,7.9028,7.9825,8.0314,8.0513,8.084,8.0749,8.0601,8.0508,8.0283,8.015,8.0111,7.9957,7.988,7.988,7.988,7.988,7.988,7.988,7.9899,7.9919,8.0054,8.0207,8.032,8.0527,8.0803,8.0876,8.0948,8.1093,8.1074,8.1074,8.1074,8.1021,8.0858,8.073,8.0545,8.0302,8.0111,7.9996,7.9899,7.988,7.988,7.988,7.988,7.988,7.988,7.988,7.988,7.988,7.988,7.988,7.988,7.988,7.988,7.988,7.988,7.988,7.988,7.988,7.988,7.988,7.988,7.988,7.988,7.988,7.9899,7.9899,7.9957,7.9957,8.015,8.0358,8.0545,8.0712,8.0876,8.1003,8.1093,8.1074,8.1074,8.1003,8.0912,8.0693,8.0452,8.0207,8.0029,8.0169,8.0328,8.0613,8.097,8.1327,8.2005,8.279,8.3432,7.3905,7.3905,7.3905,7.3543,7.3108,7.3651,7.3868,7.3941,7.4267,7.4464,7.4484,7.4484,7.4556,7.4665,7.4701,7.4935,7.5389,7.557,7.5804,7.613,7.6292,7.6654,7.7343,7.7777,7.8303,7.8774,7.9281,7.9752,8.0134,8.0479,8.0731,8.0621,8.029,8.0013,7.9992,7.9801,7.9812,7.9757,7.9737,7.9737,7.9773,7.9844,7.9899,7.9922,8.0056,8.0266,8.0416,8.0656,8.0858,8.1003,8.1038,8.1074,8.1074,8.1074,8.1074,8.1038,8.0912,8.0803,8.0638,8.0415,8.0207,8.0092,7.9996,7.9919,7.988,7.988,7.988,7.988,7.988,7.988,7.988,7.988,7.988,7.988,7.988,7.988,7.988,7.988,7.988,7.988,7.988,7.988,7.988,7.988,7.988,7.988,7.988,7.9899,7.9957,7.9996,8.0111,8.015,8.032,8.0508,8.0675,8.0821,8.0967,8.1093,8.1219,8.1147,8.1183,8.1238,8.1308,8.0708,8.0339,8.0398,8.035,8.0026,8.0185,8.0613,8.0827,8.1291,8.1327,8.1898,8.2611,7.2818,7.2834,7.2818,7.2601,7.2291,7.2653,7.2818,7.2818,7.2818,7.2818,7.2999,7.3506,7.3868,7.3868,7.3905,7.4267,7.4919,7.51,7.5659,7.6094,7.6328,7.6492,7.6944,7.7343,7.7724,7.8159,7.8593,7.9064,7.9409,7.9573,7.9792,7.9883,7.9593,7.9426,7.9352,7.9379,7.9441,7.9328,7.9364,7.9328,7.9328,7.9364,7.9441,7.9517,7.9707,8.0038,8.0583,8.0803,8.0948,8.1056,8.1074,8.1074,8.1074,8.1074,8.1074,8.1056,8.0985,8.0894,8.0748,8.0545,8.0302,8.0188,8.0015,7.9899,7.988,7.988,7.988,7.988,7.988,7.988,7.988,7.988,7.988,7.988,7.988,7.988,7.988,7.988,7.988,7.988,7.988,7.988,7.988,7.988,7.988,7.988,7.988,7.9899,7.9957,8.0111,8.0226,8.0358,8.0508,8.0619,8.073,8.0876,8.1038,8.1183,8.1491,8.1817,8.2069,8.1903,8.1681,8.1348,8.1122,8.1198,8.1025,8.072,8.0863,8.1398,8.1362,8.1291,8.1291,8.1362,8.1969,7.1567,7.1494,7.1531,7.1531,7.1531,7.1531,7.1567,7.1567,7.1531,7.1567,7.1784,7.2963,7.3506,7.3579,7.3615,7.4231,7.4629,7.4701,7.5334,7.6094,7.6292,7.6401,7.6618,7.6963,7.7217,7.7579,7.805,7.8303,7.8557,7.8848,7.8975,7.8686,7.851,7.8351,7.8297,7.849,7.8733,7.86,7.8527,7.8474,7.851,7.8565,7.8695,7.8864,7.9158,7.9702,8.037,8.0804,8.0912,8.1074,8.1074,8.1074,8.1074,8.1074,8.1074,8.1056,8.1056,8.0967,8.084,8.0619,8.0433,8.0245,8.0035,7.9899,7.988,7.988,7.988,7.988,7.988,7.988,7.988,7.988,7.988,7.988,7.988,7.988,7.988,7.988,7.988,7.988,7.988,7.988,7.988,7.988,7.988,7.988,7.9899,7.9919,7.9977,8.0188,8.0358,8.0527,8.0712,8.0785,8.1002,8.1111,8.1328,8.1961,8.2342,8.2702,8.2898,8.2531,8.2342,8.2271,8.2131,8.1957,8.1918,8.1684,8.1969,8.2112,8.1862,8.1648,8.1719,8.1755,8.1755,7.1494,7.1494,7.1494,7.1494,7.1494,7.1494,7.1494,7.1494,7.1494,7.1494,7.1603,7.1675,7.1949,7.1949,7.1965,7.271,7.4231,7.4339,7.5225,7.6094,7.6292,7.6292,7.6364,7.6582,7.6546,7.6855,7.7326,7.7651,7.776,7.8267,7.8629,7.8503,7.8401,7.8224,7.8045,7.8114,7.7983,7.7798,7.7708,7.7674,7.7446,7.7589,7.7947,7.8168,7.8387,7.9035,7.9648,8.0008,8.0513,8.0857,8.1074,8.1074,8.1074,8.1074,8.1074,8.1074,8.1074,8.1056,8.0912,8.0656,8.0471,8.0377,8.015,7.9899,7.988,7.988,7.988,7.988,7.988,7.988,7.988,7.988,7.988,7.988,7.988,7.988,7.988,7.988,7.988,7.988,7.988,7.988,7.988,7.988,7.988,7.9899,7.9919,7.9957,8.0092,8.0302,8.0508,8.0675,8.0858,8.1455,8.1835,8.1672,8.1889,8.2541,8.3084,8.3261,8.3256,8.2979,8.284,8.2961,8.268,8.2346,8.2362,8.2683,8.2504,8.254,8.2255,8.2076,8.2219,8.2219,8.229]}]]